[[{"header":{"parameterUnit":"m.s-1","parameterCategory":1,"la1":30.6,"la2":29.2853,"lo1":-89.7004,"lo2":-87.6739,"dy":0.0162,"dx":0.0183,"nx":112,"ny":82,"refTime":"2023-09-18T12:00:00:Z","depth":0,"parameterNumber":2,"parameterNumberName":"U-component_of_WINDS"},"data":[0.0,0.0,0.0,0.0,0.0,0.0,0.0,0.0,0.0,0.0,0.0,0.0,0.0,0.0,0.0,0.0,0.0,0.0,0.0,0.0,0.0,0.0,0.0,0.0,0.0,0.0,0.0,0.0,0.0,0.0,0.0,0.0,0.0,0.0,0.0,0.0,0.0,0.0,0.0,0.0,0.0,0.0,0.0,0.0,0.0,0.0,0.0,0.0,0.0,0.0,0.0,0.0,0.0,0.0,0.0,0.0,0.0,0.0,0.0,0.0,0.0,0.0,0.0,0.0,0.0,0.0,0.0,0.0,0.0,0.0,0.0,0.0,0.0,0.0,0.0,0.0,0.0,0.0,0.0,0.0,0.0,0.0,0.0,0.0,0.0,0.0,0.0,0.0,0.0,0.0,1.3461,1.3545,1.4002,1.4292,1.4292,1.4292,1.4292,1.4292,0.0,0.0,0.0,0.0,0.0,0.0,0.0,0.0,0.0,0.0,0.0,0.0,0.0,0.0,0.0,0.0,0.0,0.0,0.0,0.0,0.0,0.0,0.0,0.0,0.0,0.0,0.0,0.0,0.0,0.0,0.0,0.0,0.0,0.0,0.0,0.0,0.0,0.0,0.0,0.0,0.0,0.0,0.0,0.0,0.0,0.0,0.0,0.0,0.0,0.0,0.0,0.0,0.0,0.0,0.0,0.0,0.0,0.0,0.0,0.0,0.0,0.0,0.0,0.0,0.0,0.0,0.0,0.0,0.0,0.0,0.0,0.0,0.0,0.0,0.0,0.0,0.0,0.0,0.0,0.0,0.0,0.0,0.0,0.0,0.0,0.0,0.0,0.0,0.0,0.0,0.0,0.0,0.0,0.0,0.0,0.0,0.0,0.0,0.0,0.0,0.0,0.0,0.0,0.0,1.3328,1.3797,1.4123,1.4292,1.4292,1.4292,1.4292,1.4292,0.0,0.0,0.0,0.0,0.0,0.0,0.0,0.0,0.0,0.0,0.0,0.0,0.0,0.0,0.0,0.0,0.0,0.0,0.0,0.0,0.0,0.0,0.0,0.0,0.0,0.0,0.0,0.0,0.0,0.0,0.0,0.0,0.0,0.0,0.0,0.0,0.0,0.0,0.0,0.0,0.0,0.0,0.0,0.0,0.0,0.0,0.0,0.0,0.0,0.0,0.0,0.0,0.0,0.0,0.0,0.0,0.0,0.0,0.0,0.0,0.0,0.0,0.0,0.0,0.0,0.0,0.0,0.0,0.0,0.0,0.0,0.0,0.0,0.0,0.0,0.0,0.0,0.0,0.0,0.0,0.0,0.0,0.0,0.0,0.0,0.0,0.0,0.0,0.0,0.0,0.0,0.0,0.0,0.0,0.0,0.0,0.0,0.0,0.0,0.0,0.0,0.0,0.0,1.3316,1.3509,1.4063,1.422,1.4292,1.4292,1.4292,1.4292,1.4292,1.3763,0.0,0.0,0.0,0.0,0.0,0.0,0.0,0.0,0.0,0.0,0.0,0.0,0.0,0.0,0.0,0.0,0.0,0.0,0.0,0.0,0.0,0.0,0.0,0.0,0.0,0.0,0.0,0.0,0.0,0.0,0.0,0.0,0.0,0.0,0.0,0.0,0.0,0.0,0.0,0.0,0.0,0.0,0.0,0.0,0.0,0.0,0.0,0.0,0.0,0.0,0.0,0.0,0.0,0.0,0.0,0.0,0.0,0.0,0.0,0.0,0.0,0.0,0.0,0.0,0.0,0.0,0.0,0.0,0.0,0.0,0.0,0.0,0.0,0.0,0.0,0.0,0.0,0.0,0.0,0.0,0.0,0.0,0.0,0.0,0.0,0.0,0.0,0.0,0.0,0.0,0.0,0.0,0.0,0.0,0.0,0.0,0.0,0.0,0.0,0.0,0.0,0.0,1.3665,1.3785,1.4244,1.4292,1.4292,1.4292,1.4292,1.4292,1.4292,1.3294,0.0,0.0,0.0,0.0,0.0,0.0,0.0,0.0,0.0,0.0,0.0,0.0,0.0,0.0,0.0,0.0,0.0,0.0,0.0,0.0,0.0,0.0,0.0,0.0,0.0,0.0,0.0,0.0,0.0,0.0,0.0,0.0,0.0,0.0,0.0,0.0,0.0,0.0,0.0,0.0,0.0,0.0,0.0,0.0,0.0,0.0,0.0,0.0,0.0,0.0,0.0,0.0,0.0,0.0,0.0,0.0,0.0,0.0,0.0,0.0,0.0,0.0,0.0,0.0,0.0,0.0,0.0,0.0,0.0,0.0,0.0,0.0,0.0,0.0,0.0,0.0,0.0,0.0,0.0,0.0,0.0,0.0,0.0,0.0,0.0,0.0,0.0,0.0,0.0,0.0,0.0,0.0,0.0,0.0,0.0,0.0,0.0,0.0,0.0,0.0,0.0,0.0,1.3737,1.399,1.4268,1.4292,1.4292,1.4292,1.4292,1.4292,1.4292,1.3294,0.0,0.0,0.0,0.0,0.0,0.0,0.0,0.0,0.0,0.0,0.0,0.0,0.0,0.0,0.0,0.0,0.0,0.0,0.0,0.0,0.0,0.0,0.0,0.0,0.0,0.0,0.0,0.0,0.0,0.0,0.0,0.0,0.0,0.0,0.0,0.0,0.0,0.0,0.0,0.0,0.0,0.0,0.0,0.0,0.0,0.0,0.0,0.0,0.0,0.0,0.0,0.0,0.0,0.0,0.0,0.0,0.0,0.0,0.0,0.0,0.0,0.0,0.0,0.0,0.0,0.0,0.0,0.0,0.0,0.0,0.0,0.0,0.0,0.0,0.0,0.0,0.0,0.0,0.0,0.0,0.0,0.0,0.0,0.0,0.0,0.0,0.0,0.0,0.0,0.0,0.0,0.0,0.0,0.0,0.0,0.0,0.0,0.0,0.0,0.0,0.0,0.0,1.3624,1.4002,0.0,1.4292,1.4292,1.4292,1.4292,1.416,1.3823,0.0,0.0,0.0,0.0,0.0,0.0,0.0,0.0,0.0,0.0,0.0,0.0,0.0,0.0,0.0,0.0,0.0,0.0,0.0,0.0,0.0,0.0,0.0,0.0,0.0,0.0,0.0,0.0,0.0,0.0,0.0,0.0,0.0,0.0,0.0,0.0,0.0,0.0,0.0,0.0,0.0,0.0,0.0,0.0,0.0,0.0,0.0,0.0,0.0,0.0,0.0,0.0,0.0,0.0,0.0,0.0,0.0,0.0,0.0,0.0,0.0,0.0,0.0,0.0,0.0,0.0,0.0,0.0,0.0,0.0,0.0,0.0,0.0,0.0,0.0,0.0,0.0,0.0,0.0,0.0,0.0,0.0,0.0,0.0,0.0,0.0,0.0,0.0,0.0,0.0,0.0,0.0,0.0,0.0,0.0,0.0,0.0,0.0,0.0,0.0,0.0,0.0,1.2887,1.3272,1.3625,0.0,1.3823,1.3823,1.3823,1.3823,1.3558,1.2942,0.0,0.0,0.0,0.0,0.0,0.0,0.0,0.0,0.0,0.0,0.0,0.0,0.0,0.0,0.0,0.0,0.0,0.0,0.0,0.0,0.0,0.0,0.0,0.0,0.0,0.0,0.0,0.0,0.0,0.0,0.0,0.0,0.0,0.0,0.0,0.0,0.0,0.0,0.0,0.0,0.0,0.0,0.0,0.0,0.0,0.0,0.0,0.0,0.0,0.0,0.0,0.0,0.0,0.0,0.0,0.0,0.0,0.0,0.0,0.0,0.0,0.0,0.0,0.0,0.0,0.0,0.0,0.0,0.0,0.0,0.0,0.0,0.0,0.0,0.0,0.0,0.0,0.0,0.0,0.0,0.0,0.0,0.0,0.0,0.0,0.0,0.0,0.0,0.0,0.0,0.0,0.0,0.0,0.0,0.0,0.0,0.0,0.0,0.0,0.0,0.0,0.0,1.2423,1.2643,1.2794,1.2794,1.2794,1.2794,1.2807,1.2807,1.2457,0.0,0.0,0.0,0.0,0.0,0.0,0.0,0.0,0.0,0.0,0.0,0.0,0.0,0.0,0.0,0.0,0.0,0.0,0.0,0.0,0.0,0.0,0.0,0.0,0.0,0.0,0.0,0.0,0.0,0.0,0.0,0.0,0.0,0.0,0.0,0.0,0.0,0.0,0.0,0.0,0.0,0.0,0.0,0.0,0.0,0.0,0.0,0.0,0.0,0.0,0.0,0.0,0.0,0.0,0.0,0.0,0.0,0.0,0.0,0.0,0.0,0.0,0.0,0.0,0.0,0.0,0.0,0.0,0.0,0.0,0.0,0.0,0.0,0.0,0.0,0.0,0.0,0.0,0.0,0.0,0.0,0.0,0.0,0.0,0.0,0.0,0.0,0.0,0.0,0.0,0.0,0.0,0.0,0.0,0.0,0.0,0.0,0.0,0.0,0.0,0.0,0.0,0.0,1.2323,1.2741,1.3007,1.3007,1.3007,1.2942,1.2805,1.2807,1.254,1.1922,0.0,0.0,0.0,0.0,0.0,0.0,0.0,0.0,0.0,0.0,0.0,0.0,0.0,0.0,0.0,0.0,0.0,0.0,0.0,0.0,0.0,0.0,0.0,0.0,0.0,0.0,0.0,0.0,0.0,0.0,0.0,0.0,0.0,0.0,0.0,0.0,0.0,0.0,0.0,0.0,0.0,0.0,0.0,0.0,0.0,0.0,0.0,0.0,0.0,0.0,0.0,0.0,0.0,0.0,0.0,0.0,0.0,0.0,0.0,0.0,0.0,0.0,0.0,0.0,0.0,0.0,0.0,0.0,0.0,0.0,0.0,0.0,0.0,0.0,0.0,0.0,0.0,0.0,0.0,0.0,0.0,0.0,0.0,0.0,0.0,0.0,0.0,0.0,0.0,0.0,0.0,0.0,0.0,0.0,0.0,0.0,0.0,0.0,0.0,0.0,0.0,0.0,1.1949,1.2254,1.2464,1.2464,1.2464,1.2372,1.2172,1.2151,1.1883,1.1247,0.0,0.0,0.0,0.0,0.0,0.0,0.0,0.0,0.0,0.0,0.0,0.0,0.0,0.0,0.0,0.0,0.0,0.0,0.0,0.0,0.0,0.0,0.0,0.0,0.0,0.0,0.0,0.0,0.0,0.0,0.0,0.0,0.0,0.0,0.0,0.0,0.0,0.0,0.0,0.0,0.0,0.0,0.0,0.0,0.0,0.0,0.0,0.0,0.0,0.0,0.0,0.0,0.0,0.0,0.0,0.0,0.0,0.0,0.0,0.0,0.0,0.0,0.0,0.0,0.0,0.0,0.0,0.0,0.0,0.0,0.0,0.0,0.0,0.0,0.0,0.0,0.0,0.0,0.0,0.0,0.0,0.0,0.0,0.0,0.0,0.0,0.0,0.0,0.0,0.0,0.0,0.0,0.0,0.0,0.0,0.0,0.0,0.0,0.0,0.0,0.0,0.0,1.1494,1.1523,1.1523,1.1523,1.1523,1.1453,1.1217,1.1125,1.0781,1.0043,0.0,0.0,0.0,0.0,0.0,0.0,0.0,0.0,0.0,0.0,0.0,0.0,0.0,0.0,0.0,0.0,0.0,0.0,0.0,0.0,0.0,0.0,0.0,0.0,0.0,0.0,0.0,0.0,0.0,0.0,0.0,0.0,0.0,0.0,0.0,0.0,0.0,0.0,0.0,0.0,0.0,0.0,0.0,0.0,0.0,0.0,0.0,0.0,0.0,0.0,0.0,0.0,0.0,0.0,0.0,0.0,0.0,0.0,0.0,0.0,1.1494,0.0,0.0,0.0,0.0,0.0,0.0,0.0,0.0,0.0,0.0,0.0,0.0,0.0,0.0,0.0,0.0,0.0,0.0,0.0,0.0,0.0,0.0,0.0,0.0,0.0,0.0,0.0,0.0,0.0,0.0,0.0,0.0,0.0,0.0,0.0,0.0,0.0,0.0,0.0,0.0,0.0,1.1683,1.1756,1.1756,1.1756,1.1756,1.1605,1.1227,1.0609,1.0191,1.0019,0.88,0.0,0.0,0.0,0.0,0.0,0.0,0.0,0.0,0.0,0.0,0.0,0.0,0.0,0.0,0.0,0.0,0.0,0.0,0.0,0.0,0.0,0.0,0.0,0.0,0.0,0.0,0.0,0.0,0.0,0.0,0.0,0.0,0.0,0.0,0.0,0.0,0.0,0.0,0.0,0.0,0.0,0.0,0.0,0.0,0.0,0.0,0.0,0.0,0.0,0.0,0.0,0.0,0.0,0.0,0.0,0.0,0.0,0.0,0.0,0.0,1.1636,0.0,0.0,0.0,0.0,0.0,0.0,0.0,0.0,0.0,0.0,0.0,0.0,0.0,0.0,0.0,0.0,0.0,0.0,0.0,0.0,0.0,0.0,0.0,0.0,0.0,0.0,0.0,0.0,0.0,0.0,0.0,0.0,0.0,0.0,0.0,0.0,0.0,0.0,0.0,0.0,1.1765,1.1787,1.1834,1.1938,1.1853,1.169,1.1378,1.0861,1.0413,1.0019,0.9221,0.0,0.0,0.0,0.0,0.0,0.0,0.0,0.0,0.0,0.0,0.0,0.0,0.0,0.0,0.0,0.0,0.0,0.0,0.0,0.0,0.0,0.0,0.0,0.0,0.0,0.0,0.0,0.0,0.0,0.0,0.0,0.0,0.0,0.0,0.0,0.0,0.0,0.0,0.0,0.0,0.0,0.0,0.0,0.0,0.0,0.0,0.0,0.0,0.0,0.0,0.0,0.0,0.0,1.2585,1.2792,1.294,1.2965,1.2956,1.2928,1.2332,1.2098,1.2136,0.0,0.0,0.0,0.0,0.0,0.0,0.0,0.0,0.0,0.0,0.0,0.0,0.0,0.0,0.0,0.0,0.0,0.0,0.0,0.0,0.0,0.0,0.0,0.0,0.0,1.173,1.1758,0.0,0.0,0.0,0.0,0.0,0.0,0.0,0.0,0.0,0.0,0.0,0.0,1.174,1.1824,1.1919,1.2071,1.1956,1.1768,1.156,1.112,1.0555,0.9888,0.9541,0.8775,0.0,0.0,0.0,0.0,0.0,0.0,0.0,0.0,0.0,0.0,0.0,0.0,0.0,0.0,0.0,0.0,0.0,0.0,0.0,0.0,0.0,0.0,0.0,0.0,0.0,0.0,0.0,0.0,0.0,0.0,0.0,0.0,1.2269,1.2045,0.0,0.0,0.0,0.0,0.0,0.0,0.0,0.0,0.0,0.0,0.0,0.0,0.0,1.2261,1.2421,1.3205,1.3527,1.3402,1.383,1.3972,1.3821,1.3665,1.357,1.3581,1.3296,0.0,1.2371,1.2315,0.0,0.0,0.0,0.0,0.0,0.0,0.0,0.0,0.0,0.0,0.0,0.0,0.0,0.0,0.0,0.0,0.0,0.0,0.0,0.0,0.0,0.0,1.2032,1.2032,1.2051,1.206,0.0,1.1702,1.1447,1.1447,0.0,0.0,0.0,0.0,0.0,0.0,0.0,0.0,1.1758,1.1956,1.2079,1.2107,1.2088,1.1985,1.1768,1.0306,0.933,0.9229,0.7748,0.6786,0.6562,0.6562,0.0,0.0,0.0,0.0,0.0,0.0,0.0,0.0,0.0,0.0,0.0,0.0,0.0,0.0,0.0,0.0,0.0,0.0,0.0,0.0,0.0,0.0,0.0,0.0,0.0,0.0,0.0,0.0,0.0,1.2543,1.2571,1.2311,1.22,1.1897,0.0,0.0,0.0,0.0,0.0,0.0,0.0,0.0,0.0,1.2879,1.3136,1.3419,1.3701,1.4215,1.4474,1.4493,1.4602,1.4644,1.4653,1.4364,1.4222,1.4172,1.3996,1.375,1.3409,1.2701,1.2437,1.2455,0.0,0.0,0.0,0.0,1.207,1.2004,1.2266,1.2351,0.0,0.0,0.0,0.0,0.0,0.0,0.0,0.0,0.0,0.0,0.0,0.0,0.0,1.2493,1.2578,1.2663,1.2663,1.2427,1.2115,0.0,1.152,1.1378,1.1378,0.0,0.0,0.0,0.0,1.1608,1.1928,1.2051,1.2128,1.2268,1.2183,1.2053,1.1975,1.0681,0.9695,0.9257,0.7929,0.6991,0.654,0.645,0.6412,0.0,0.0,0.0,0.0,0.0,0.0,0.0,0.0,0.0,0.0,0.0,0.0,0.0,0.0,0.0,0.0,0.0,0.0,0.0,0.0,0.0,0.0,0.0,0.0,0.0,0.0,0.0,0.0,1.291,1.3057,1.2552,1.2783,1.2599,0.0,0.0,0.0,0.0,0.0,0.0,1.2976,1.3099,1.3444,1.4077,1.442,1.4714,1.5026,1.5191,1.5342,1.5436,1.5238,1.5219,1.5385,1.5035,1.4804,1.4748,1.4531,1.4408,1.4317,1.3239,1.2937,1.3079,1.2682,1.2513,1.2532,1.2673,1.2635,1.2551,1.2918,1.3032,1.3003,1.2814,0.0,1.2503,1.2172,0.0,0.0,0.0,0.0,1.24,1.2598,1.2843,1.3041,1.3098,1.3231,1.3335,1.3335,1.3174,1.2842,0.0,1.185,1.1655,1.1655,0.0,0.0,0.0,0.0,1.1926,1.2154,1.2239,1.2305,1.24,1.2324,1.2168,1.1871,1.0929,0.9976,0.9087,0.8105,0.7267,0.6622,0.6504,0.6444,0.6412,0.0,0.0,0.0,0.0,0.0,0.0,0.0,0.0,0.0,0.0,0.0,0.0,0.0,0.0,0.0,0.0,0.0,0.0,0.0,0.0,0.0,0.0,0.0,0.0,0.0,0.0,0.0,0.0,0.0,1.289,1.3625,0.0,0.0,0.0,0.0,1.2516,1.296,1.3484,1.4079,1.4281,1.4739,1.547,1.5867,1.6084,1.6103,1.6301,1.6346,1.6131,1.5949,1.5854,1.5854,1.5646,1.5404,1.5153,1.4955,1.4757,1.455,1.4087,1.3939,1.3929,1.3703,1.3608,1.3608,1.3618,1.3618,1.3618,1.3666,1.3646,1.3646,1.3627,1.3392,1.3022,1.2814,1.2578,0.0,0.0,1.2899,1.3098,1.3316,1.3495,1.3693,1.3901,1.3958,1.3967,1.3967,1.3797,1.3486,0.0,1.2389,1.2079,1.2079,0.0,1.207,1.2079,1.2446,1.2635,1.2418,1.2606,1.2663,1.2428,1.2616,1.2321,1.1236,1.039,0.9466,0.8427,0.7414,0.6767,0.6596,0.659,0.6531,0.6412,0.6412,0.0,0.0,0.0,0.0,0.0,0.0,0.0,0.0,0.0,0.0,0.0,0.0,0.0,0.0,0.0,0.0,0.0,0.0,0.0,0.0,0.0,0.0,0.0,0.0,0.0,0.0,0.0,0.0,1.4232,1.4959,0.0,1.4304,1.4587,1.4725,1.4498,1.4772,1.511,1.5475,1.5681,1.6016,1.6538,1.6575,1.6642,1.6774,1.6717,1.6651,1.6575,1.6235,1.6167,1.628,1.5807,1.5617,1.5621,1.5422,1.53,1.5215,1.5106,1.4695,1.4185,1.3977,1.3901,1.391,1.4043,1.4005,1.391,1.4043,1.409,1.4071,1.3939,1.3703,1.3486,1.3411,1.3306,1.3287,1.3504,1.3618,1.3721,1.3929,1.4033,1.4109,1.4185,1.4203,1.4166,1.4043,1.3948,1.3788,1.3458,1.2918,1.254,1.254,1.24,1.2352,1.2521,1.27,1.2814,1.2833,1.2937,1.2956,1.2852,1.2946,1.256,1.1518,1.0559,0.9601,0.8633,0.7541,0.6866,0.6741,0.6634,0.6536,0.6412,0.6412,0.645,0.0,0.0,0.0,0.0,0.0,0.0,0.0,0.0,0.0,0.0,0.0,0.0,0.0,0.0,0.0,0.0,0.0,0.0,0.0,0.0,0.0,0.0,0.0,0.0,0.0,0.0,1.5668,1.5068,1.5961,1.6292,1.5517,1.5772,1.6015,1.6015,1.6204,1.6377,1.6594,1.6793,1.7029,1.7303,1.7256,1.7256,1.7312,1.718,1.7076,1.701,1.666,1.6528,1.6575,1.6129,1.5901,1.5882,1.575,1.5655,1.5598,1.5598,1.5267,1.4723,1.4581,1.4487,1.4418,1.4657,1.46,1.4408,1.4572,1.4502,1.437,1.427,1.4071,1.3901,1.3901,1.3901,1.3948,1.4166,1.4191,1.4238,1.4436,1.4484,1.4484,1.4484,1.4484,1.4487,1.4323,1.4213,1.4071,1.3929,1.3486,1.3089,1.3013,1.2909,1.289,1.2994,1.306,1.3126,1.3193,1.3202,1.3174,1.3107,1.3164,1.2656,1.1282,1.0622,0.9681,0.8306,0.7509,0.6997,0.6812,0.6725,0.6618,0.6536,0.6574,0.6618,0.6655,0.0,0.0,0.0,0.0,0.0,0.0,0.0,0.0,0.0,0.0,0.0,0.0,0.0,0.0,0.0,0.0,0.0,0.0,0.0,0.0,0.0,0.0,0.0,1.4456,1.5753,1.6226,1.5389,1.6558,1.7067,1.6081,1.65,1.6859,1.6859,1.7038,1.7237,1.7407,1.7605,1.7718,1.7727,1.7916,1.7925,1.7718,1.7708,1.7595,1.7407,1.7227,1.702,1.684,1.6613,1.6328,1.5939,1.593,1.5807,1.5627,1.5627,1.5627,1.5627,1.5598,1.5432,1.5238,1.5513,1.5422,1.521,1.521,1.4955,1.4634,1.4634,1.4525,1.4386,1.4386,1.4377,1.4455,1.4632,1.4699,1.4736,1.4926,1.4973,1.4973,1.4964,1.4964,1.4931,1.4922,1.461,1.4317,1.4317,1.3986,1.3655,1.3447,1.357,1.3666,1.3447,1.358,0.0,1.3447,1.3419,1.3334,1.3155,1.3296,1.2536,1.0512,1.0457,0.9609,0.7436,0.7248,0.7073,0.6812,0.6801,0.6801,0.6801,0.6921,0.6926,0.6801,0.0,0.0,0.0,0.0,0.0,0.0,0.0,0.0,0.0,0.0,0.0,0.0,0.0,0.0,0.0,0.0,0.0,0.0,0.0,0.0,0.0,1.377,1.4651,1.5994,1.6887,1.7407,1.7521,1.8032,1.822,1.7966,1.8099,1.8136,1.7975,1.8165,1.8201,1.8146,1.8335,1.8484,1.8626,1.8399,1.8314,1.8409,1.8076,1.7897,1.7831,1.7624,1.7567,1.7652,1.7293,1.7105,1.6982,1.6679,1.6424,1.6261,1.6261,1.6261,1.6214,1.5769,1.556,1.5513,1.557,1.556,1.5504,1.5504,1.5428,1.5343,1.5343,1.5662,1.6045,1.6045,1.641,1.685,1.688,1.6901,1.688,1.6765,1.6701,1.6659,1.646,1.6039,1.5674,1.5515,1.4971,1.4465,1.4345,1.4345,1.4229,1.3901,1.3892,1.3958,1.4043,1.4099,0.0,1.4062,1.4052,1.4033,1.3977,1.3308,1.2365,1.0989,1.0053,0.8877,0.7407,0.7143,0.6991,0.6812,0.6801,0.6801,0.6801,0.6921,0.6926,0.0,0.0,0.0,0.0,0.0,0.0,0.0,0.0,0.0,0.0,0.0,0.0,0.0,0.0,0.0,0.0,0.0,0.0,0.0,0.0,0.0,0.0,1.3393,1.456,1.6655,1.7722,1.8343,1.8629,1.8923,1.9032,1.8947,1.8938,1.8881,1.8799,1.8904,1.8881,1.8799,1.8913,1.8985,1.9108,1.8913,1.8809,1.8847,1.856,1.839,1.8305,1.8087,1.8012,1.8001,1.7661,1.7416,0.0,1.7038,1.6812,1.6613,1.6613,1.6613,0.0,0.0,0.0,0.0,0.0,1.6062,1.6294,1.6231,1.6347,1.6506,1.6506,1.6811,1.7149,1.7149,1.7453,1.7768,1.7671,1.7639,1.7585,1.7303,1.7238,1.7206,1.7033,1.671,1.6387,1.6262,1.5839,1.5451,1.5321,0.0,0.0,1.4735,1.4457,1.4248,1.4307,1.4307,1.4151,1.3672,1.3649,1.3452,1.3012,1.2406,1.161,1.0604,0.9757,0.0,0.0,0.0,0.7056,0.6883,0.6926,0.0,0.0,0.0,0.7073,0.6975,0.0,0.0,0.0,0.6991,0.704,0.0,0.0,0.0,0.0,0.0,0.0,0.0,0.0,0.0,0.0,0.0,0.0,0.0,0.0,0.0,0.0,1.2781,1.3645,1.6619,1.7957,1.8773,1.9089,1.941,1.9562,1.9382,1.9373,1.9354,1.9335,1.9354,1.9344,1.9297,0.0,0.0,0.0,0.0,1.9212,1.9093,1.9036,1.8923,1.8743,1.8534,1.8295,1.8076,1.7878,1.7605,1.7209,1.718,1.7048,1.684,1.684,1.6886,1.6979,1.6829,1.6724,1.6596,1.6396,1.6779,0.0,1.7215,0.0,0.0,1.7876,1.791,1.7978,1.7978,1.808,1.8092,1.784,1.7774,1.7719,1.7446,1.738,1.7369,1.7314,1.7239,1.7174,1.7174,1.6925,1.6742,1.6764,1.6066,1.5532,1.5714,1.5096,1.454,1.4402,1.4383,1.4027,1.3072,1.2851,1.2408,1.1449,0.0,0.0,0.9812,0.9488,0.8884,0.7774,0.7441,0.7213,0.7035,0.716,0.722,0.722,0.7301,0.7301,0.722,0.7301,0.7355,0.7379,0.7171,0.716,0.0,0.0,0.0,0.0,0.0,0.0,0.0,0.0,0.0,0.0,0.0,0.0,0.0,0.0,0.0,1.2449,1.2934,1.3779,1.5859,1.6339,1.7279,1.9448,1.9807,1.9845,1.9807,1.9798,1.9722,1.9552,1.9703,1.9656,1.9316,1.9448,1.9543,1.9543,1.9382,1.9354,1.9477,1.9146,1.8998,1.896,0.0,0.0,1.855,1.8513,1.8267,1.7822,1.7642,1.7388,1.7048,1.7048,1.7517,1.814,1.6992,1.6916,1.7351,1.7177,1.7545,1.8191,1.8148,1.821,1.8282,1.8282,1.8699,1.9185,1.9185,1.96,0.0,2.007,2.0058,1.9999,1.9739,1.9667,1.9561,1.9134,1.8571,1.8134,1.8134,1.7488,1.699,1.7217,1.6936,1.6529,1.6033,1.5193,1.4644,1.4757,1.4785,1.4711,1.4484,1.3728,1.3101,1.2906,1.137,1.0248,0.9974,0.9032,0.8244,0.7725,0.7441,0.7284,0.724,0.7383,0.7448,0.7448,0.7441,0.7441,0.7448,0.7441,0.7597,0.7858,0.7552,0.7414,0.0,0.0,0.0,0.0,0.0,0.0,0.0,0.0,0.0,0.0,0.0,0.9523,1.0095,0.0,1.123,1.2715,1.3186,1.3938,1.5562,1.5845,1.6393,1.7798,1.8575,1.922,1.9806,2.0523,2.1052,2.1312,2.1447,2.1366,2.1031,2.1112,2.113,2.113,2.1072,2.1011,2.1001,2.0667,2.0454,2.0342,2.0109,2.0008,1.9998,1.9846,1.9614,1.9251,1.9058,1.8535,1.7859,1.7859,1.8371,1.9111,1.8312,1.7992,1.7935,1.7687,1.799,1.8573,1.8876,1.9216,1.9541,1.9541,1.9785,2.0098,2.0098,2.0388,2.0676,2.0543,2.0507,2.0446,2.018,2.012,2.0014,1.9769,1.9411,1.9099,1.8959,1.8013,1.7206,1.7195,1.6263,1.5346,1.502,1.4252,1.3965,1.4782,1.4898,1.4539,1.3481,1.2882,1.2124,1.1068,1.0008,0.9359,0.9294,0.8625,0.8074,0.7807,0.7616,0.7462,0.7403,0.7457,0.7489,0.7489,0.7664,0.7752,0.7752,0.799,0.8231,0.8444,0.8359,0.8234,0.0,0.0,0.0,0.0,0.0,0.0,0.0,0.9281,0.9521,0.9949,1.0185,1.0617,1.1505,1.1901,1.2356,1.3159,1.3441,1.3973,1.5185,1.5421,1.5554,1.5608,1.7382,1.8819,1.9383,2.1163,2.2347,2.2515,2.2899,2.2977,2.2697,2.2686,2.2686,2.2686,2.2686,2.2632,2.247,2.219,2.1963,2.1767,2.1478,2.1338,2.1284,2.11,2.0845,2.0569,2.0317,1.9667,1.885,1.8799,1.9262,2.0,1.9638,1.9181,1.8715,1.8461,1.8693,1.9244,1.9643,2.0215,2.07,2.07,2.0492,2.0249,2.0249,2.0249,2.0201,1.9989,1.9929,1.9882,1.9647,1.9386,1.916,1.9114,1.9068,1.8997,1.8789,1.7774,1.6867,1.6686,1.53,1.4039,1.3908,1.3416,1.3341,1.4268,1.4408,1.3777,1.2025,1.163,1.0836,0.9084,0.8723,0.859,0.859,0.8394,0.8155,0.8023,0.7867,0.7793,0.7749,0.7722,0.774,0.7799,0.8065,0.8213,0.8213,0.8612,0.8915,0.9088,0.92,0.9069,0.8649,0.8568,0.8783,0.9542,0.9688,0.9947,0.0,1.1156,1.128,1.1806,1.2124,1.2435,1.2901,1.3208,1.3453,1.3684,1.3784,1.3924,1.4067,1.4127,1.417,1.4312,1.7941,1.9807,1.8196,2.1251,2.2514,2.0558,2.2099,2.2977,2.2697,2.2686,2.2686,2.2686,2.2686,2.2665,2.2686,2.2438,2.2201,2.1974,2.1737,2.1551,2.1295,2.1262,2.1122,2.0845,2.0382,2.0021,1.9634,1.9458,1.9975,2.0778,1.9861,1.9885,2.0416,2.0131,2.035,2.084,2.0922,2.0824,2.07,2.07,1.9785,1.8657,1.8657,1.8657,1.8646,1.8624,1.8613,1.8613,1.858,1.7547,1.6473,1.6219,1.6094,1.5982,1.5953,1.5528,1.525,1.5446,1.5101,1.4586,1.4006,1.3842,1.3514,1.2717,1.2585,1.2388,1.1861,1.0969,1.0273,1.0041,0.9183,0.859,0.859,0.847,0.835,0.8361,0.821,0.8292,0.8629,0.8483,0.8549,0.8902,0.8964,0.8989,0.8964,0.9155,0.938,0.9709,0.9729,0.9557,0.9226,0.9387,0.9693,1.0269,1.0619,1.099,1.1567,1.1835,1.2101,1.2576,1.2947,1.3338,1.3944,1.4149,1.4403,1.4963,1.5048,1.5081,1.5081,1.4967,1.486,1.4882,1.7359,1.8702,1.7764,1.9839,2.0996,2.0393,2.2108,2.3063,2.2643,2.3666,2.4278,2.4278,2.4278,2.4278,2.4278,2.4025,2.376,2.3495,2.3253,2.2999,2.2746,2.2596,2.2388,2.2123,2.1266,2.1139,2.142,2.0571,2.0809,2.17,2.1108,2.1207,2.1535,2.0798,2.0581,2.0577,2.0063,1.9804,1.9549,1.8553,1.7755,1.7227,1.7097,1.7057,1.7057,1.7057,1.7057,1.7057,1.7057,1.659,1.6049,1.5841,1.5763,1.5665,1.5418,1.4606,1.3883,1.3857,1.3095,1.2363,1.2099,1.2033,1.1802,1.1174,1.1927,1.2322,1.1538,1.1042,1.0552,0.9987,0.9522,0.9222,0.9222,0.9176,0.9117,0.9042,0.8983,0.8983,0.9098,0.9007,0.904,0.9204,0.9425,0.9519,0.9519,0.9767,0.9998,1.0205,1.0205,1.0155,0.9742,1.0072,1.0437,1.1071,1.1629,1.2115,1.2449,1.2847,1.3242,1.3623,1.3953,1.4345,1.4963,1.5112,1.5274,1.5879,1.5969,1.5949,1.5908,1.573,1.5533,1.5432,1.6395,1.7019,1.6889,1.8715,1.9843,1.9626,2.1838,2.3041,2.2632,2.3912,2.4652,2.4652,2.4652,2.4652,2.4609,2.4944,2.4969,2.4704,2.4511,2.4234,2.3897,2.3643,2.3378,2.3152,2.2303,2.2289,2.2718,2.1698,2.1702,2.2343,2.1621,2.1447,2.1475,2.0236,1.9904,1.9876,1.8769,1.8342,1.8068,1.6757,1.6045,1.5695,1.5541,1.5495,1.5495,1.5495,1.5495,1.5495,1.5495,1.5186,1.4832,1.4736,1.4658,1.4518,1.429,1.331,1.2453,1.2316,1.1408,1.0684,1.0684,1.0684,1.0625,1.0359,1.1406,1.1868,1.0916,1.0784,1.0525,0.9794,0.9694,0.9694,0.9694,0.9694,0.9651,0.9553,0.9547,0.9569,0.9561,0.9518,0.9531,0.9627,0.9883,1.0011,1.0011,1.0282,1.0453,1.0555,1.0555,1.0636,1.0156,1.0393,1.0798,1.2023,1.2721,1.3275,1.42,1.466,1.5059,1.5458,1.5511,1.5661,1.6008,1.6062,1.6062,1.6076,1.6076,1.6071,1.5922,1.573,1.5533,1.5432,1.52,1.5116,0.0,1.8465,1.9742,1.7542,2.0881,2.2902,2.2708,2.274,2.2783,2.2783,2.2783,2.274,2.2697,2.4469,2.5246,2.4993,2.4981,2.4704,2.4174,2.3909,2.3643,2.3402,2.3351,2.3234,2.3046,2.278,2.2671,2.2495,2.0589,1.9887,1.9698,1.809,1.8338,1.9202,1.7456,1.6695,1.6424,1.6171,1.5159,1.3959,1.3951,1.3987,1.3987,1.3987,1.3987,1.3987,1.3987,1.286,1.1727,1.172,1.1523,1.1379,1.1489,1.1139,1.0798,1.0914,1.0819,1.0684,1.0684,1.0684,1.0684,1.0684,1.0717,1.0518,0.9827,0.9761,0.9728,0.9694,0.9694,0.9694,0.9694,0.9694,0.9694,0.9688,0.9688,0.9854,1.0147,1.0045,1.013,1.0454,1.0487,1.0487,1.0487,1.0636,1.0677,1.0677,1.0677,1.0765,1.0822,1.1511,1.2301,1.3294,1.3854,1.4316,1.4944,1.5269,1.5459,1.556,1.5479,1.5309,1.5208,1.5194,1.5228,1.533,1.5594,1.5771,1.5716,1.5493,1.5242,1.4951,1.4706,1.4529,0.0,0.0,0.0,1.5495,1.7784,1.9158,1.8968,2.0178,2.0828,2.0828,2.0828,2.1391,2.26,2.3256,2.4097,2.5005,2.4644,2.4366,2.4186,2.3921,2.3752,2.3668,2.3487,2.3366,2.3156,2.1585,2.1006,2.0952,1.8897,1.8198,1.8153,1.6395,1.5969,1.6225,1.5722,1.5471,1.5181,1.3856,1.311,1.267,1.2424,1.2359,1.2359,1.2359,1.2359,1.2359,1.2359,1.1972,1.1592,1.1491,1.1389,1.1336,1.1288,1.1152,1.1063,1.1084,1.0941,1.0867,1.0995,1.0934,1.084,1.084,1.0752,1.0625,1.0392,1.0359,1.0359,1.0359,1.0359,1.0359,1.0359,1.0359,1.0359,1.0359,1.0359,1.0425,1.0518,1.0505,1.0511,1.0643,1.0643,1.0643,1.0643,1.0697,1.0684,1.0684,1.0684,1.0718,1.1912,1.2721,1.3521,1.4288,1.4767,1.5086,1.5377,1.5608,1.5683,1.5533,1.5276,1.495,1.466,1.4572,1.4597,1.469,1.4977,1.5208,1.5262,1.5059,1.4835,1.4708,1.4482,1.4299,1.4299,0.0,0.0,1.4441,1.6157,1.721,1.7096,1.8217,1.8916,1.8916,1.8916,1.9438,2.0612,2.1348,2.2192,2.3152,2.2741,2.2499,2.2488,2.2166,2.2022,2.2,2.1796,2.1696,2.1572,1.9943,1.9411,1.9337,1.7203,1.6469,1.6412,1.4676,1.3999,1.3908,1.3892,1.3847,1.3604,1.2312,1.1904,1.187,1.1681,1.1584,1.1584,1.1584,1.1584,1.1584,1.1584,1.1584,1.1592,1.1497,1.143,1.1382,1.1335,1.1274,1.1213,1.1268,1.1124,1.1056,1.1179,1.1084,1.1023,1.1023,1.0941,1.0839,1.0738,1.0732,1.0745,1.0724,1.0684,1.0684,1.0684,1.0684,1.0684,1.0684,1.0684,1.0684,1.0684,1.0684,1.0684,1.0684,1.0684,1.0684,1.0684,1.0684,1.0684,1.0684,1.0684,1.0718,1.3294,1.3892,1.4357,1.5025,1.5425,1.5593,1.56,1.5744,1.5792,1.5438,1.4958,1.4586,1.4455,1.4326,1.4197,1.4068,1.4326,1.459,1.4694,1.4516,1.4434,1.4654,1.4475,1.4299,1.4299,1.4299,0.0,1.4299,0.0,1.6964,1.6964,1.6964,1.6964,1.6964,1.6964,1.7,1.7088,1.8959,1.9917,1.9917,1.9647,1.95,1.9491,1.9001,1.8814,1.8804,1.8661,1.8607,1.8538,1.8053,1.7884,1.7689,1.5593,1.4806,1.4614,1.3081,1.2494,1.244,1.2193,1.1972,1.1793,1.1644,1.1597,1.159,1.1584,1.1584,1.1584,1.1584,1.1584,1.1584,1.1584,1.1584,1.1584,1.1584,1.1511,1.1443,1.1586,1.1389,1.1261,1.1375,1.1322,1.122,1.1206,1.1213,1.122,1.1206,1.1213,1.1111,1.0778,1.0833,1.0867,1.0718,1.0698,1.0698,1.0684,1.0684,1.0684,1.0684,1.0684,1.0691,1.0698,1.0691,1.0691,1.0698,1.0691,1.0684,1.0684,1.0684,1.0684,1.0684,1.0684,1.0765,1.3844,1.4502,1.514,1.5445,1.5533,1.5621,1.5778,1.5655,1.5404,1.4951,1.4336,1.372,1.3233,1.3336,1.3519,1.3709,1.4367,1.4903,1.5052,1.4916,1.474,1.459,1.4414,1.4299,1.4299,1.4299,0.0,0.0,1.4734,1.4999,1.4999,1.4999,1.4999,1.4999,1.4999,1.5697,1.7088,1.8959,1.9917,1.9917,1.9647,1.95,1.9491,1.9001,1.8814,1.8795,1.855,1.847,1.8331,1.6845,1.6194,1.601,1.4029,1.3251,1.3198,1.2697,1.2366,1.22,1.2125,1.2145,1.2128,1.1827,1.1739,1.1719,1.1617,1.1584,1.1584,1.1584,1.1584,1.1584,1.1584,1.1584,1.1584,1.1584,1.1556,1.1572,1.1577,1.1558,1.1511,1.1552,1.1531,1.1463,1.1355,1.143,1.1463,1.1348,1.143,1.1396,1.1125,1.1084,1.105,1.0874,1.086,1.0813,1.0698,1.0684,1.0684,1.0684,1.0684,1.0738,1.0853,1.0745,1.0738,1.0853,1.0745,1.0684,1.0684,1.0684,1.0684,1.0684,1.0684,1.0711,1.4631,1.5174,1.5642,1.5798,1.5688,1.5546,1.5404,1.5181,1.4835,1.4183,1.3614,1.3051,1.2623,1.2779,1.3037,1.3166,1.3933,1.457,1.4848,1.4767,1.4685,1.4713,1.4584,1.4496,1.4496,1.4496,1.4496,0.0,1.4373,1.4299,1.4299,1.4299,1.4299,1.4299,1.4299,1.4822,1.5873,1.692,1.7438,1.7438,1.7287,1.7229,1.7221,1.6772,1.6608,1.6583,0.0,1.6103,1.6006,1.4836,1.4347,1.4213,1.3077,1.2591,1.2617,1.2535,1.2393,1.2281,1.222,1.2254,1.223,1.1857,1.1698,1.1685,1.1611,1.1584,1.1584,1.1584,1.1584,1.1584,1.1584,1.1584,1.1584,1.1584,1.1584,1.1584,1.1584,1.1584,1.1584,1.1584,1.1584,1.1592,1.1504,1.1565,1.1556,1.1504,1.1565,1.1558,1.1389,1.1307,1.1206,1.1056,1.1043,1.1009,1.0921,1.0914,1.0914,1.0914,1.0914,1.0955,1.1036,1.0962,1.0928,1.0914,1.0833,1.0752,1.0684,1.0684,1.0684,1.0684,1.0684,1.0684,1.5452,1.5771,1.5962,1.6071,1.5832,1.5404,1.4802,1.4563,1.417,1.3295,1.2874,1.2589,1.2311,1.2488,1.2672,1.2794,1.3382,1.4004,1.4557,1.4509,1.4563,1.4996,1.4862,1.4714,1.4694,1.4694,1.4687,1.4667,1.4475,1.4326,1.4326,1.4312,1.4299,1.4299,1.4299,1.4299,1.4299,1.4299,1.4299,1.4299,1.4299,1.4292,1.4258,1.393,1.3774,1.3714,0.0,0.0,1.3091,1.2813,1.2659,1.2645,1.2556,1.2501,1.2501,1.2501,1.2488,1.2454,1.2332,1.2277,1.2189,1.1782,1.1624,1.1674,1.1617,1.166,1.1681,1.1681,1.1681,1.1681,1.1681,1.1667,1.1647,1.1647,1.1597,1.1584,1.1584,1.1584,1.1584,1.1584,1.1584,1.1626,1.1611,1.1647,1.1647,1.1647,1.1667,1.1674,1.1611,1.1518,1.1362,1.1247,1.1227,1.122,1.12,1.12,1.12,1.12,1.12,1.1206,1.1227,1.1206,1.1118,1.0975,1.0955,1.088,1.0778,1.0725,1.0718,1.0718,1.0698,1.0698,1.5744,1.5927,1.6015,1.5969,1.5669,1.5289,1.4692,1.42,1.3693,1.2929,1.2569,1.2311,1.2173,1.2244,1.261,1.3308,1.379,1.4319,1.514,1.5126,1.5059,1.514,1.5018,1.4882,1.4708,1.4694,0.0,0.0,1.4502,1.4475,1.4475,1.4367,1.4299,1.4299,1.4299,1.4299,1.4299,1.4299,1.4299,1.4299,1.4299,1.4231,1.4146,1.3883,1.3666,1.3458,1.318,0.0,1.2753,1.2617,1.2542,1.2535,1.2515,1.2501,1.2501,1.2501,1.2427,1.2325,1.2298,1.2247,1.2104,1.1864,1.1884,1.1996,1.183,1.1884,1.2023,1.2023,1.2023,1.2023,1.2023,1.1891,1.1759,1.1759,1.1665,1.1584,1.1584,1.1584,1.1584,1.1584,1.1584,1.1653,1.1739,1.1759,1.1759,1.1759,1.1904,1.1938,1.1773,1.1631,1.1518,1.1369,1.1383,1.1336,1.1206,1.12,1.12,1.12,1.12,1.1254,1.1348,1.1261,1.1247,1.1314,1.1192,1.1145,1.1118,1.0934,1.0874,1.0874,1.0745,1.0752,1.5983,1.6029,1.6092,1.5942,1.5561,1.4984,1.4224,1.3709,1.3146,1.2287,1.2064,1.2006,1.1857,1.2081,1.2454,1.2963,1.3356,1.3892,1.4719,1.4835,1.4916,1.5153,1.5194,1.514,1.4984,1.497,1.4909,1.476,1.4672,1.4518,1.4407,1.434,1.4299,1.4299,1.4299,1.4299,1.4299,1.4299,1.4299,1.4299,1.4217,1.4183,1.4183,1.3871,1.3612,1.3498,1.3166,0.0,1.2679,1.2562,1.2501,1.2501,1.2501,1.2501,1.2501,1.2501,1.2461,1.24,1.24,1.2352,1.2264,1.2121,1.2067,1.2084,1.1972,1.2006,1.2084,1.1965,1.2036,1.2084,1.1965,1.1884,1.1793,1.1793,1.1746,1.1671,1.1633,1.1644,1.1692,1.1692,1.1692,1.1775,1.1925,1.1952,1.1952,1.1952,1.205,1.207,1.1959,1.1891,1.186,1.1785,1.1667,1.1626,1.1669,1.1558,1.1545,1.1662,1.1558,1.1545,1.1619,1.1552,1.147,1.1396,1.1356,1.1274,1.12,1.109,1.1056,1.1056,1.0989,1.0989,1.6042,1.6083,1.6029,1.586,1.5411,1.4719,1.3749,1.3214,1.2664,1.1796,1.1671,1.1726,1.1644,1.1932,1.2237,1.2508,1.2847,1.3363,1.4183,1.4448,1.4713,1.5133,1.5343,1.5384,1.5201,1.5215,0.0,1.4936,1.4746,0.0,1.4312,1.4299,1.4299,1.4299,1.4299,1.4299,1.4299,1.4299,1.4299,1.4299,1.4177,1.415,1.419,1.3795,1.3565,1.3464,1.3152,0.0,0.0,1.2549,1.2501,1.2501,1.2501,1.2501,1.2501,1.2501,1.2501,1.2501,1.2501,1.2501,1.2481,1.2372,1.225,1.2186,1.2159,1.2173,1.2166,1.1969,1.206,1.2166,1.2006,1.1915,1.1881,1.1884,1.182,1.1766,1.1651,1.1712,1.1793,1.1793,1.182,1.1932,1.2125,1.2145,1.2145,1.2145,1.2173,1.2179,1.2152,1.2145,1.2159,1.2193,1.1993,1.1932,1.2091,1.1952,1.1932,1.2091,1.1945,1.1827,1.1793,1.1793,1.1708,1.1443,1.1443,1.1382,1.1295,1.1261,1.1247,1.1247,1.1213,1.1213,1.6042,1.6083,1.5981,1.556,1.5208,1.471,1.3527,1.2976,1.2496,1.1775,1.1597,1.1638,1.1753,1.1705,1.1904,1.2557,1.2706,1.3125,1.4156,1.4543,1.4789,1.5147,1.5438,1.5506,1.5208,1.5309,1.5215,1.4748,0.0,0.0,1.4299,1.4299,1.4299,1.4299,1.4299,1.4299,1.4299,1.4299,1.4299,1.4299,1.4285,1.4136,1.3835,1.3795,1.3532,1.3064,1.3016,0.0,0.0,1.2508,1.2501,1.2501,1.2501,1.2501,1.2501,1.2501,1.2501,1.2501,1.2501,1.2501,1.2501,1.2488,1.2474,1.2433,1.2311,1.2359,1.2461,1.244,1.2447,1.2461,1.244,1.2345,1.221,1.2111,1.1932,1.1793,1.178,1.1786,1.1793,1.1793,1.1945,1.2125,1.2244,1.2271,1.2271,1.2271,1.2379,1.2413,1.2284,1.2271,1.2318,1.2447,1.2247,1.2084,1.2098,1.2084,1.2084,1.2098,1.2084,1.1979,1.18,1.1793,1.1719,1.1563,1.1563,1.1592,1.1579,1.1436,1.1369,1.1369,1.1261,1.1274,1.5723,1.5947,1.5974,1.5527,1.4984,1.4319,1.3424,1.2732,1.2196,1.1714,1.1584,1.164,1.1658,1.1624,1.1714,1.1976,1.2097,1.2395,1.3119,1.3553,1.4007,1.4584,1.4916,1.512,1.5174,0.0,1.5126,1.4721,0.0,0.0,1.4299,1.4299,1.4299,1.4299,1.4299,1.4299,1.4299,1.4299,1.4299,1.4299,1.4204,1.4095,1.3973,1.3754,1.3485,1.3125,1.3037,0.0,0.0,1.2501,1.2501,1.2501,1.2501,1.2501,1.2501,1.2501,1.2501,1.2501,1.2501,1.2501,1.2501,1.2501,1.2501,1.2488,1.2433,1.2461,1.2481,1.24,1.2433,1.2481,1.2393,1.2332,1.225,1.2139,1.2088,1.2081,1.1993,1.204,1.2108,1.2108,1.2155,1.2244,1.2393,1.242,1.242,1.242,1.2467,1.2481,1.2427,1.242,1.244,1.2494,1.2318,1.2237,1.2318,1.2288,1.2237,1.2356,1.2281,1.2169,1.2108,1.202,1.1898,1.1712,1.1624,1.1584,1.1584,1.1558,1.1531,1.1525,1.1463,1.147,1.533,1.5655,1.5784,1.5384,1.4753,1.4034,1.3322,1.2642,1.2033,1.1687,1.1584,1.1584,1.1584,1.1584,1.1584,1.1584,1.1775,1.204,1.2447,1.2888,1.3403,1.4027,1.436,1.4645,1.4896,1.4957,1.4896,1.464,0.0,0.0,1.4299,1.4299,1.4299,1.4299,1.4299,1.4299,1.4299,1.4299,1.4299,1.4299,1.4143,1.4091,1.3994,1.3743,1.3437,1.3146,0.0,0.0,0.0,1.2501,1.2501,1.2501,1.2501,1.2501,1.2501,1.2501,1.2501,1.2501,1.2501,1.2501,1.2501,1.2501,1.2501,1.2501,1.2501,1.2501,1.2481,1.2379,1.2427,1.2481,1.2379,1.2352,1.2325,1.2254,1.2244,1.2257,1.2193,1.2216,1.2291,1.2291,1.2325,1.2386,1.2481,1.2501,1.2501,1.2501,1.2501,1.2501,1.2501,1.2501,1.2501,1.2501,1.2413,1.2393,1.2494,1.2413,1.2393,1.2494,1.2406,1.2332,1.2291,1.2227,1.2033,1.18,1.1698,1.1624,1.1584,1.1584,1.1584,1.1584,1.1584,1.1584,1.4896,1.5194,1.5343,1.5052,1.4568,1.3921,1.3173,1.2656,1.2162,1.1714,1.1584,1.1584,1.1584,1.1584,1.1584,1.1584,1.187,1.22,1.2461,1.2888,1.3288,1.3558,1.3899,1.4143,1.4292,1.4434,1.4516,1.4516,0.0,0.0,1.4299,1.4299,1.4299,1.4299,1.4299,1.4299,1.4299,1.4299,1.4299,1.4299,1.4143,1.3994,1.3795,1.3653,1.3383,0.0,0.0,0.0,0.0,1.2501,1.2501,1.2501,1.2501,1.2501,1.2501,1.2501,1.2501,1.2501,1.2501,1.2501,1.2501,1.2501,1.2501,1.2501,1.2501,1.2501,1.2501,1.2501,1.2501,1.2501,1.2501,1.2501,1.2501,1.2501,1.2393,1.2291,1.2291,1.2291,1.2291,1.2291,1.2406,1.2501,1.2501,1.2501,1.2501,1.2501,1.2501,1.2501,1.2501,1.2501,1.2501,1.2501,1.2501,1.2501,1.2501,1.2501,1.2501,1.2501,1.2501,1.2433,1.2298,1.2291,1.2142,1.18,1.1793,1.1726,1.1584,1.1584,1.1584,1.1584,1.1584,1.1584,1.3817,1.419,1.4401,1.4,1.3526,1.3044,1.2603,1.2155,1.1789,1.1611,1.1584,1.1584,1.1584,1.1584,1.1617,1.1712,1.1932,1.2132,1.2227,1.2717,1.322,1.3538,1.4251,1.4751,1.4753,0.0,1.4509,0.0,0.0,0.0,1.4299,1.4299,1.4299,1.4299,1.4299,1.4299,1.4299,1.4299,1.4299,1.4299,1.4143,1.3987,1.3795,1.3653,0.0,0.0,0.0,0.0,0.0,1.2549,1.2501,1.2501,1.2501,1.2501,1.2501,1.2501,1.2501,1.2501,1.2501,1.2501,1.2501,1.2501,1.2501,1.2501,1.2501,1.2501,1.2501,1.2501,1.2501,1.2501,1.2501,1.2501,1.2501,1.2501,1.2467,1.2433,1.2433,1.2433,1.2433,1.2433,1.2474,1.2501,1.2501,1.2501,1.2501,1.2501,1.2501,1.2501,1.2501,1.2501,1.2501,1.2501,1.2501,1.2501,1.2501,1.2501,1.2501,1.2501,1.2501,1.2481,1.2433,1.2338,1.2196,1.1993,1.1884,1.1726,1.1584,1.1584,1.1631,1.1726,1.1631,1.1638,1.3037,1.3437,1.3703,1.3383,1.2976,1.2583,1.2345,1.1986,1.1651,1.1597,1.1584,1.1584,1.1584,1.1584,1.1647,1.1698,1.1925,1.2139,1.2247,1.269,1.3166,1.3531,1.4224,1.4676,0.0,1.4509,1.4434,0.0,0.0,0.0,1.4299,1.4299,1.4299,1.4299,1.4299,1.4299,1.4299,1.4299,1.4272,1.4211,1.4061,1.3905,1.3714,1.3607,0.0,0.0,0.0,0.0,0.0,1.2562,1.2501,1.2501,1.2501,1.2501,1.2501,1.2501,1.2501,1.2501,1.2501,1.2501,1.2501,1.2501,1.2501,1.2501,1.2501,1.2501,1.2501,1.2501,1.2501,1.2501,1.2501,1.2501,1.2501,1.2501,1.2501,1.2501,1.2501,1.2501,1.2501,1.2501,1.2501,1.2501,1.2501,1.2501,1.2501,1.2501,1.2501,1.2501,1.2501,1.2501,1.2522,1.2583,1.2589,1.261,1.2671,1.2623,1.2589,1.2589,1.2589,1.2562,1.2501,1.242,1.2298,1.2186,1.2054,1.1904,1.1665,1.1611,1.1631,1.1712,1.1624,1.1658,0.0,1.2861,1.3118,1.3105,1.2745,1.2406,1.2271,1.202,0.0,1.1647,1.1584,1.1584,1.1584,1.1584,1.1584,1.1597,1.1877,1.2207,1.2461,1.2807,1.3186,1.3585,1.3933,1.4102,1.4132,1.4217,0.0,0.0,0.0,0.0,1.4299,1.4299,1.4299,1.4299,1.4299,1.4299,1.4299,1.4299,1.4224,1.4112,1.3912,1.3727,1.3585,1.3471,0.0,0.0,0.0,0.0,0.0,1.2569,1.2501,1.2501,1.2501,1.2501,1.2501,1.2501,1.2501,1.2501,1.2501,1.2501,1.2501,1.2501,1.2501,1.2501,1.2501,1.2501,1.2501,1.2501,1.2501,1.2501,1.2501,1.2501,1.2501,1.2501,1.2501,1.2501,1.2501,1.2501,1.2501,1.2501,1.2501,1.2501,1.2501,1.2501,1.2501,1.2501,1.2501,1.2501,1.2501,1.2508,1.2569,1.2659,1.2693,1.2807,1.2989,1.2827,1.2706,1.2693,1.2693,1.2625,1.2508,1.2501,1.2433,1.2291,1.2277,1.2135,1.1807,1.1665,1.1647,1.1667,1.1633,1.1671,1.1807,0.0,1.2084,1.2013,1.1904,1.178,0.0,1.1685,1.1624,1.1626,1.1584,1.1584,1.1584,1.1584,1.1617,1.1726,1.1938,1.2207,1.2461,1.3152,1.3763,1.4102,1.4299,1.4367,1.4258,1.4278,0.0,0.0,0.0,1.4299,1.4299,1.4299,1.4299,1.4299,1.4299,1.4299,1.4299,1.4299,1.4224,1.4112,1.3912,1.3727,1.3585,1.3471,0.0,0.0,0.0,0.0,1.2928,1.261,1.2501,1.2501,1.2501,1.2501,1.2501,1.2501,1.2501,1.2501,1.2501,1.2501,1.2501,1.2501,1.2501,1.2501,1.2501,1.2501,1.2501,1.2501,1.2501,1.2501,1.2501,1.2501,1.2501,1.2501,1.2501,1.2501,1.2501,1.2501,1.2501,1.2501,1.2501,1.2501,1.2501,1.2501,1.2501,1.2501,1.2501,1.2501,1.2501,1.2603,1.2644,1.2562,1.2766,1.2962,1.2996,1.2969,1.2854,1.2699,1.2693,1.2625,1.2508,1.2501,1.2433,1.2291,1.2213,1.2118,1.2043,1.1857,1.1868,1.2121,1.1782,1.1823,1.1584,1.1638,1.1678,1.1604,1.1584,1.1584,1.1584,1.1584,1.1584,1.1584,1.1584,1.1584,1.1584,1.1584,1.1631,1.1773,1.202,1.2356,1.2745,1.3349,1.3815,1.4156,1.4265,1.4333,0.0,0.0,0.0,0.0,0.0,1.4299,1.4299,1.4299,1.4299,1.4299,1.4299,1.4299,1.4299,1.4231,1.4116,1.3966,1.3774,1.3626,1.3519,1.3437,1.3403,0.0,0.0,0.0,1.2975,1.263,1.2501,1.2501,1.2501,1.2501,1.2501,1.2501,1.2501,1.2501,1.2501,1.2501,1.2501,1.2501,1.2501,1.2501,1.2501,1.2501,1.2501,1.2501,1.2501,1.2501,1.2501,1.2501,1.2501,1.2501,1.2501,1.2501,1.2501,1.2501,1.2501,1.2501,1.2501,1.2501,1.2501,1.2562,1.2583,1.2515,1.2562,1.2583,1.2508,1.2637,1.2659,1.2617,1.2874,1.3098,1.3098,1.3098,1.3037,1.2847,1.2834,1.2739,1.2508,1.2501,1.2467,1.2386,1.2244,1.2207,1.2207,1.2013,1.202,1.222,1.1938,1.1993,1.1584,1.1597,1.1647,1.1626,1.1584,1.1584,1.1584,1.1584,1.1584,1.1584,1.1584,1.1584,1.1584,1.164,1.1658,1.1773,1.2149,1.2596,1.3193,1.3519,1.379,1.4084,1.4139,0.0,1.4421,0.0,0.0,0.0,0.0,1.4299,1.4299,1.4299,1.4299,1.4299,1.4299,1.4299,1.4299,1.415,1.3994,1.3795,1.3653,1.3546,1.3403,1.3403,1.3403,0.0,0.0,0.0,1.2982,1.2651,1.2522,1.2501,1.2501,1.2501,1.2501,1.2501,1.2501,1.2501,1.2501,1.2501,1.2501,1.2501,1.2501,1.2501,1.2501,1.2501,1.2501,1.2501,1.2501,1.2501,1.2501,1.2501,1.2501,1.2501,1.2501,1.2501,1.2501,1.2501,1.2501,1.2501,1.2501,1.2501,1.2501,1.263,1.2645,1.2556,1.2664,1.2712,1.2556,1.2671,1.272,1.2693,1.2996,1.3214,1.3214,1.3234,1.318,1.3009,1.2982,1.2839,1.2515,1.2501,1.2501,1.2501,1.2386,1.2325,1.2325,1.2207,1.2145,1.2166,1.2118,1.2193,1.1584,1.1671,1.1732,1.1611,1.1584,1.1584,1.1584,1.1584,1.1584,1.1584,1.1584,1.1584,1.1584,1.1678,1.1773,1.1793,1.2406,1.3064,1.3612,1.3892,1.4021,1.4112,0.0,1.4231,1.4193,0.0,0.0,0.0,0.0,1.4299,1.4299,1.4299,1.4299,1.4299,1.4299,1.4299,1.4299,1.415,1.3994,1.3795,1.3653,1.3546,1.3403,1.3403,1.3403,0.0,0.0,1.3111,1.2989,1.2773,1.2617,1.2501,1.2501,1.2501,1.2501,1.2501,1.2501,1.2501,1.2501,1.2501,1.2501,1.2501,1.2501,1.2501,1.2501,1.2501,1.2501,1.2501,1.2501,1.2501,1.2501,1.2501,1.2501,1.2501,1.2501,1.2501,1.2501,1.2501,1.2501,1.2501,1.2501,1.2501,1.2501,1.263,1.2679,1.2659,1.2827,1.2868,1.2672,1.2827,1.2874,1.2706,1.2996,1.3214,1.3214,1.3295,1.3247,1.3016,1.284,1.2684,1.2508,1.2501,1.2501,1.2501,1.2481,1.2467,1.2467,1.2325,1.2318,1.2427,1.2213,1.2247,1.1584,1.1631,1.1685,1.1692,1.1698,1.1678,1.164,1.1584,1.1584,1.1584,1.1584,1.1604,1.1685,1.1925,1.221,1.2617,1.2969,1.3322,1.3632,1.3715,1.377,0.0,0.0,1.4089,0.0,0.0,0.0,0.0,0.0,0.0,1.4299,1.4224,1.4177,1.4177,1.4177,1.4136,1.4011,1.398,1.3869,1.3795,1.3572,1.3471,1.3403,1.3403,1.3403,1.339,0.0,1.3064,1.2982,1.2705,1.2562,1.2501,1.2501,1.2501,1.2501,1.2501,1.2501,1.2501,1.2501,1.2501,1.2501,1.2501,1.2501,1.2501,1.2501,1.2501,1.2501,1.2501,1.2501,1.2501,1.2501,1.2501,1.2501,1.2501,1.2501,1.2501,1.2501,1.2501,1.2501,1.2501,1.2501,1.2528,1.261,1.2645,1.2759,1.284,1.284,1.2807,1.2699,1.2793,1.2807,1.2699,1.2996,1.3214,1.3214,1.3282,1.3227,1.3016,1.2739,1.2576,1.2508,1.2501,1.2501,1.2501,1.2501,1.2501,1.2501,1.2433,1.244,1.2501,1.2366,1.2372,1.1584,1.1611,1.1651,1.1726,1.1746,1.1746,1.1775,1.1775,1.1782,1.178,1.1823,1.1837,1.1877,1.2135,1.2562,1.3234,1.3437,1.3573,1.3763,1.3688,1.3695,1.3876,1.3903,0.0,0.0,0.0,0.0,0.0,0.0,0.0,1.4251,1.418,1.4098,1.4021,1.4021,1.396,1.3802,1.3761,1.3747,1.3747,1.3526,1.3383,1.3349,1.3349,1.3329,1.3281,1.3098,1.2982,1.2928,1.2651,1.2535,1.2501,1.2501,1.2501,1.2501,1.2501,1.2501,1.2501,1.2501,1.2501,1.2501,1.2501,1.2501,1.2501,1.2501,1.2501,1.2501,1.2501,1.2501,1.2501,1.2501,1.2501,1.2508,1.2549,1.2528,1.2515,1.2549,1.2528,1.2515,1.2549,1.2556,1.2603,1.2759,1.2813,1.2874,1.303,1.2942,1.2835,1.284,1.2834,1.2834,1.2834,1.3037,1.3227,1.322,1.3132,1.3077,1.3009,1.2671,1.2501,1.2501,1.2501,1.2501,1.2501,1.2501,1.2501,1.2501,1.2501,1.2501,1.2501,1.2501,1.2501,1.1584,1.1678,1.1753,1.1631,1.1597,1.1742,1.2149,1.2244,1.2277,1.2413,1.244,1.2359,1.2132,1.2284,1.2644,1.3112,1.3539,1.3869,1.4211,0.0,1.4245,1.4265,1.4265,0.0,0.0,0.0,0.0,0.0,0.0,0.0,1.4139,1.4119,1.4007,1.3822,1.3815,1.3808,1.3795,1.3666,1.3605,1.3599,1.3478,1.3329,1.3227,1.3227,1.3159,1.303,1.3009,1.2881,1.2706,1.2686,1.2591,1.2501,1.2501,1.2501,1.2501,1.2501,1.2501,1.2501,1.2501,1.2501,1.2501,1.2501,1.2501,1.2501,1.2501,1.2501,1.2501,1.2501,1.2501,1.2501,1.2501,1.2501,1.2535,1.2678,1.2603,1.2542,1.2645,1.2603,1.2542,1.2645,1.2672,1.2759,1.2955,1.3098,1.3186,1.3193,1.3268,1.3302,1.32,1.3139,1.3139,1.3139,1.32,1.3227,1.337,1.3003,1.282,1.2989,1.2671,1.2501,1.2501,1.2501,1.2501,1.2501,1.2501,1.2501,1.2501,1.2501,1.2501,1.2501,1.2501,1.2501,1.1592,1.1592,1.1586,1.1685,1.1651,1.1714,1.2104,1.2223,1.2305,1.2359,1.2515,1.2688,1.2811,1.2958,1.3227,1.3735,1.4002,1.417,1.4285,1.4299,1.4299,1.4299,0.0,0.0,0.0,0.0,0.0,0.0,0.0,0.0,0.0,1.398,1.3858,1.3673,1.3666,1.3619,1.3566,1.3565,1.3538,1.3485,1.3431,1.337,1.3308,1.3254,1.3186,1.3125,1.2895,1.2786,1.2686,1.263,1.2556,1.2501,1.2501,1.2501,1.2501,1.2501,1.2501,1.2501,1.2501,1.2501,1.2501,1.2501,1.2501,1.2501,1.2501,1.2501,1.2501,1.2501,1.2501,1.2501,1.2501,1.2501,1.2542,1.2652,1.2645,1.2684,1.284,1.2867,1.2846,1.2861,1.2874,1.2922,1.3105,1.3105,1.3146,1.3288,1.3248,1.318,1.3207,1.3139,1.3118,1.3207,1.3214,1.3234,1.339,1.299,1.2793,1.2989,1.2671,1.2501,1.2501,1.2501,1.2501,1.2501,1.2501,1.2501,1.2501,1.2501,1.2501,1.2501,1.2501,1.2501,1.1579,1.1504,1.145,1.1665,1.1692,1.1753,1.2182,1.2393,1.2542,1.2684,1.2804,1.2943,1.3149,1.3333,1.3528,1.3888,1.4146,1.4299,1.4299,1.4299,1.4299,1.4299,0.0,0.0,0.0,0.0,0.0,0.0,0.0,0.0,0.0,1.3815,1.3666,1.3518,1.3559,1.3505,1.3403,1.3505,1.3478,1.3329,1.3329,1.3308,1.3261,1.3193,1.3091,1.2949,1.2745,1.2657,1.2651,1.2549,1.2501,1.2501,1.2501,1.2501,1.2501,1.2501,1.2501,1.2501,1.2501,1.2501,1.2501,1.2501,1.2501,1.2501,1.2501,1.2501,1.2501,1.2501,1.2501,1.2501,1.2501,1.2501,1.2556,1.2752,1.2766,1.2786,1.3023,1.303,1.3016,1.3057,1.3071,1.3111,1.322,1.3207,1.3207,1.337,1.3227,1.3173,1.3234,1.3159,1.318,1.3234,1.32,1.3227,1.3383,1.299,1.2813,1.3057,1.2739,1.2556,1.2501,1.2501,1.2501,1.2501,1.2501,1.2501,1.2501,1.2501,1.2501,1.2501,1.2501,1.2501,1.1579,1.1504,1.1423,1.1586,1.1692,1.1955,1.2557,1.2847,1.3125,1.349,1.3437,1.3261,1.3055,1.3276,1.3495,1.3439,1.3905,1.4299,1.4299,1.4299,1.4299,1.4299,0.0,0.0,0.0,0.0,0.0,0.0,0.0,0.0,0.0,1.366,1.3559,1.3403,1.3397,1.3397,1.3397,1.3397,1.3322,1.3214,1.3214,1.3139,1.3003,1.3003,1.2833,1.2501,1.2501,1.2501,1.2501,1.2501,1.2501,1.2501,1.2501,1.2501,1.2501,1.2501,1.2501,1.2501,1.2501,1.2501,1.2501,1.2501,1.2501,1.2501,1.2501,1.2501,1.2501,1.2501,1.2501,1.2501,1.2501,1.2501,1.2576,1.2928,1.284,1.2774,1.3152,1.3105,1.305,1.3186,1.3214,1.322,1.3376,1.3403,1.3403,1.3403,1.3403,1.3403,1.3403,1.3403,1.3403,1.3397,1.318,1.3118,1.3376,1.299,1.2854,1.3193,1.2895,1.2625,1.2508,1.2501,1.2501,1.2501,1.2501,1.2501,1.2501,1.2501,1.2501,1.2501,1.2501,1.2501,1.1579,1.143,1.1349,1.1681,1.1759,1.202,1.2732,1.2759,1.2793,1.3356,1.3411,1.3418,1.3671,1.3728,1.3783,1.3944,1.4153,1.4299,1.4299,1.4299,1.4299,0.0,0.0,0.0,0.0,0.0,0.0,0.0,0.0,0.0,0.0,1.3612,1.3512,1.3288,1.3241,1.3193,1.3132,1.3132,1.3111,1.3064,1.3064,1.3043,1.2996,1.2847,1.2745,1.2657,1.2549,1.2501,1.2501,1.2501,1.2501,1.2501,1.2501,1.2501,1.2501,1.2501,1.2501,1.2501,1.2501,1.2501,1.2501,1.2501,1.2501,1.2501,1.2501,1.2501,1.2501,1.2501,1.2501,1.2501,1.2501,1.2501,1.2549,1.2752,1.2847,1.2942,1.3173,1.322,1.3281,1.3322,1.3336,1.3349,1.3397,1.3403,1.3403,1.3403,1.3403,1.3403,1.3403,1.3403,1.3363,1.3254,1.3111,1.3077,1.3227,1.2929,1.2813,1.305,1.2982,1.282,1.2671,1.2562,1.2501,1.2501,1.2501,1.2501,1.2501,1.2501,1.2501,1.2501,1.2501,1.2501,1.1558,1.1443,1.1348,1.1698,1.1928,1.225,1.2867,1.3084,1.3247,1.3668,1.374,1.3776,1.3985,1.4012,1.4018,1.4138,1.4387,1.452,1.4343,1.4476,1.452,0.0,0.0,0.0,0.0,0.0,0.0,0.0,0.0,0.0,0.0,1.3512,1.3363,1.322,1.3214,1.3173,1.3084,1.3084,1.3057,1.3003,1.2941,1.2834,1.2819,1.2745,1.2659,1.263,1.2542,1.2501,1.2501,1.244,1.242,1.2413,1.2352,1.2366,1.242,1.242,1.2454,1.2501,1.2501,1.2501,1.2501,1.2501,1.2501,1.2501,1.2501,1.2501,1.2501,1.2501,1.2501,1.2501,1.2501,1.2501,1.2542,1.2652,1.2847,1.3043,1.3186,1.3295,1.3403,1.3403,1.3403,1.3403,1.3403,1.3403,1.3403,1.3403,1.3403,1.3403,1.3403,1.3403,1.3363,1.3275,1.3125,1.3084,1.3247,1.299,1.2888,1.3077,1.3084,1.2949,1.2699,1.2605,1.2562,1.2501,1.2501,1.2501,1.2501,1.2501,1.2535,1.2589,1.2528,1.2535,1.1538,1.1504,1.147,1.1753,1.2244,1.2684,1.3016,1.3629,1.4122,1.4217,1.4205,1.4202,1.4128,1.4208,1.4231,1.4178,1.4673,1.4889,1.4411,1.4713,1.4801,0.0,0.0,0.0,0.0,0.0,0.0,0.0,0.0,0.0,0.0,1.3329,1.3207,1.3193,1.3193,1.3173,1.3132,1.3132,1.3064,0.0,1.2752,1.2617,1.2488,1.2618,1.2618,1.2522,1.2508,1.2501,1.2488,1.2345,1.2291,1.2277,1.2159,1.2186,1.2271,1.2284,1.2372,1.2481,1.2494,1.2501,1.2501,1.2501,1.2501,1.2501,1.2501,1.2501,1.2501,1.2501,1.2501,1.2501,1.2501,1.2515,1.2556,1.2659,1.2847,1.3037,1.3166,1.3281,1.3403,1.3403,1.3403,1.3403,1.3403,1.3403,1.3403,1.3403,1.3403,1.3403,1.3403,1.3403,1.3397,1.3383,1.3139,1.3132,1.3356,1.3173,1.3077,1.3207,1.3227,1.3057,1.2726,1.2699,1.2657,1.2508,1.2501,1.2501,1.2501,1.2501,1.2583,1.2686,1.2589,1.2596,1.1565,1.1504,1.1518,1.206,1.2793,1.3389,1.3572,1.396,1.4163,1.3838,1.4023,1.4264,1.4238,1.4585,1.482,1.4803,1.5089,1.5162,1.4734,1.4734,0.0,0.0,0.0,0.0,0.0,0.0,0.0,0.0,0.0,0.0,1.3451,1.3275,1.3159,1.305,1.305,1.288,1.2481,1.2481,1.2445,0.0,1.2345,1.2366,1.2345,1.261,1.2672,1.2632,1.2556,1.2501,1.2488,1.2345,1.2291,1.2277,1.2159,1.2118,1.2166,1.2244,1.2311,1.2352,1.2461,1.2501,1.2501,1.2501,1.2501,1.2501,1.2501,1.2501,1.2501,1.2501,1.2501,1.2501,1.2501,1.2589,1.2652,1.2686,1.2847,1.3009,1.3043,1.3214,1.3403,1.3403,1.3403,1.3403,1.3403,1.3403,1.3403,1.3403,1.3403,1.3403,1.3403,1.3403,1.3356,1.3234,1.3207,1.3193,1.3254,1.3207,1.318,1.3214,1.3288,1.322,1.2962,1.2793,1.2657,1.2508,1.2501,1.2501,1.2501,1.2501,1.2583,1.2693,1.2659,1.2659,1.1579,1.1613,1.1748,1.2352,1.2908,1.3363,1.358,1.381,1.3953,1.3858,1.4089,1.4299,1.4299,1.459,1.4841,1.4841,1.5104,1.5153,1.48,1.4707,0.0,0.0,0.0,0.0,0.0,0.0,0.0,0.0,0.0,1.3261,1.3193,1.3044,1.2929,1.2854,1.2779,1.263,1.2393,1.2325,1.225,1.2207,1.2213,1.2261,1.2298,1.2447,1.2522,1.2508,1.2359,1.2329,1.2315,1.2128,1.2074,1.2054,1.1904,1.1891,1.1972,1.2121,1.223,1.2311,1.2454,1.2501,1.2501,1.2501,1.2501,1.2501,1.2501,1.2501,1.2501,1.2501,1.2501,1.2522,1.2589,1.2617,1.2657,1.2807,1.2956,1.3105,1.3105,1.3241,1.3403,1.3403,1.3403,1.3403,1.3403,1.3403,1.3403,1.3403,1.3403,1.3403,1.3403,1.3403,1.337,1.3288,1.3254,1.3241,1.3275,1.3254,1.3214,1.3214,1.3315,1.3268,1.3016,1.2881,1.2766,1.2617,1.2535,1.2501,1.2501,1.2576,1.2611,1.2693,1.2693,1.2693,1.1579,1.1819,1.2142,1.2647,1.304,1.3376,1.3597,1.3748,1.3955,1.4274,1.4345,1.439,1.4346,1.4682,1.493,1.4902,1.5194,1.5263,1.493,1.475,0.0,0.0,0.0,0.0,0.0,0.0,0.0,0.0,0.0,1.3098,1.3009,1.2813,1.2679,1.2652,1.2569,1.2467,1.2386,1.2271,1.2196,1.2176,1.2104,1.2101,1.225,1.2223,1.2244,1.2284,1.2166,1.2098,1.2084,1.1898,1.1793,1.178,1.1638,1.1658,1.178,1.1965,1.2159,1.2271,1.2413,1.2481,1.2501,1.2501,1.2501,1.2501,1.2501,1.2501,1.2501,1.2501,1.2522,1.2569,1.2659,1.2671,1.2684,1.2975,1.3146,1.3248,1.322,1.3295,1.3403,1.3403,1.3403,1.3403,1.3403,1.3403,1.3403,1.3403,1.3403,1.3403,1.3403,1.3403,1.3403,1.3403,1.3288,1.3261,1.339,1.3288,1.3214,1.3214,1.3329,1.3295,1.3091,1.305,1.2969,1.2773,1.2596,1.2501,1.2501,1.263,1.2665,1.2693,1.2759,1.2713,1.1579,1.231,1.301,1.3056,1.3843,1.4632,1.4529,1.4749,1.5021,1.5197,1.4959,1.4719,1.4669,1.5343,1.5889,1.5778,1.5947,1.6013,1.5624,1.5145,0.0,0.0,0.0,0.0,0.0,0.0,0.0,0.0,1.2935,1.284,1.2996,1.2813,1.2671,1.2535,1.2515,1.2311,1.1888,1.1868,1.1793,1.1671,1.178,1.1945,1.2125,1.1952,1.204,1.2284,1.2166,1.2098,1.2084,1.1898,1.1793,1.178,1.1638,1.1597,1.1631,1.1809,1.1959,1.2152,1.2264,1.24,1.2501,1.2501,1.2501,1.2501,1.2501,1.2501,1.2501,1.2501,1.2596,1.2665,1.2686,1.2908,1.3132,1.3173,1.3261,1.3336,1.3241,1.3295,1.3403,1.3403,1.3403,1.3403,1.3403,1.3403,1.3403,1.3403,1.3403,1.3403,1.3403,1.3403,1.3403,1.3403,1.3383,1.3376,1.3397,1.3383,1.337,1.337,1.339,1.3383,1.3342,1.3254,1.3118,1.2975,1.2651,1.2501,1.2501,1.2522,1.2603,1.2693,1.2868,1.2861,1.2605,1.2778,1.3153,1.3511,1.3988,1.4452,1.4557,1.4765,1.4939,1.5103,1.5225,1.5242,1.5118,1.5481,1.5767,1.5588,1.5583,1.5563,1.5399,1.4698,0.0,0.0,0.0,0.0,0.0,0.0,0.0,0.0,1.2767,1.2718,1.2705,1.2562,1.2454,1.2386,1.2216,1.1996,1.1793,1.1712,1.1644,1.1584,1.1644,1.1748,1.1809,1.1742,1.1793,1.2026,1.1877,1.1816,1.1809,1.1705,1.1678,1.1671,1.1611,1.1584,1.164,1.1739,1.187,1.1965,1.221,1.2332,1.2393,1.2474,1.2501,1.2501,1.2501,1.2501,1.2501,1.2501,1.261,1.2752,1.2834,1.2996,1.3139,1.3261,1.3288,1.3275,1.3295,1.3356,1.3403,1.3403,1.3403,1.3403,1.3403,1.3403,1.3403,1.3403,1.3403,1.3403,1.3403,1.3403,1.3403,1.3403,1.3403,1.3403,1.3403,1.3403,1.3403,1.3403,1.3403,1.3403,1.3403,1.3254,1.3186,1.3118,1.2786,1.2589,1.2501,1.2589,1.2617,1.2603,1.2759,1.3218,1.3929,1.3712,1.3806,1.3938,1.4196,1.4441,1.4685,1.4898,1.5055,1.5222,1.5526,1.569,1.5554,1.562,1.5646,1.5465,1.53,1.5191,1.5191,1.4509,0.0,0.0,0.0,0.0,0.0,0.0,0.0,0.0,1.2632,1.2589,1.24,1.2291,1.2216,1.2176,1.1915,1.178,1.1739,1.1638,1.1584,1.1584,1.1584,1.1584,1.1584,1.1584,1.1658,1.1786,1.1644,1.1584,1.1584,1.1584,1.1584,1.1584,1.1584,1.1584,1.1597,1.1698,1.1759,1.1827,1.2094,1.2196,1.2257,1.24,1.2447,1.2454,1.2488,1.2501,1.2501,1.2501,1.261,1.272,1.2874,1.3003,1.3111,1.3288,1.3288,1.3261,1.3376,1.3403,1.3403,1.3403,1.3403,1.3403,1.3403,1.3403,1.3403,1.3403,1.3403,1.3403,1.3403,1.3403,1.3403,1.3403,1.3403,1.3403,1.3403,1.3403,1.3403,1.3403,1.3363,1.3363,1.3397,1.3254,1.3214,1.3214,1.2956,1.2766,1.2617,1.2657,1.263,1.2562,1.3102,1.3947,1.531,1.5407,1.5625,1.4234,1.4684,1.5424,1.5449,1.5715,1.5973,1.6184,1.5991,1.5821,1.5966,1.599,1.5917,1.5813,1.5602,1.5489,1.5489,1.5224,0.0,0.0,0.0,0.0,0.0,0.0,0.0,0.0,1.2515,1.2386,1.2139,1.2118,1.2006,1.182,1.18,1.1732,1.1597,1.1584,1.1584,1.1584,1.1584,1.1584,1.1584,1.1584,1.1658,1.1786,1.1644,1.1584,1.1584,1.1584,1.1584,1.1584,1.1584,1.1584,1.1584,1.159,1.1678,1.1793,1.1813,1.1952,1.2139,1.225,1.2298,1.2325,1.2461,1.2501,1.2501,1.2501,1.261,1.2693,1.2699,1.2949,1.3207,1.322,1.3288,1.339,1.3397,1.3403,1.3403,1.3403,1.3403,1.3403,1.3403,1.3403,1.3403,1.3403,1.3403,1.3403,1.3403,1.3403,1.3403,1.3403,1.3403,1.3403,1.3403,1.3403,1.3403,1.3403,1.3261,1.3247,1.3397,1.3254,1.3214,1.3214,1.32,1.3118,1.2975,1.2651,1.2583,1.2718,1.432,1.5173,1.7368,1.6478,1.5837,1.5835,1.5303,1.484,1.5114,1.526,1.5439,1.574,1.5601,1.552,1.5813,1.578,1.5602,1.5424,1.548,1.5431,1.5195,1.4963,0.0,0.0,0.0,0.0,0.0,0.0,0.0,0.0,0.0,1.2213,1.2104,1.1965,1.1884,1.1793,1.1705,1.1638,1.1584,1.1525,1.147,1.147,1.1375,1.1328,1.1363,1.143,1.1497,1.1552,1.1563,1.1638,1.1719,1.1719,1.1665,1.159,1.1685,1.1665,1.1584,1.1584,1.1617,1.1671,1.1759,1.1864,1.1952,1.221,1.2291,1.2318,1.2461,1.2501,1.2501,1.2501,1.261,1.2713,1.2854,1.2996,1.3098,1.3193,1.3288,1.3403,1.3403,1.3403,1.3403,1.3403,1.3403,1.3403,1.3403,1.3403,1.3403,1.3403,1.3403,1.3403,1.3403,1.3403,1.3403,1.3403,1.3403,1.3403,1.3403,1.3403,1.3403,1.3403,1.3349,1.339,1.3497,1.3403,1.3363,1.3464,1.3275,1.3146,1.3003,1.2887,1.2773,1.2732,1.4406,1.5797,1.9027,1.7908,1.7005,1.6694,1.5801,1.4987,1.4911,1.4966,1.5072,1.5285,1.5187,1.5092,1.5374,1.5268,1.5132,1.5189,1.5254,1.5244,1.5039,1.4889,0.0,0.0,0.0,0.0,0.0,0.0,0.0,0.0,0.0,0.0,1.1955,1.1816,1.1698,1.1687,1.1604,1.1572,1.1463,1.1362,1.1314,1.1314,1.1247,1.12,1.12,1.1356,1.1416,1.147,1.1572,1.1638,1.1726,1.1726,1.1665,1.159,1.1685,1.1665,1.1584,1.1584,1.1584,1.1597,1.1692,1.1726,1.1766,1.2054,1.2135,1.2162,1.2311,1.2393,1.2433,1.2433,1.2535,1.2678,1.2779,1.2887,1.2935,1.3166,1.3247,1.3336,1.339,1.3403,1.3403,1.3403,1.3403,1.3403,1.3403,1.3403,1.3403,1.3403,1.3403,1.3403,1.3403,1.3403,1.3403,1.3403,1.3403,1.3403,1.3403,1.3403,1.3403,1.3403,1.3356,1.339,1.3546,1.3403,1.3397,1.3553,1.3356,1.322,1.3071,1.3023,1.3221,1.3702,1.5283,1.7301,0.0,0.0,0.0,1.6683,1.6104,1.5886,1.4894,1.4806,1.4966,1.4982,1.4814,1.4692,1.4708,1.4554,1.4565,1.5092,1.5074,1.4998,1.499,1.5106,0.0,0.0,0.0,0.0,0.0,0.0,0.0,0.0,1.1965,1.1925,1.1633,1.1613,1.1545,1.1389,1.1531,1.1463,1.12,1.1193,1.1193,1.1193,1.1186,1.1186,1.1193,1.1307,1.1457,1.1563,1.1606,1.1606,1.1606,1.1584,1.1584,1.1584,1.159,1.1584,1.1584,1.1584,1.1584,1.1584,1.1584,1.1584,1.1604,1.1746,1.1793,1.182,1.205,1.2207,1.2291,1.2291,1.2393,1.2501,1.2501,1.2617,1.2807,1.3091,1.3207,1.3254,1.3363,1.3438,1.3403,1.3403,1.3403,1.3403,1.3403,1.3403,1.3403,1.3403,1.3403,1.3403,1.3403,1.3403,1.3403,1.3403,1.3403,1.3403,1.3403,1.3403,1.3403,1.3403,1.3261,1.3288,1.3403,1.3261,1.3254,1.3403,1.3403,1.3322,1.3207,1.3111,1.3949,1.563,1.7015,1.9628,2.0791,0.0,0.0,0.0,0.0,0.0,1.414,1.3941,1.4115,1.4497,1.444,1.4399,1.4659,1.4554,1.4444,1.4597,1.4724,1.4732,1.4594,1.4741,0.0,0.0,0.0,0.0,0.0,0.0,0.0,0.0,1.1775,1.1708,1.1584,1.1511,1.1382,1.1268,1.1302,1.1281,1.12,1.1056,1.0975,1.0968,1.0894,1.0839,1.0846,1.0968,1.1056,1.1103,1.1246,1.1322,1.1314,1.1604,1.1678,1.1597,1.1698,1.1671,1.1584,1.1584,1.1584,1.1584,1.1584,1.1584,1.1604,1.1746,1.1793,1.182,1.205,1.2207,1.2291,1.2291,1.2393,1.2501,1.2501,1.2698,1.2888,1.2861,1.3258,1.3635,1.3677,1.3816,1.3818,1.3486,1.3403,1.3403,1.3403,1.3403,1.3403,1.3403,1.3403,1.3403,1.3403,1.3403,1.3403,1.3403,1.3403,1.3403,1.3403,1.3403,1.3403,1.3403,1.3363,1.3403,1.3559,1.3417,1.341,1.3518,1.3458,1.3275,1.3057,1.4282,1.5026,1.5371,1.8184,2.0797,2.0664,2.0151,1.9296,1.8407,0.0,0.0,1.4514,1.3763,1.3399,1.3896,1.3847,1.3839,1.4196,1.4115,1.401,1.4055,1.416,1.4265,1.4379,1.4484,0.0,0.0,0.0,0.0,0.0,1.2588,1.2232,1.183,1.1719,1.1617,1.1531,1.1443,1.1294,1.1084,1.1166,1.1138,1.0975,1.0894,1.0819,1.0819,1.0732,1.0684,1.0691,1.0846,1.0914,1.0921,1.1097,1.12,1.122,1.1443,1.1504,1.145,1.1624,1.1617,1.1531,1.1599,1.1584,1.1584,1.1584,1.1584,1.1597,1.1678,1.1705,1.1726,1.185,1.1979,1.2115,1.2176,1.2345,1.2501,1.2501,1.2637,1.2766,1.2693,1.302,1.3365,1.3435,1.3608,1.3741,1.368,1.3528,1.3403,1.3403,1.3403,1.3403,1.3403,1.3403,1.3403,1.3403,1.3403,1.3403,1.3403,1.3403,1.3403,1.3403,1.3403,1.3403,1.3403,1.3403,1.3471,1.3578,1.3485,1.3471,1.3585,1.3478,1.3943,1.5011,1.553,1.6309,1.7433,2.0152,2.2028,2.0184,2.0557,2.0642,0.0,0.0,0.0,1.5532,1.4055,1.3087,1.328,1.3181,1.3173,1.3488,1.3449,1.3401,1.3544,1.3593,1.3779,1.4265,1.4338,0.0,0.0,0.0,0.0,1.3185,1.2729,1.2247,1.1809,1.1753,1.166,1.1382,1.1348,1.1219,1.0921,1.1056,1.0995,1.0718,1.0711,1.0711,1.0711,1.0711,1.0711,1.0718,1.0833,1.0887,1.0894,1.1056,1.1145,1.1152,1.1166,1.1186,1.1227,1.1484,1.1511,1.1409,1.1565,1.1584,1.1584,1.1584,1.1584,1.1584,1.1584,1.1584,1.1584,1.1584,1.1678,1.1864,1.2077,1.2284,1.2501,1.2501,1.2501,1.2535,1.2632,1.2718,1.2845,1.3068,1.3205,1.3479,1.4051,1.3721,1.3403,1.3403,1.3403,1.3403,1.3403,1.3403,1.3403,1.3403,1.3403,1.3403,1.3403,1.3403,1.3403,1.3403,1.3403,1.3403,1.3403,1.3403,1.3471,1.3578,1.3485,1.3471,1.3585,1.3624,1.513,1.8072,1.7042,1.7941,2.0685,2.2326,2.3058,0.0,0.0,0.0,0.0,0.0,0.0,1.5476,1.4712,1.4188,1.312,1.288,1.2921,1.3165,1.3173,1.3206,1.3392,1.3512,1.369,1.3969,1.4002,1.4002,0.0,0.0,0.0,1.2958,1.2784,1.241,1.1696,1.1545,1.1396,1.1254,1.1097,1.0975,1.0914,1.0819,1.0806,1.0867,1.0874,1.0874,1.0874,1.0874,1.0874,1.0867,1.0772,1.0732,1.0732,1.0792,1.0806,1.0819,1.0907,1.1056,1.1213,1.1362,1.1416,1.1409,1.1565,1.1584,1.1584,1.1584,1.1584,1.1584,1.1584,1.1584,1.1584,1.1584,1.1678,1.1854,1.2169,1.2372,1.2501,1.2501,1.2501,1.2508,1.2535,1.2917,1.3369,1.3744,1.3923,1.4084,1.4375,1.3857,1.3403,1.3403,1.3403,1.3403,1.3403,1.3403,1.3403,1.3403,1.3403,1.3403,1.3403,1.3403,1.3403,1.3403,1.3403,1.3403,1.3403,1.3403,1.3471,1.3578,1.3485,1.3471,1.3585,1.4751,1.6856,1.9886,1.9744,2.0561,2.2259,2.2615,2.2877,0.0,0.0,0.0,1.9709,0.0,0.0,0.0,1.5909,1.5127,1.4727,1.3961,1.3462,1.3912,1.3309,1.2791,1.3059,1.3147,1.3301,1.3604,1.379,1.3904,0.0,0.0,0.0,1.3233,1.2949,1.2466,1.1655,1.1409,1.1308,1.1308,1.1138,1.0988,1.0914,1.0941,1.0941,1.0914,1.0988,1.1056,1.1056,1.1056,1.1056,1.105,1.0867,1.0799,1.0792,1.0718,1.0684,1.0724,1.0772,1.0846,1.0962,1.122,1.1233,1.1164,1.1423,1.1504,1.1518,1.1592,1.1584,1.1584,1.1584,1.1584,1.1584,1.1584,1.1775,1.1979,1.2135,1.2332,1.2501,1.2501,1.2501,1.2501,1.2501,1.2718,1.3007,1.3194,1.3519,1.3775,1.3862,1.3951,1.3891,1.3762,1.3935,1.3948,1.3631,1.3686,1.3624,1.3336,1.3356,1.3403,1.3403,1.3336,1.3315,1.3397,1.3329,1.3322,1.3397,1.3403,1.3498,1.3687,1.3551,1.3923,1.4868,1.715,1.9006,2.0405,2.1352,2.2128,2.2683,2.255,2.2635,0.0,0.0,0.0,0.0,0.0,1.9075,0.0,0.0,0.0,1.6292,1.5196,1.4336,1.4661,0.0,0.0,0.0,0.0,0.0,0.0,1.3522,0.0,0.0,0.0,0.0,0.0,1.2839,1.2244,1.1608,1.1348,1.1295,1.1382,1.1281,1.1124,1.1002,1.1118,1.1124,1.1002,1.1118,1.12,1.12,1.12,1.12,1.1193,1.1043,1.0955,1.0948,1.0792,1.0732,1.0732,1.0698,1.0684,1.0744,1.1016,1.107,1.0988,1.1294,1.1409,1.145,1.1579,1.1584,1.1584,1.1584,1.1584,1.1584,1.1584,1.1823,1.2098,1.2098,1.2277,1.2501,1.2501,1.2501,1.2501,1.2617,1.2579,1.2579,1.2811,1.3148,1.3404,1.3551,1.4127,1.4533,1.4235,1.447,1.4515,1.4045,1.4083,1.3974,1.339,1.3405,1.3432,1.3315,1.3248,1.322,1.3308,1.3268,1.3268,1.3349,1.3383,1.3532,1.3788,1.3998,1.4873,1.6493,1.9263,2.0741,2.078,2.2279,2.2901,2.2683,2.2526,2.2562,0.0,0.0,0.0,0.0,2.0934,0.0,0.0,0.0,1.7549,1.6033,0.0,1.513,1.4196,0.0,0.0,0.0,0.0,0.0,1.2702,1.2995,1.3246,1.3443,0.0,0.0,0.0,1.1909,1.1522,1.1416,1.1382,1.1375,1.1389,1.1281,1.1254,1.1335,1.1261,1.1254,1.1341,1.1254,1.12,1.12,1.12,1.12,1.12,1.1179,1.1172,1.1166,1.0948,1.0887,1.088,1.0745,1.0684,1.0704,1.0874,1.1043,1.1193,1.1328,1.1477,1.1599,1.1577,1.1584,1.1584,1.1584,1.1584,1.1584,1.1584,1.1823,1.2098,1.2098,1.2277,1.2501,1.2501,1.2501,1.2579,1.2965,1.2772,1.2811,1.3937,1.3913,1.3811,1.4344,1.4798,1.4971,1.4533,1.4512,1.4549,1.4586,1.4505,1.4301,1.3791,1.3757,1.3559,1.3104,1.3037,1.303,1.305,1.3152,1.322,1.3241,1.3322,1.3532,1.3788,1.5091,1.6394,1.7591,1.9478,2.1007,2.2081,2.2547,2.2719,2.2695,2.2901,2.3048,0.0,0.0,0.0,0.0,0.0,0.0,1.9689,0.0,1.9247,0.0,0.0,0.0,0.0,0.0,0.0,0.0,1.4688,0.0,0.0,0.0,1.4847,0.0,0.0,0.0,0.0,0.0,0.0,0.0,1.1376,1.1389,1.1389,1.1416,1.1416,1.1389,1.1416,1.1375,1.1295,1.1315,1.1288,1.12,1.1288,1.1329,1.1329,1.124,1.1247,1.1308,1.0955,1.0833,1.0901,1.0752,1.0684,1.0691,1.0759,1.0874,1.1056,1.1206,1.1355,1.1491,1.1491,1.1545,1.1584,1.1584,1.1584,1.1584,1.1584,1.1823,1.2098,1.2098,1.2277,1.2501,1.2501,1.2501,1.254,1.2695,1.2811,1.3004,1.3551,1.3898,1.4191,1.4415,1.4859,1.5128,1.4924,1.4994,1.4976,1.4697,1.4679,1.4383,1.3608,1.3592,1.3507,1.305,1.2881,1.2861,1.2996,1.2935,1.299,1.32,1.3397,1.3587,1.3666,1.624,1.7867,1.8388,2.0867,2.2342,2.2756,2.2707,2.2611,2.2465,2.2731,2.2937,1.9315,0.0,0.0,0.0,0.0,0.0,0.0,0.0,0.0,0.0,0.0,0.0,0.0,0.0,0.0,0.0,0.0,1.628,0.0,1.6232,0.0,0.0,0.0,0.0,0.0,0.0,0.0,1.1262,1.1393,1.1433,1.1363,1.1436,1.1463,1.1396,1.1538,1.147,1.12,1.1308,1.1308,1.12,1.1308,1.1348,1.1389,1.1356,1.1348,1.143,1.1023,1.09,1.0955,1.0765,1.0684,1.0684,1.0684,1.0779,1.0928,1.1063,1.1199,1.1363,1.1363,1.143,1.1565,1.1606,1.1584,1.1584,1.1584,1.1823,1.2098,1.2098,1.2277,1.2501,1.2501,1.2501,1.2579,1.2772,1.2965,1.3197,1.3544,1.4014,1.4438,1.4553,1.4888,1.5163,1.5163,1.5317,1.5296,1.4892,1.4869,1.46,1.3769,1.3692,1.3551,1.3079,1.2811,1.2712,1.2867,1.2773,1.2854,1.3193,1.3458,1.3565,1.3566,1.6875,1.866,1.8645,2.1725,2.32,2.2973,2.278,2.2586,2.2417,2.2671,2.2901,0.0,0.0,0.0,2.0296,0.0,0.0,0.0,0.0,2.013,0.0,0.0,0.0,0.0,0.0,0.0,0.0,0.0,0.0,0.0,0.0,0.0,0.0,0.0,0.0,0.0,0.0,0.0,1.125,1.1512,1.1545,1.1206,1.1206,1.1281,1.1389,1.1538,1.147,1.12,1.12,1.12,1.12,1.12,1.1281,1.1396,1.1538,1.1606,1.1592,1.128,1.1186,1.1166,1.0839,1.0684,1.0684,1.0684,1.0779,1.0914,1.0921,1.105,1.1206,1.1206,1.1302,1.1423,1.1572,1.1584,1.1584,1.1584,1.1823,1.2098,1.2098,1.2277,1.2501,1.2501,1.2501,1.2695,1.3474,1.3351,1.3428,1.4661,1.4669,1.4515,1.4891,1.4968,1.5015,1.5015,1.5122,1.527,1.544,1.5318,1.5048,1.461,1.4218,1.3767,1.3155,1.2747,1.2508,1.2515,1.2651,1.2854,1.3193,1.3458,1.3518,1.3417,1.6632,1.8329,1.8222,2.1447,2.2961,2.2707,2.2695,2.2683,2.2683,2.2949,2.307,0.0,0.0,1.5931,1.8574,0.0,0.0,0.0,0.0,0.0,0.0,0.0,0.0,0.0,0.0,0.0,0.0,0.0,0.0,0.0,0.0,0.0,0.0,0.0,0.0,0.0,0.0,0.0,1.1504,1.1383,1.1303,1.1203,1.1193,1.122,1.1274,1.1484,1.147,1.12,1.12,1.12,1.12,1.12,1.1281,1.1389,1.1376,1.1369,1.1443,1.1043,1.0928,1.1009,1.0772,1.0684,1.0684,1.0684,1.0718,1.0779,1.088,1.1036,1.12,1.12,1.1234,1.1302,1.1416,1.1538,1.1584,1.1584,1.1823,1.2098,1.2098,1.2277,1.2501,1.2501,1.2695,1.2965,1.3235,1.3628,1.4091,1.4515,1.4707,1.4853,1.4968,1.5006,1.5006,1.5006,1.5055,1.5082,1.5147,1.5098,1.4825,1.409,1.3896,1.3525,1.2779,1.2579,1.2501,1.2501,1.2739,1.2969,1.3064,1.3315,1.3458,1.3403,1.5604,1.7325,1.8441,2.0708,2.2222,2.2949,2.2949,2.2768,2.2441,2.2695,2.301,1.458,1.4253,0.0,1.6765,1.6721,0.0,1.8933,0.0,0.0,0.0,0.0,0.0,0.0,0.0,0.0,0.0,0.0,0.0,0.0,1.9522,0.0,0.0,0.0,0.0,0.0,0.0,1.3715,1.2379,1.2177,1.1904,0.0,0.0,1.1815,1.1495,1.1628,1.1572,1.1296,1.1296,1.1281,1.1281,1.1281,1.1321,1.1463,1.1314,1.1336,1.1369,1.0941,1.0826,1.0901,1.0752,1.0684,1.0684,1.0684,1.075,1.0864,1.0833,1.0928,1.1016,1.107,1.1221,1.1393,1.1412,1.1604,1.1799,1.1655,1.1789,1.1979,1.1979,1.2196,1.2427,1.2427,1.2776,1.312,1.3274,1.386,1.4446,1.4592,1.4814,1.5006,1.5006,1.5006,1.5006,1.5006,1.5006,1.5006,1.5006,1.5006,1.4737,1.4053,1.3783,1.3428,1.2772,1.2579,1.2501,1.2501,1.2732,1.2901,1.2996,1.3227,1.3342,1.3397,1.5687,1.7433,1.8585,2.0899,2.2441,2.3082,2.3082,2.2816,2.2296,2.2478,2.2792]},{"header":{"parameterUnit":"m.s-1","parameterCategory":1,"la1":30.6,"la2":29.2853,"lo1":-89.7004,"lo2":-87.6739,"dy":0.0162,"dx":0.0183,"nx":112,"ny":82,"refTime":"2023-09-18T12:00:00:Z","depth":0,"parameterNumber":3,"parameterNumberName":"V-component_of_WINDS"},"data":[0.0,0.0,0.0,0.0,0.0,0.0,0.0,0.0,0.0,0.0,0.0,0.0,0.0,0.0,0.0,0.0,0.0,0.0,0.0,0.0,0.0,0.0,0.0,0.0,0.0,0.0,0.0,0.0,0.0,0.0,0.0,0.0,0.0,0.0,0.0,0.0,0.0,0.0,0.0,0.0,0.0,0.0,0.0,0.0,0.0,0.0,0.0,0.0,0.0,0.0,0.0,0.0,0.0,0.0,0.0,0.0,0.0,0.0,0.0,0.0,0.0,0.0,0.0,0.0,0.0,0.0,0.0,0.0,0.0,0.0,0.0,0.0,0.0,0.0,0.0,0.0,0.0,0.0,0.0,0.0,0.0,0.0,0.0,0.0,0.0,0.0,0.0,0.0,0.0,0.0,4.1505,4.1765,4.3095,4.3986,4.3986,4.3986,4.3986,4.3986,0.0,0.0,0.0,0.0,0.0,0.0,0.0,0.0,0.0,0.0,0.0,0.0,0.0,0.0,0.0,0.0,0.0,0.0,0.0,0.0,0.0,0.0,0.0,0.0,0.0,0.0,0.0,0.0,0.0,0.0,0.0,0.0,0.0,0.0,0.0,0.0,0.0,0.0,0.0,0.0,0.0,0.0,0.0,0.0,0.0,0.0,0.0,0.0,0.0,0.0,0.0,0.0,0.0,0.0,0.0,0.0,0.0,0.0,0.0,0.0,0.0,0.0,0.0,0.0,0.0,0.0,0.0,0.0,0.0,0.0,0.0,0.0,0.0,0.0,0.0,0.0,0.0,0.0,0.0,0.0,0.0,0.0,0.0,0.0,0.0,0.0,0.0,0.0,0.0,0.0,0.0,0.0,0.0,0.0,0.0,0.0,0.0,0.0,0.0,0.0,0.0,0.0,0.0,0.0,4.1096,4.2463,4.3466,4.3986,4.3986,4.3986,4.3986,4.3986,0.0,0.0,0.0,0.0,0.0,0.0,0.0,0.0,0.0,0.0,0.0,0.0,0.0,0.0,0.0,0.0,0.0,0.0,0.0,0.0,0.0,0.0,0.0,0.0,0.0,0.0,0.0,0.0,0.0,0.0,0.0,0.0,0.0,0.0,0.0,0.0,0.0,0.0,0.0,0.0,0.0,0.0,0.0,0.0,0.0,0.0,0.0,0.0,0.0,0.0,0.0,0.0,0.0,0.0,0.0,0.0,0.0,0.0,0.0,0.0,0.0,0.0,0.0,0.0,0.0,0.0,0.0,0.0,0.0,0.0,0.0,0.0,0.0,0.0,0.0,0.0,0.0,0.0,0.0,0.0,0.0,0.0,0.0,0.0,0.0,0.0,0.0,0.0,0.0,0.0,0.0,0.0,0.0,0.0,0.0,0.0,0.0,0.0,0.0,0.0,0.0,0.0,0.0,4.1059,4.1653,4.328,4.3763,4.3986,4.3986,4.3986,4.3986,4.3986,4.4155,0.0,0.0,0.0,0.0,0.0,0.0,0.0,0.0,0.0,0.0,0.0,0.0,0.0,0.0,0.0,0.0,0.0,0.0,0.0,0.0,0.0,0.0,0.0,0.0,0.0,0.0,0.0,0.0,0.0,0.0,0.0,0.0,0.0,0.0,0.0,0.0,0.0,0.0,0.0,0.0,0.0,0.0,0.0,0.0,0.0,0.0,0.0,0.0,0.0,0.0,0.0,0.0,0.0,0.0,0.0,0.0,0.0,0.0,0.0,0.0,0.0,0.0,0.0,0.0,0.0,0.0,0.0,0.0,0.0,0.0,0.0,0.0,0.0,0.0,0.0,0.0,0.0,0.0,0.0,0.0,0.0,0.0,0.0,0.0,0.0,0.0,0.0,0.0,0.0,0.0,0.0,0.0,0.0,0.0,0.0,0.0,0.0,0.0,0.0,0.0,0.0,0.0,4.2136,4.2426,4.3838,4.3986,4.3986,4.3986,4.3986,4.3986,4.3986,4.4257,0.0,0.0,0.0,0.0,0.0,0.0,0.0,0.0,0.0,0.0,0.0,0.0,0.0,0.0,0.0,0.0,0.0,0.0,0.0,0.0,0.0,0.0,0.0,0.0,0.0,0.0,0.0,0.0,0.0,0.0,0.0,0.0,0.0,0.0,0.0,0.0,0.0,0.0,0.0,0.0,0.0,0.0,0.0,0.0,0.0,0.0,0.0,0.0,0.0,0.0,0.0,0.0,0.0,0.0,0.0,0.0,0.0,0.0,0.0,0.0,0.0,0.0,0.0,0.0,0.0,0.0,0.0,0.0,0.0,0.0,0.0,0.0,0.0,0.0,0.0,0.0,0.0,0.0,0.0,0.0,0.0,0.0,0.0,0.0,0.0,0.0,0.0,0.0,0.0,0.0,0.0,0.0,0.0,0.0,0.0,0.0,0.0,0.0,0.0,0.0,0.0,0.0,4.2277,4.3058,4.3912,4.3986,4.3986,4.3986,4.3986,4.3986,4.3986,4.4257,0.0,0.0,0.0,0.0,0.0,0.0,0.0,0.0,0.0,0.0,0.0,0.0,0.0,0.0,0.0,0.0,0.0,0.0,0.0,0.0,0.0,0.0,0.0,0.0,0.0,0.0,0.0,0.0,0.0,0.0,0.0,0.0,0.0,0.0,0.0,0.0,0.0,0.0,0.0,0.0,0.0,0.0,0.0,0.0,0.0,0.0,0.0,0.0,0.0,0.0,0.0,0.0,0.0,0.0,0.0,0.0,0.0,0.0,0.0,0.0,0.0,0.0,0.0,0.0,0.0,0.0,0.0,0.0,0.0,0.0,0.0,0.0,0.0,0.0,0.0,0.0,0.0,0.0,0.0,0.0,0.0,0.0,0.0,0.0,0.0,0.0,0.0,0.0,0.0,0.0,0.0,0.0,0.0,0.0,0.0,0.0,0.0,0.0,0.0,0.0,0.0,0.0,4.2642,4.3095,0.0,4.3986,4.3986,4.3986,4.3986,4.407,4.4177,0.0,0.0,0.0,0.0,0.0,0.0,0.0,0.0,0.0,0.0,0.0,0.0,0.0,0.0,0.0,0.0,0.0,0.0,0.0,0.0,0.0,0.0,0.0,0.0,0.0,0.0,0.0,0.0,0.0,0.0,0.0,0.0,0.0,0.0,0.0,0.0,0.0,0.0,0.0,0.0,0.0,0.0,0.0,0.0,0.0,0.0,0.0,0.0,0.0,0.0,0.0,0.0,0.0,0.0,0.0,0.0,0.0,0.0,0.0,0.0,0.0,0.0,0.0,0.0,0.0,0.0,0.0,0.0,0.0,0.0,0.0,0.0,0.0,0.0,0.0,0.0,0.0,0.0,0.0,0.0,0.0,0.0,0.0,0.0,0.0,0.0,0.0,0.0,0.0,0.0,0.0,0.0,0.0,0.0,0.0,0.0,0.0,0.0,0.0,0.0,0.0,0.0,4.3074,4.3243,4.3543,0.0,4.4177,4.4177,4.4177,4.4177,4.4259,4.4402,0.0,0.0,0.0,0.0,0.0,0.0,0.0,0.0,0.0,0.0,0.0,0.0,0.0,0.0,0.0,0.0,0.0,0.0,0.0,0.0,0.0,0.0,0.0,0.0,0.0,0.0,0.0,0.0,0.0,0.0,0.0,0.0,0.0,0.0,0.0,0.0,0.0,0.0,0.0,0.0,0.0,0.0,0.0,0.0,0.0,0.0,0.0,0.0,0.0,0.0,0.0,0.0,0.0,0.0,0.0,0.0,0.0,0.0,0.0,0.0,0.0,0.0,0.0,0.0,0.0,0.0,0.0,0.0,0.0,0.0,0.0,0.0,0.0,0.0,0.0,0.0,0.0,0.0,0.0,0.0,0.0,0.0,0.0,0.0,0.0,0.0,0.0,0.0,0.0,0.0,0.0,0.0,0.0,0.0,0.0,0.0,0.0,0.0,0.0,0.0,0.0,0.0,4.3414,4.4001,4.4526,4.4526,4.4526,4.4526,4.4482,4.4482,4.4541,0.0,0.0,0.0,0.0,0.0,0.0,0.0,0.0,0.0,0.0,0.0,0.0,0.0,0.0,0.0,0.0,0.0,0.0,0.0,0.0,0.0,0.0,0.0,0.0,0.0,0.0,0.0,0.0,0.0,0.0,0.0,0.0,0.0,0.0,0.0,0.0,0.0,0.0,0.0,0.0,0.0,0.0,0.0,0.0,0.0,0.0,0.0,0.0,0.0,0.0,0.0,0.0,0.0,0.0,0.0,0.0,0.0,0.0,0.0,0.0,0.0,0.0,0.0,0.0,0.0,0.0,0.0,0.0,0.0,0.0,0.0,0.0,0.0,0.0,0.0,0.0,0.0,0.0,0.0,0.0,0.0,0.0,0.0,0.0,0.0,0.0,0.0,0.0,0.0,0.0,0.0,0.0,0.0,0.0,0.0,0.0,0.0,0.0,0.0,0.0,0.0,0.0,0.0,4.5105,4.5272,4.5359,4.5359,4.5359,4.5134,4.4564,4.4482,4.4558,4.4687,0.0,0.0,0.0,0.0,0.0,0.0,0.0,0.0,0.0,0.0,0.0,0.0,0.0,0.0,0.0,0.0,0.0,0.0,0.0,0.0,0.0,0.0,0.0,0.0,0.0,0.0,0.0,0.0,0.0,0.0,0.0,0.0,0.0,0.0,0.0,0.0,0.0,0.0,0.0,0.0,0.0,0.0,0.0,0.0,0.0,0.0,0.0,0.0,0.0,0.0,0.0,0.0,0.0,0.0,0.0,0.0,0.0,0.0,0.0,0.0,0.0,0.0,0.0,0.0,0.0,0.0,0.0,0.0,0.0,0.0,0.0,0.0,0.0,0.0,0.0,0.0,0.0,0.0,0.0,0.0,0.0,0.0,0.0,0.0,0.0,0.0,0.0,0.0,0.0,0.0,0.0,0.0,0.0,0.0,0.0,0.0,0.0,0.0,0.0,0.0,0.0,0.0,4.5892,4.5932,4.5916,4.5916,4.5916,4.5577,4.4741,4.4666,4.4738,4.4902,0.0,0.0,0.0,0.0,0.0,0.0,0.0,0.0,0.0,0.0,0.0,0.0,0.0,0.0,0.0,0.0,0.0,0.0,0.0,0.0,0.0,0.0,0.0,0.0,0.0,0.0,0.0,0.0,0.0,0.0,0.0,0.0,0.0,0.0,0.0,0.0,0.0,0.0,0.0,0.0,0.0,0.0,0.0,0.0,0.0,0.0,0.0,0.0,0.0,0.0,0.0,0.0,0.0,0.0,0.0,0.0,0.0,0.0,0.0,0.0,0.0,0.0,0.0,0.0,0.0,0.0,0.0,0.0,0.0,0.0,0.0,0.0,0.0,0.0,0.0,0.0,0.0,0.0,0.0,0.0,0.0,0.0,0.0,0.0,0.0,0.0,0.0,0.0,0.0,0.0,0.0,0.0,0.0,0.0,0.0,0.0,0.0,0.0,0.0,0.0,0.0,0.0,4.6209,4.6323,4.6323,4.6323,4.6323,4.5937,4.499,4.4932,4.5016,4.5186,0.0,0.0,0.0,0.0,0.0,0.0,0.0,0.0,0.0,0.0,0.0,0.0,0.0,0.0,0.0,0.0,0.0,0.0,0.0,0.0,0.0,0.0,0.0,0.0,0.0,0.0,0.0,0.0,0.0,0.0,0.0,0.0,0.0,0.0,0.0,0.0,0.0,0.0,0.0,0.0,0.0,0.0,0.0,0.0,0.0,0.0,0.0,0.0,0.0,0.0,0.0,0.0,0.0,0.0,0.0,0.0,0.0,0.0,0.0,0.0,4.6209,0.0,0.0,0.0,0.0,0.0,0.0,0.0,0.0,0.0,0.0,0.0,0.0,0.0,0.0,0.0,0.0,0.0,0.0,0.0,0.0,0.0,0.0,0.0,0.0,0.0,0.0,0.0,0.0,0.0,0.0,0.0,0.0,0.0,0.0,0.0,0.0,0.0,0.0,0.0,0.0,0.0,4.6967,4.715,4.715,4.715,4.715,4.6544,4.5028,4.5057,4.5153,4.5192,4.5405,0.0,0.0,0.0,0.0,0.0,0.0,0.0,0.0,0.0,0.0,0.0,0.0,0.0,0.0,0.0,0.0,0.0,0.0,0.0,0.0,0.0,0.0,0.0,0.0,0.0,0.0,0.0,0.0,0.0,0.0,0.0,0.0,0.0,0.0,0.0,0.0,0.0,0.0,0.0,0.0,0.0,0.0,0.0,0.0,0.0,0.0,0.0,0.0,0.0,0.0,0.0,0.0,0.0,0.0,0.0,0.0,0.0,0.0,0.0,0.0,4.6778,0.0,0.0,0.0,0.0,0.0,0.0,0.0,0.0,0.0,0.0,0.0,0.0,0.0,0.0,0.0,0.0,0.0,0.0,0.0,0.0,0.0,0.0,0.0,0.0,0.0,0.0,0.0,0.0,0.0,0.0,0.0,0.0,0.0,0.0,0.0,0.0,0.0,0.0,0.0,0.0,4.7188,4.7384,4.7574,4.7991,4.7649,4.6885,4.5634,4.5238,4.5103,4.5192,4.5321,0.0,0.0,0.0,0.0,0.0,0.0,0.0,0.0,0.0,0.0,0.0,0.0,0.0,0.0,0.0,0.0,0.0,0.0,0.0,0.0,0.0,0.0,0.0,0.0,0.0,0.0,0.0,0.0,0.0,0.0,0.0,0.0,0.0,0.0,0.0,0.0,0.0,0.0,0.0,0.0,0.0,0.0,0.0,0.0,0.0,0.0,0.0,0.0,0.0,0.0,0.0,0.0,0.0,5.2296,5.2648,5.3134,5.2243,5.1843,5.1729,4.9462,4.8635,4.8787,0.0,0.0,0.0,0.0,0.0,0.0,0.0,0.0,0.0,0.0,0.0,0.0,0.0,0.0,0.0,0.0,0.0,0.0,0.0,0.0,0.0,0.0,0.0,0.0,0.0,4.7157,4.727,0.0,0.0,0.0,0.0,0.0,0.0,0.0,0.0,0.0,0.0,0.0,0.0,4.7195,4.7536,4.7915,4.8642,4.8066,4.7308,4.6474,4.5658,4.527,4.542,4.5375,4.541,0.0,0.0,0.0,0.0,0.0,0.0,0.0,0.0,0.0,0.0,0.0,0.0,0.0,0.0,0.0,0.0,0.0,0.0,0.0,0.0,0.0,0.0,0.0,0.0,0.0,0.0,0.0,0.0,0.0,0.0,0.0,0.0,4.9438,4.8648,0.0,0.0,0.0,0.0,0.0,0.0,0.0,0.0,0.0,0.0,0.0,0.0,0.0,5.2453,5.3138,5.5401,5.6208,5.5555,5.6254,5.63,5.5693,5.4806,5.4427,5.4344,5.3328,0.0,4.9734,4.9507,0.0,0.0,0.0,0.0,0.0,0.0,0.0,0.0,0.0,0.0,0.0,0.0,0.0,0.0,0.0,0.0,0.0,0.0,0.0,0.0,0.0,0.0,4.837,4.837,4.8445,4.8483,0.0,4.7043,4.6019,4.6019,0.0,0.0,0.0,0.0,0.0,0.0,0.0,0.0,4.727,4.8066,4.8559,4.8673,4.8597,4.818,4.7308,4.6728,4.6375,4.6396,4.5992,4.5749,4.5782,4.5782,0.0,0.0,0.0,0.0,0.0,0.0,0.0,0.0,0.0,0.0,0.0,0.0,0.0,0.0,0.0,0.0,0.0,0.0,0.0,0.0,0.0,0.0,0.0,0.0,0.0,0.0,0.0,0.0,0.0,5.1502,5.1616,5.0312,5.1063,5.0773,0.0,0.0,0.0,0.0,0.0,0.0,0.0,0.0,0.0,5.4033,5.4453,5.5229,5.6527,5.8091,5.8872,5.8948,5.884,5.887,5.8908,5.7611,5.7043,5.6975,5.6133,5.5148,5.3904,5.1061,5.0,4.9955,0.0,0.0,0.0,0.0,4.8521,4.8256,4.9197,4.9538,0.0,0.0,0.0,0.0,0.0,0.0,0.0,0.0,0.0,0.0,0.0,0.0,0.0,5.0107,5.0448,5.0789,5.0789,4.9841,4.859,0.0,4.6203,4.5634,4.5634,0.0,0.0,0.0,0.0,4.6664,4.7953,4.8445,4.8869,4.9317,4.8976,4.8566,4.8142,4.7565,4.7258,4.7346,4.6754,4.643,4.6535,4.6074,4.5803,0.0,0.0,0.0,0.0,0.0,0.0,0.0,0.0,0.0,0.0,0.0,0.0,0.0,0.0,0.0,0.0,0.0,0.0,0.0,0.0,0.0,0.0,0.0,0.0,0.0,0.0,0.0,0.0,5.3262,5.387,5.154,5.3373,5.3377,0.0,0.0,0.0,0.0,0.0,0.0,5.405,5.4302,5.5464,5.7803,5.8241,5.9014,6.0264,6.1069,6.1675,6.2054,6.1258,6.1182,6.1705,6.0302,5.9514,5.9287,5.8415,5.7922,5.7422,5.3222,5.1888,5.2336,5.0865,5.0303,5.0379,5.0947,5.0796,5.0455,5.1691,5.2146,5.2032,5.1395,0.0,5.0265,4.8818,0.0,0.0,0.0,0.0,4.9848,5.0644,5.1509,5.2184,5.2411,5.2942,5.3359,5.3359,5.2715,5.1388,0.0,4.7529,4.6853,4.6853,0.0,0.0,0.0,0.0,4.7832,4.8862,4.9204,4.9469,4.9848,4.9545,4.9261,4.9093,4.8671,4.8357,4.8293,4.7636,4.7217,4.7115,4.6461,4.6035,4.5803,0.0,0.0,0.0,0.0,0.0,0.0,0.0,0.0,0.0,0.0,0.0,0.0,0.0,0.0,0.0,0.0,0.0,0.0,0.0,0.0,0.0,0.0,0.0,0.0,0.0,0.0,0.0,0.0,0.0,5.1698,5.4776,0.0,0.0,0.0,0.0,5.3677,5.4375,5.5896,5.8365,5.92,6.0375,6.2046,6.3638,6.4509,6.4585,6.5381,6.541,6.4699,6.3818,6.3439,6.3439,6.2606,6.178,6.0917,6.0121,5.9325,5.8491,5.6633,5.5906,5.5868,5.4958,5.4579,5.4579,5.4617,5.4617,5.4617,5.4685,5.4731,5.4731,5.4655,5.3586,5.2108,5.1275,5.0448,0.0,0.0,5.1616,5.2411,5.3283,5.4124,5.492,5.5754,5.5981,5.6019,5.6019,5.5337,5.3965,0.0,4.969,4.8559,4.8559,0.0,4.8521,4.8559,4.9917,5.0675,4.9924,5.0561,5.0789,4.9962,5.0599,5.0833,5.0163,5.0226,5.001,4.9364,4.8697,4.7962,4.7119,4.708,4.6654,4.5803,4.5803,0.0,0.0,0.0,0.0,0.0,0.0,0.0,0.0,0.0,0.0,0.0,0.0,0.0,0.0,0.0,0.0,0.0,0.0,0.0,0.0,0.0,0.0,0.0,0.0,0.0,0.0,0.0,0.0,5.7081,5.9999,0.0,5.7908,5.8642,5.9333,5.9389,6.0086,6.1169,6.2648,6.3482,6.4687,6.6329,6.648,6.6746,6.7276,6.7049,6.6783,6.648,6.5116,6.469,6.5145,6.325,6.2492,6.2652,6.1856,6.1363,6.1022,6.0446,5.8938,5.6891,5.6057,5.5754,5.5792,5.6323,5.6171,5.5792,5.6323,5.6512,5.6436,5.5906,5.4958,5.3965,5.3662,5.3366,5.329,5.4162,5.4617,5.5034,5.5868,5.6285,5.6588,5.6891,5.6967,5.6815,5.6323,5.5943,5.5299,5.3852,5.1812,5.0296,5.0296,4.9848,4.9658,5.022,5.082,5.1275,5.1471,5.1767,5.1843,5.1547,5.1805,5.194,5.1821,5.1467,5.1177,5.1072,4.9902,4.8856,4.7966,4.7389,4.6693,4.5803,4.5803,4.6074,0.0,0.0,0.0,0.0,0.0,0.0,0.0,0.0,0.0,0.0,0.0,0.0,0.0,0.0,0.0,0.0,0.0,0.0,0.0,0.0,0.0,0.0,0.0,0.0,0.0,0.0,6.2842,6.0576,6.4017,6.5343,6.2235,6.3259,6.4084,6.4084,6.4842,6.5684,6.6556,6.7352,6.83,6.9399,6.9209,6.9209,6.9437,6.8906,6.8489,6.8224,6.6821,6.6291,6.648,6.4538,6.3629,6.3553,6.3023,6.2644,6.2416,6.2416,6.109,5.9051,5.8483,5.8104,5.796,5.8786,5.8559,5.7922,5.8445,5.8301,5.7771,5.7232,5.6436,5.5754,5.5754,5.5754,5.5943,5.6815,5.705,5.724,5.8036,5.8226,5.8226,5.8226,5.8226,5.8104,5.7581,5.7005,5.6436,5.5868,5.3965,5.2374,5.207,5.1774,5.1698,5.1995,5.226,5.2525,5.279,5.2828,5.2715,5.2449,5.2677,5.2841,5.2792,5.265,5.2394,5.2076,5.0815,4.9587,4.8469,4.785,4.7273,4.6693,4.6964,4.7273,4.7544,0.0,0.0,0.0,0.0,0.0,0.0,0.0,0.0,0.0,0.0,0.0,0.0,0.0,0.0,0.0,0.0,0.0,0.0,0.0,0.0,0.0,0.0,0.0,5.9359,6.3183,6.5078,6.1865,6.6565,6.8451,6.4349,6.6177,6.7617,6.7617,6.8337,6.9133,6.9977,7.0773,7.1228,7.1266,7.2024,7.2062,7.1228,7.119,7.0735,6.9977,6.9096,6.8262,6.7542,6.6632,6.5334,6.3781,6.3743,6.325,6.253,6.253,6.253,6.253,6.2416,6.1894,6.1258,6.2075,6.1856,6.1144,6.1144,6.0121,5.8832,5.8832,5.8256,5.7565,5.7565,5.7528,5.7709,5.8551,5.8816,5.8968,5.9726,5.9915,5.9915,5.9877,5.9877,5.9885,5.9847,5.8597,5.7422,5.7422,5.6095,5.4769,5.3935,5.4427,5.4685,5.3935,5.4465,0.0,5.3935,5.3821,5.348,5.2639,5.3328,5.3632,5.315,5.3798,5.3638,5.2286,5.1366,5.0128,4.8469,4.8392,4.8392,4.8392,4.9243,4.9281,4.8392,0.0,0.0,0.0,0.0,0.0,0.0,0.0,0.0,0.0,0.0,0.0,0.0,0.0,0.0,0.0,0.0,0.0,0.0,0.0,0.0,0.0,6.3924,6.541,6.5055,6.7731,6.9816,7.0109,7.2156,7.3075,7.189,7.2421,7.2573,7.1928,7.2686,7.2999,7.2611,7.3368,7.4136,7.4705,7.3795,7.3454,7.3833,7.2668,7.1948,7.1683,7.0849,7.0621,7.0962,6.9522,6.8603,6.811,6.6897,6.5874,6.5069,6.5069,6.5069,6.488,6.3098,6.2265,6.2075,6.2303,6.2265,6.2037,6.2037,6.1734,6.1393,6.1393,6.1111,6.0809,6.0809,6.0712,6.0632,6.0867,6.0942,6.0867,6.0453,6.0349,6.0198,5.9605,5.9598,5.9534,5.8929,5.8546,5.815,5.7535,5.7535,5.7202,5.5754,5.5716,5.5981,5.6323,5.655,0.0,5.6398,5.636,5.6285,5.6057,5.638,5.6355,5.5723,5.4908,5.3764,5.229,5.0828,4.9548,4.8469,4.8392,4.8392,4.8392,4.9243,4.9281,0.0,0.0,0.0,0.0,0.0,0.0,0.0,0.0,0.0,0.0,0.0,0.0,0.0,0.0,0.0,0.0,0.0,0.0,0.0,0.0,0.0,0.0,6.811,7.0385,7.1604,7.2595,7.3568,7.4543,7.5718,7.6335,7.5994,7.5956,7.5728,7.5225,7.5642,7.5728,7.5225,7.568,7.6145,7.6638,7.568,7.5263,7.5415,7.444,7.3757,7.3416,7.2545,7.2241,7.2365,7.1,7.0015,0.0,6.8337,6.7428,6.6632,6.6632,6.6632,0.0,0.0,0.0,0.0,0.0,6.3387,6.3288,6.29,6.2507,6.2142,6.2142,6.206,6.1968,6.1968,6.1883,6.1712,6.1374,6.1261,6.1073,6.0219,5.9994,5.9882,5.9403,5.9373,5.9341,5.8889,5.86,5.83,5.7809,0.0,0.0,5.7235,5.7185,5.7278,5.7384,5.7384,5.7423,5.7498,5.7544,5.755,5.7651,5.7745,5.7711,5.7388,5.623,0.0,0.0,0.0,5.021,4.8972,4.9281,0.0,0.0,0.0,5.0326,4.9432,0.0,0.0,0.0,4.9745,5.0094,0.0,0.0,0.0,0.0,0.0,0.0,0.0,0.0,0.0,0.0,0.0,0.0,0.0,0.0,0.0,0.0,7.2951,7.5932,7.7975,7.7397,7.6721,7.6562,7.7851,7.8457,7.7737,7.7699,7.7623,7.7548,7.7623,7.7586,7.7396,0.0,0.0,0.0,0.0,7.7055,7.64,7.6173,7.5718,7.4998,7.4164,7.3378,7.2668,7.1872,7.0612,6.902,6.8906,6.8375,6.7542,6.7542,6.757,6.7628,6.7343,6.6765,6.5951,6.5156,6.4736,0.0,6.3691,0.0,0.0,6.2087,6.2077,6.2058,6.2058,6.2028,6.1821,6.1081,6.0856,6.0668,5.9853,5.9628,5.959,5.9403,5.9384,5.9403,5.9403,5.8784,5.8267,5.8342,5.7809,5.759,5.8391,5.8635,5.8453,5.7763,5.7687,5.7734,5.7918,5.7967,5.8064,5.8221,0.0,0.0,5.844,5.7662,5.6493,5.4882,5.3153,5.1529,5.0055,5.0747,5.1173,5.1173,5.195,5.195,5.1173,5.195,5.2337,5.2294,5.0825,5.0945,0.0,0.0,0.0,0.0,0.0,0.0,0.0,0.0,0.0,0.0,0.0,0.0,0.0,0.0,0.0,7.3167,7.6017,7.8646,8.0882,8.0985,8.043,7.929,7.9443,7.9594,7.9443,7.9405,7.9102,7.8419,7.9026,7.8836,7.7472,7.8002,7.8382,7.8382,7.7737,7.7623,7.8116,7.679,7.6021,7.587,0.0,0.0,7.4402,7.425,7.3265,7.1645,7.0924,6.974,6.8375,6.8375,6.866,6.8902,6.706,6.6153,6.5757,6.4955,6.4492,6.4231,6.4081,6.3901,6.3759,6.3759,6.3638,6.3493,6.3493,6.3366,0.0,6.3055,6.3017,6.2831,6.2012,6.1789,6.1454,6.0114,5.9923,6.0015,6.0015,5.9515,5.9253,5.9919,5.9431,5.8977,5.9317,5.9013,5.887,5.9325,5.9439,5.9417,5.9472,5.9611,5.9712,5.9755,6.0066,6.003,5.9403,5.8684,5.73,5.4967,5.3153,5.2032,5.1722,5.2531,5.2995,5.2995,5.3153,5.3153,5.2995,5.3153,5.321,5.3172,5.2901,5.296,0.0,0.0,0.0,0.0,0.0,0.0,0.0,0.0,0.0,0.0,0.0,6.7495,6.9623,0.0,7.4865,7.8073,8.041,8.2186,8.3205,8.3709,8.3364,8.1757,8.1063,8.0832,8.1133,8.0995,8.0496,7.9538,7.9866,7.9564,7.8319,7.8621,7.8859,7.8859,7.847,7.8243,7.8206,7.6961,7.6169,7.5754,7.4886,7.4509,7.4471,7.4067,7.3199,7.2002,7.1124,7.009,6.9056,6.9056,6.9164,6.9206,6.7603,6.7001,6.6935,6.6153,6.5423,6.4772,6.4237,6.3973,6.3915,6.3915,6.384,6.3742,6.3742,6.3691,6.3516,6.3108,6.2996,6.281,6.1993,6.1808,6.1596,6.073,6.0641,6.0576,6.0129,5.997,5.9882,5.9844,5.978,5.974,5.9823,5.9649,5.9597,5.9842,5.9893,5.9982,6.0188,6.0279,6.0436,6.0639,6.0823,6.0807,6.0383,5.9258,5.768,5.5548,5.4194,5.3308,5.2883,5.327,5.3502,5.3502,5.3477,5.3464,5.3464,5.3864,5.4262,5.4664,5.5112,5.4893,0.0,0.0,0.0,0.0,0.0,0.0,0.0,6.4255,6.5917,6.8618,7.0518,7.2666,7.5851,7.7885,7.9989,8.2789,8.4563,8.5506,8.5299,8.5813,8.5749,8.4468,8.2884,8.2129,8.272,8.2202,8.1443,8.0504,8.0355,7.9967,7.9154,7.9116,7.9116,7.9116,7.9116,7.8766,7.804,7.7227,7.6438,7.56,7.4749,7.4261,7.4073,7.3435,7.2695,7.188,7.0855,7.0025,6.944,6.9251,6.9165,6.9036,6.8206,6.8011,6.806,6.7279,6.6281,6.5228,6.4374,6.3869,6.359,6.359,6.3658,6.3736,6.3736,6.3736,6.3587,6.2917,6.273,6.2582,6.1959,6.1837,6.1825,6.1676,6.1527,6.1181,6.0509,6.0367,6.0181,5.9664,5.9832,6.0061,6.0091,6.0203,6.0179,6.0007,6.0013,6.0121,6.0456,6.0533,6.0681,6.1007,6.1099,6.1118,6.1118,5.9725,5.826,5.6859,5.5973,5.5234,5.4491,5.4297,5.4216,5.4207,5.4168,5.4146,5.4146,5.4954,5.5697,5.6382,5.7076,5.6661,6.1543,6.0963,6.1761,6.4572,6.4827,6.5578,0.0,7.0687,7.1221,7.4539,7.6546,7.8513,8.1168,8.3097,8.464,8.579,8.6724,8.7295,8.7272,8.7341,8.7611,8.8182,8.5321,8.3503,8.4029,8.2543,8.1356,8.0946,8.0539,7.9967,7.9154,7.9116,7.9116,7.9116,7.9116,7.9041,7.8954,7.809,7.7264,7.6476,7.565,7.485,7.4111,7.3998,7.351,7.2695,7.1081,6.9965,6.9182,6.842,6.8393,6.8765,6.8141,6.7808,6.7569,6.6757,6.5792,6.4859,6.4751,6.4208,6.359,6.359,6.384,6.4138,6.4138,6.4138,6.4101,6.4026,6.3988,6.3988,6.3876,6.4086,6.4129,6.3428,6.2653,6.2077,6.1964,6.0863,6.0047,6.0682,6.0286,5.989,6.0068,6.0106,6.0181,6.0314,6.0342,6.0383,6.0489,6.0657,6.0778,6.0817,6.0992,6.1118,6.1118,6.0267,5.9653,5.9493,5.8647,5.8083,5.7955,5.7187,5.6782,5.6807,5.6797,5.6753,5.6797,5.7597,5.7996,5.8021,5.8137,5.8086,6.3631,6.4003,6.5102,6.6477,6.8004,6.9883,7.2521,7.3941,7.56,7.857,8.0884,8.3037,8.5036,8.5992,8.694,8.8232,8.8733,8.8925,8.8925,8.8548,8.821,8.8048,8.5561,8.4358,8.5638,8.4459,8.3051,8.1793,8.1265,8.043,7.9129,7.8788,7.8642,7.8642,7.8642,7.8642,7.8642,7.7821,7.6963,7.6104,7.532,7.4499,7.3678,7.3193,7.2521,7.1663,7.0658,6.9962,6.9386,6.8216,6.8062,6.8562,6.7847,6.7775,6.804,6.737,6.6538,6.5762,6.588,6.5672,6.5341,6.5103,6.5123,6.5143,6.4652,6.4501,6.4501,6.4501,6.4501,6.4501,6.4501,6.4583,6.4518,6.3684,6.3221,6.2682,6.1696,6.1131,6.0738,6.0624,6.0473,6.0428,6.0481,6.0494,6.054,6.0659,6.0476,6.0396,6.0591,6.0683,6.081,6.0905,6.098,6.1026,6.1026,6.0717,6.033,5.9828,5.9442,5.9007,5.8476,5.8095,5.7892,5.7906,5.787,5.7855,5.7855,5.817,5.8567,5.9007,5.9007,5.9293,6.47,6.5915,6.7321,6.8684,7.1403,7.4134,7.5662,7.7814,8.0203,8.2793,8.4797,8.6593,8.8232,8.8524,8.8892,9.0056,9.0278,9.0163,8.9932,8.921,8.8372,8.7517,8.5592,8.4833,8.6133,8.5075,8.3655,8.2141,8.15,8.0518,7.9091,7.8673,7.8485,7.8485,7.8485,7.8485,7.8498,7.7778,7.699,7.6172,7.5578,7.4723,7.3683,7.2902,7.2085,7.1255,7.087,7.0424,6.9917,6.8685,6.8438,6.8766,6.8054,6.815,6.8633,6.8316,6.7599,6.6833,6.6828,6.6704,6.6414,6.583,6.5726,6.569,6.5044,6.4854,6.4854,6.4854,6.4854,6.4854,6.4854,6.4967,6.4889,6.431,6.3807,6.3198,6.2208,6.1626,6.1207,6.0876,6.0814,6.0787,6.0787,6.0787,6.0837,6.0883,6.0616,6.0527,6.0746,6.0769,6.0854,6.0976,6.0992,6.0992,6.0992,6.0992,6.0722,6.0105,6.0066,5.9786,5.9114,5.8845,5.8724,5.8708,5.8665,5.8644,5.8644,5.8874,5.9281,5.9858,5.9858,6.0319,6.4122,6.539,6.7224,7.209,7.526,7.8019,8.1308,8.3409,8.5401,8.7948,8.8534,8.9103,9.0787,9.1095,9.1095,9.1171,9.1171,9.0855,9.0009,8.921,8.8372,8.7517,8.5931,8.4915,0.0,8.329,8.2033,8.1652,8.0742,7.9867,7.9029,7.8979,7.8966,7.8966,7.8966,7.8979,7.8991,7.8501,7.7844,7.7064,7.7027,7.6172,7.4537,7.372,7.2902,7.2159,7.2135,7.1639,7.0796,6.9979,6.9645,6.962,6.923,6.9069,6.9123,6.948,6.889,6.7802,6.7345,6.6652,6.5874,6.5011,6.5014,6.5322,6.5284,6.5276,6.5276,6.5276,6.5276,6.5276,6.5276,6.5587,6.5878,6.584,6.4526,6.352,6.4334,6.2571,6.1044,6.1897,6.1358,6.0787,6.0787,6.0787,6.0787,6.0787,6.0781,6.0816,6.0971,6.0981,6.0987,6.0992,6.0992,6.0992,6.0992,6.0992,6.0992,6.0953,6.0953,6.0927,6.0839,6.0025,5.9535,5.9479,5.9473,5.9473,5.9473,6.0319,6.0748,6.0748,6.0748,6.1248,6.5993,6.9483,7.3509,7.6866,7.9584,8.224,8.5025,8.6594,8.7671,8.8526,8.7786,8.6824,8.6247,8.617,8.6363,8.694,8.844,8.944,8.9133,8.7863,8.644,8.5063,8.3401,8.2401,0.0,0.0,0.0,8.2105,8.148,8.0767,7.9968,7.9632,7.9464,7.9464,7.9464,7.9314,7.8978,7.8828,7.8208,7.7101,7.5986,7.5132,7.4574,7.3757,7.3237,7.2977,7.2419,7.2048,7.1664,7.0602,7.0491,7.0874,6.9913,6.9896,7.0352,7.014,6.9517,6.8736,6.9133,6.907,6.8654,6.7538,6.725,6.7135,6.6029,6.5683,6.5683,6.5683,6.5683,6.5683,6.5683,6.5795,6.5743,6.5166,6.4589,6.4083,6.3814,6.3045,6.2545,6.2858,6.2249,6.1826,6.2358,6.2012,6.1672,6.1672,6.1172,6.0837,6.0877,6.0883,6.0883,6.0883,6.0883,6.0883,6.0883,6.0883,6.0883,6.0883,6.0883,6.0871,6.0816,6.0541,6.0381,6.0358,6.0358,6.0358,6.0358,6.0666,6.0787,6.0787,6.0787,6.0979,7.0009,7.4032,7.8175,8.1293,8.3747,8.5833,8.7487,8.8517,8.894,8.8372,8.6632,8.4786,8.3409,8.2909,8.2785,8.3046,8.4939,8.6525,8.6833,8.5401,8.4132,8.3678,8.2131,8.1093,8.1093,0.0,0.0,8.19,8.146,8.0964,8.043,8.0103,7.9941,7.9941,7.9941,7.9815,7.952,7.9326,7.8851,7.8004,7.6618,7.5956,7.5919,7.4833,7.4346,7.4271,7.3435,7.3098,7.2972,7.161,7.1352,7.1696,7.0469,7.0284,7.0738,7.056,7.018,6.972,6.9643,6.9414,6.8984,6.7877,6.7513,6.7321,6.6244,6.5904,6.5904,6.5904,6.5904,6.5904,6.5904,6.5904,6.5743,6.5205,6.482,6.4551,6.4282,6.3737,6.3391,6.3698,6.3089,6.2704,6.3198,6.2858,6.2512,6.2512,6.205,6.1473,6.0896,6.1056,6.1133,6.0819,6.0787,6.0787,6.0787,6.0787,6.0787,6.0787,6.0787,6.0787,6.0787,6.0787,6.0787,6.0787,6.0787,6.0787,6.0787,6.0787,6.0787,6.0787,6.0787,6.0979,7.5637,7.8784,8.1162,8.5209,8.7478,8.8718,8.8756,8.9286,8.9278,8.7555,8.5102,8.2986,8.1977,8.1246,8.0516,7.9785,8.1246,8.2747,8.3601,8.2324,8.1862,8.337,8.2093,8.1093,8.1093,8.1093,0.0,8.1093,0.0,8.0457,8.0457,8.0457,8.0457,8.0457,8.0457,8.041,8.0391,7.993,7.9697,7.9697,7.8798,7.8392,7.8354,7.6745,7.5987,7.5949,7.5018,7.4629,7.4526,7.2915,7.2233,7.212,7.0883,7.0413,7.0453,7.0794,7.086,7.0552,6.893,6.7898,6.7096,6.625,6.5981,6.5942,6.5904,6.5904,6.5904,6.5904,6.5904,6.5904,6.5904,6.5904,6.5904,6.5904,6.5282,6.4897,6.5705,6.4589,6.366,6.4512,6.4006,6.3429,6.3352,6.3391,6.3429,6.3352,6.3391,6.2814,6.1127,6.1633,6.1826,6.0979,6.0864,6.0864,6.0787,6.0787,6.0787,6.0787,6.0787,6.0825,6.0864,6.0825,6.0825,6.0864,6.0825,6.0787,6.0787,6.0787,6.0787,6.0787,6.0787,6.1248,7.8515,8.2247,8.5863,8.7594,8.8372,8.8872,8.9479,8.8786,8.7363,8.5063,8.1562,7.8061,7.5291,7.563,7.6669,7.7746,8.1477,8.4516,8.5363,8.4593,8.3593,8.2747,8.1747,8.1093,8.1093,8.1093,0.0,0.0,8.0975,8.0926,8.0926,8.0926,8.0926,8.0926,8.0926,8.0754,8.0391,7.993,7.9697,7.9697,7.8798,7.8392,7.8354,7.6745,7.5987,7.5911,7.4402,7.3737,7.3692,7.2963,7.267,7.2591,7.1965,7.1716,7.1646,7.1102,7.0129,6.8968,6.8545,6.866,6.8783,6.7289,6.6789,6.6673,6.6096,6.5904,6.5904,6.5904,6.5904,6.5904,6.5904,6.5904,6.5904,6.5904,6.575,6.5628,6.5865,6.5551,6.5282,6.5513,6.5397,6.5013,6.4397,6.482,6.5013,6.4359,6.482,6.4628,6.2891,6.2858,6.2666,6.1864,6.1787,6.1518,6.0864,6.0787,6.0787,6.0787,6.0787,6.1095,6.1749,6.1133,6.1095,6.1749,6.1133,6.0787,6.0787,6.0787,6.0787,6.0787,6.0787,6.0941,8.2978,8.6055,8.8709,8.9594,8.9257,8.8449,8.7363,8.6094,8.4132,8.0439,7.7207,7.4252,7.1591,7.2476,7.3937,7.4906,7.9015,8.2631,8.4209,8.3747,8.3285,8.3439,8.2708,8.2208,8.2208,8.2208,8.2208,0.0,8.1516,8.1093,8.1093,8.1093,8.1093,8.1093,8.1093,8.0959,8.072,8.0467,8.0316,8.0316,7.9829,7.9562,7.9524,7.7862,7.7099,7.6984,0.0,7.3971,7.3912,7.292,7.254,7.2487,7.1867,7.1636,7.1552,7.1091,7.0283,6.943,6.9084,6.9276,6.936,6.7244,6.6558,6.6481,6.6058,6.5904,6.5904,6.5904,6.5904,6.5904,6.5904,6.5904,6.5904,6.5904,6.5904,6.5904,6.5904,6.5904,6.5904,6.5904,6.5904,6.5743,6.5243,6.559,6.575,6.5243,6.559,6.5551,6.4589,6.4128,6.3551,6.2704,6.2627,6.2435,6.1935,6.1897,6.1897,6.1897,6.1897,6.2127,6.2589,6.2166,6.1973,6.2095,6.1633,6.1172,6.0787,6.0787,6.0787,6.0787,6.0787,6.0787,8.7632,8.944,9.0239,9.0855,8.9787,8.7641,8.4217,8.2593,8.0362,7.5399,7.3014,7.1398,6.9821,7.0821,7.2098,7.279,7.6137,7.9677,8.2554,8.2285,8.2593,8.4777,8.4286,8.3717,8.3601,8.3601,8.3563,8.3447,8.2093,8.1246,8.1246,8.117,8.1093,8.1093,8.1093,8.1093,8.1093,8.1093,8.1093,8.1093,8.1093,8.1054,8.0862,7.9254,7.8369,7.8023,0.0,0.0,7.4245,7.2668,7.2021,7.1944,7.1206,7.0898,7.0898,7.0898,7.0821,7.0629,6.9937,6.9629,6.9129,6.6821,6.6134,6.6205,6.6096,6.6128,6.6244,6.6244,6.6244,6.6244,6.6244,6.6167,6.6051,6.6051,6.5981,6.5904,6.5904,6.5904,6.5904,6.5904,6.5904,6.5936,6.6058,6.6051,6.6051,6.6051,6.6167,6.6205,6.6058,6.532,6.4436,6.3583,6.3468,6.3429,6.3314,6.3314,6.3314,6.3314,6.3314,6.3352,6.3468,6.3352,6.3051,6.2441,6.2326,6.1903,6.1127,6.1018,6.0979,6.0979,6.0864,6.0864,8.9286,9.0325,9.0825,9.0278,8.8863,8.6709,8.3324,8.0793,7.7907,7.356,7.1283,6.9821,6.8814,6.9436,7.1514,7.5714,7.8207,8.1208,8.5863,8.5786,8.5401,8.5863,8.517,8.4401,8.3678,8.3601,0.0,0.0,8.2247,8.2093,8.2093,8.1477,8.1093,8.1093,8.1093,8.1093,8.1093,8.1093,8.1093,8.1093,8.1093,8.0708,7.9969,7.8984,7.7753,7.6322,7.4507,0.0,7.2559,7.1552,7.1129,7.1091,7.0975,7.0898,7.0898,7.0898,7.0475,6.9898,6.9744,6.9237,6.843,6.7282,6.7398,6.7814,6.709,6.7398,6.7968,6.7968,6.7968,6.7968,6.7968,6.7436,6.6904,6.6904,6.6365,6.5904,6.5904,6.5904,6.5904,6.5904,6.5904,6.609,6.6789,6.6904,6.6904,6.6904,6.7513,6.7705,6.6981,6.6173,6.532,6.4474,6.4352,6.4083,6.3352,6.3314,6.3314,6.3314,6.3314,6.3622,6.4359,6.366,6.3583,6.4166,6.3474,6.3006,6.2852,6.221,6.1864,6.1864,6.1133,6.1172,9.0355,9.0902,9.097,9.0124,8.797,8.4978,8.0669,7.7746,7.4553,6.9905,6.8635,6.809,6.7244,6.8513,7.0629,7.3514,7.5745,7.8784,8.3478,8.4132,8.4593,8.594,8.617,8.5863,8.4978,8.4901,8.4555,8.3708,8.3208,8.2601,8.1708,8.1323,8.1093,8.1093,8.1093,8.1093,8.1093,8.1093,8.1093,8.1093,8.0631,8.0439,8.0439,7.8669,7.7445,7.6553,7.443,0.0,7.2136,7.1245,7.0898,7.0898,7.0898,7.0898,7.0898,7.0898,7.0667,7.0321,7.0321,7.0052,6.9552,6.8744,6.8436,6.8314,6.7898,6.809,6.8314,6.7859,6.8045,6.8314,6.7859,6.7398,6.7096,6.7096,6.6827,6.6404,6.5974,6.625,6.6519,6.6519,6.6519,6.6782,6.7628,6.7782,6.7782,6.7782,6.8122,6.8237,6.7821,6.7436,6.7045,6.6622,6.6167,6.5936,6.5968,6.5551,6.5474,6.5929,6.5551,6.5474,6.5897,6.5513,6.5051,6.4628,6.4199,6.3737,6.3314,6.2897,6.2704,6.2704,6.232,6.232,9.0979,9.121,9.0902,8.9663,8.7124,8.3478,7.7977,7.4938,7.1822,6.6898,6.6404,6.6712,6.625,6.7667,6.9398,7.0937,7.286,7.5784,8.0439,8.1939,8.3439,8.5824,8.7017,8.7248,8.6209,8.6286,0.0,8.4709,8.3632,0.0,8.117,8.1093,8.1093,8.1093,8.1093,8.1093,8.1093,8.1093,8.1093,8.1093,8.04,8.0246,8.0477,7.8484,7.7176,7.6361,7.4353,0.0,0.0,7.1168,7.0898,7.0898,7.0898,7.0898,7.0898,7.0898,7.0898,7.0898,7.0898,7.0898,7.0783,7.0167,6.9475,6.8891,6.8737,6.8814,6.8776,6.8097,6.8398,6.8776,6.809,6.7789,6.7596,6.7398,6.725,6.6942,6.6288,6.6635,6.7096,6.7096,6.725,6.7667,6.8545,6.866,6.866,6.866,6.8814,6.8853,6.8699,6.866,6.8737,6.893,6.8013,6.7667,6.8353,6.7782,6.7667,6.8353,6.7744,6.7289,6.7096,6.7096,6.6397,6.4897,6.4897,6.4551,6.3852,6.366,6.3583,6.3583,6.3391,6.3391,9.0979,9.121,9.0633,8.8248,8.6247,8.3162,7.6469,7.3591,7.1097,6.6782,6.5981,6.6211,6.6865,6.6596,6.7513,7.1444,7.229,7.4437,8.0285,8.2477,8.414,8.5901,8.7555,8.794,8.6247,8.6824,8.6286,8.3909,0.0,0.0,8.1093,8.1093,8.1093,8.1093,8.1093,8.1093,8.1093,8.1093,8.1093,8.1093,8.1016,8.0169,7.8715,7.8484,7.6746,7.3853,7.3584,0.0,0.0,7.0937,7.0898,7.0898,7.0898,7.0898,7.0898,7.0898,7.0898,7.0898,7.0898,7.0898,7.0898,7.0821,7.0744,7.0514,6.9821,7.009,7.0667,7.0552,7.0591,7.0667,7.0552,7.0014,6.9244,6.8468,6.7667,6.7096,6.7019,6.7058,6.7096,6.7096,6.7744,6.8545,6.9436,6.959,6.959,6.959,7.0206,7.0398,6.9667,6.959,6.986,7.0591,6.9237,6.8314,6.8391,6.8314,6.8314,6.8391,6.8314,6.7936,6.7135,6.7096,6.6673,6.5788,6.5788,6.5743,6.5667,6.4859,6.4474,6.4474,6.366,6.3737,8.9171,9.0441,9.0594,8.8055,8.4978,8.1208,7.5892,7.2206,6.9167,6.6436,6.5904,6.6013,6.6327,6.6134,6.6436,6.8135,6.8828,7.052,7.4399,7.6861,7.9438,8.2708,8.4593,8.5747,8.6055,0.0,8.5786,8.3755,0.0,0.0,8.1093,8.1093,8.1093,8.1093,8.1093,8.1093,8.1093,8.1093,8.1093,8.1093,8.0554,7.9939,7.9246,7.8253,7.6476,7.4199,7.3699,0.0,0.0,7.0898,7.0898,7.0898,7.0898,7.0898,7.0898,7.0898,7.0898,7.0898,7.0898,7.0898,7.0898,7.0898,7.0898,7.0821,7.0514,7.0667,7.0783,7.0321,7.0514,7.0783,7.0283,6.9937,6.9475,6.8622,6.8552,6.8513,6.8013,6.8282,6.8667,6.8667,6.8936,6.9436,7.0283,7.0437,7.0437,7.0437,7.0706,7.0783,7.0475,7.0437,7.0552,7.086,6.986,6.9398,6.986,6.9468,6.9398,6.9853,6.943,6.9013,6.8667,6.8167,6.7475,6.6635,6.6134,6.5904,6.5904,6.5551,6.5397,6.5359,6.5013,6.5051,8.694,8.8786,8.9517,8.7248,8.367,7.9592,7.5315,7.1468,6.8244,6.6282,6.5904,6.5904,6.5904,6.5904,6.5904,6.5904,6.6782,6.8282,7.0591,7.3091,7.6015,7.9554,8.1439,8.3054,8.4478,8.4824,8.4478,8.3293,0.0,0.0,8.1093,8.1093,8.1093,8.1093,8.1093,8.1093,8.1093,8.1093,8.1093,8.1093,8.0208,7.9662,7.9361,7.7938,7.6207,7.4315,0.0,0.0,0.0,7.0898,7.0898,7.0898,7.0898,7.0898,7.0898,7.0898,7.0898,7.0898,7.0898,7.0898,7.0898,7.0898,7.0898,7.0898,7.0898,7.0898,7.0783,7.0206,7.0475,7.0783,7.0206,7.0052,6.9898,6.9276,6.9436,6.9513,6.893,6.9283,6.9706,6.9706,6.9898,7.0244,7.0783,7.0898,7.0898,7.0898,7.0898,7.0898,7.0898,7.0898,7.0898,7.0898,7.0398,7.0283,7.086,7.0398,7.0283,7.086,7.036,6.9937,6.9706,6.9122,6.8244,6.7135,6.6558,6.6134,6.5904,6.5904,6.5904,6.5904,6.5904,6.5904,8.4478,8.617,8.7017,8.5363,8.2354,7.87,7.4469,7.1545,6.8975,6.6436,6.5904,6.5904,6.5904,6.5904,6.5904,6.5904,6.7321,6.8968,7.0667,7.3091,7.5361,7.7138,7.8823,8.0208,8.1054,8.1862,8.2324,8.2324,0.0,0.0,8.1093,8.1093,8.1093,8.1093,8.1093,8.1093,8.1093,8.1093,8.1093,8.1093,8.0208,7.9361,7.8484,7.7676,7.5899,0.0,0.0,0.0,0.0,7.0898,7.0898,7.0898,7.0898,7.0898,7.0898,7.0898,7.0898,7.0898,7.0898,7.0898,7.0898,7.0898,7.0898,7.0898,7.0898,7.0898,7.0898,7.0898,7.0898,7.0898,7.0898,7.0898,7.0898,7.0898,7.0283,6.9706,6.9706,6.9706,6.9706,6.9706,7.036,7.0898,7.0898,7.0898,7.0898,7.0898,7.0898,7.0898,7.0898,7.0898,7.0898,7.0898,7.0898,7.0898,7.0898,7.0898,7.0898,7.0898,7.0898,7.0514,6.9744,6.9706,6.8859,6.7135,6.7096,6.6712,6.5904,6.5904,6.5904,6.5904,6.5904,6.5904,7.8361,8.0477,8.167,7.94,7.6707,7.3976,7.1475,6.8936,6.6859,6.6058,6.5904,6.5904,6.5904,6.5904,6.6096,6.6635,6.7667,6.8584,6.9122,7.1892,7.4738,7.7022,8.0823,8.3393,8.367,0.0,8.2285,0.0,0.0,0.0,8.1093,8.1093,8.1093,8.1093,8.1093,8.1093,8.1093,8.1093,8.1093,8.1093,8.0208,7.9323,7.8484,7.7676,0.0,0.0,0.0,0.0,0.0,7.1168,7.0898,7.0898,7.0898,7.0898,7.0898,7.0898,7.0898,7.0898,7.0898,7.0898,7.0898,7.0898,7.0898,7.0898,7.0898,7.0898,7.0898,7.0898,7.0898,7.0898,7.0898,7.0898,7.0898,7.0898,7.0706,7.0514,7.0514,7.0514,7.0514,7.0514,7.0744,7.0898,7.0898,7.0898,7.0898,7.0898,7.0898,7.0898,7.0898,7.0898,7.0898,7.0898,7.0898,7.0898,7.0898,7.0898,7.0898,7.0898,7.0898,7.0783,7.0514,6.9975,6.9167,6.8013,6.7398,6.6712,6.5904,6.5904,6.6173,6.6712,6.6173,6.6211,7.3937,7.6207,7.7469,7.5899,7.3591,7.136,7.0014,6.7975,6.6288,6.5981,6.5904,6.5904,6.5904,6.5904,6.6051,6.6558,6.7628,6.8622,6.9237,7.1738,7.443,7.6984,8.0669,8.297,0.0,8.2285,8.1862,0.0,0.0,0.0,8.1093,8.1093,8.1093,8.1093,8.1093,8.1093,8.1093,8.1093,8.0939,8.0592,7.9746,7.8861,7.8023,7.7169,0.0,0.0,0.0,0.0,0.0,7.1245,7.0898,7.0898,7.0898,7.0898,7.0898,7.0898,7.0898,7.0898,7.0898,7.0898,7.0898,7.0898,7.0898,7.0898,7.0898,7.0898,7.0898,7.0898,7.0898,7.0898,7.0898,7.0898,7.0898,7.0898,7.0898,7.0898,7.0898,7.0898,7.0898,7.0898,7.0898,7.0898,7.0898,7.0898,7.0898,7.0898,7.0898,7.0898,7.0898,7.0898,7.1014,7.136,7.1398,7.1514,7.186,7.1591,7.1398,7.1398,7.1398,7.1245,7.0898,7.0437,6.9744,6.8891,6.8359,6.7513,6.6365,6.6058,6.6173,6.6635,6.6134,6.6327,0.0,7.2937,7.4161,7.4084,7.2283,7.036,6.959,6.8167,0.0,6.6051,6.5904,6.5904,6.5904,6.5904,6.5904,6.5981,6.7359,6.9007,7.0667,7.2629,7.4784,7.7292,7.9015,7.9977,7.9892,8.0631,0.0,0.0,0.0,0.0,8.1093,8.1093,8.1093,8.1093,8.1093,8.1093,8.1093,8.1093,8.0669,7.9777,7.89,7.8099,7.7292,7.6399,0.0,0.0,0.0,0.0,0.0,7.1283,7.0898,7.0898,7.0898,7.0898,7.0898,7.0898,7.0898,7.0898,7.0898,7.0898,7.0898,7.0898,7.0898,7.0898,7.0898,7.0898,7.0898,7.0898,7.0898,7.0898,7.0898,7.0898,7.0898,7.0898,7.0898,7.0898,7.0898,7.0898,7.0898,7.0898,7.0898,7.0898,7.0898,7.0898,7.0898,7.0898,7.0898,7.0898,7.0898,7.0937,7.1283,7.2021,7.2213,7.2629,7.343,7.2745,7.229,7.2213,7.2213,7.1828,7.0937,7.0898,7.0514,6.9706,6.9629,6.8821,6.7173,6.6365,6.6051,6.6167,6.5974,6.6404,6.7173,0.0,6.8751,6.8129,6.7513,6.7019,0.0,6.6481,6.6134,6.5936,6.5904,6.5904,6.5904,6.5904,6.6096,6.6712,6.7705,6.9007,7.0667,7.4591,7.8054,7.9977,8.1093,8.1477,8.0862,8.0977,0.0,0.0,0.0,8.1093,8.1093,8.1093,8.1093,8.1093,8.1093,8.1093,8.1093,8.1093,8.0669,7.9777,7.89,7.8099,7.7292,7.6399,0.0,0.0,0.0,0.0,7.3084,7.1514,7.0898,7.0898,7.0898,7.0898,7.0898,7.0898,7.0898,7.0898,7.0898,7.0898,7.0898,7.0898,7.0898,7.0898,7.0898,7.0898,7.0898,7.0898,7.0898,7.0898,7.0898,7.0898,7.0898,7.0898,7.0898,7.0898,7.0898,7.0898,7.0898,7.0898,7.0898,7.0898,7.0898,7.0898,7.0898,7.0898,7.0898,7.0898,7.0898,7.1475,7.1706,7.1245,7.2399,7.3276,7.3469,7.3315,7.2899,7.2252,7.2213,7.1828,7.0937,7.0898,7.0514,6.9706,6.9045,6.8507,6.8084,6.7244,6.752,6.8744,6.6821,6.7051,6.5904,6.6211,6.6442,6.6019,6.5904,6.5904,6.5904,6.5904,6.5904,6.5904,6.5904,6.5904,6.5904,6.5904,6.6173,6.6981,6.8167,6.9853,7.2283,7.5707,7.86,8.0285,8.09,8.1285,0.0,0.0,0.0,0.0,0.0,8.1093,8.1093,8.1093,8.1093,8.1093,8.1093,8.1093,8.1093,8.0708,8.0054,7.9208,7.8369,7.7522,7.6669,7.6207,7.6015,0.0,0.0,0.0,7.3353,7.1629,7.0898,7.0898,7.0898,7.0898,7.0898,7.0898,7.0898,7.0898,7.0898,7.0898,7.0898,7.0898,7.0898,7.0898,7.0898,7.0898,7.0898,7.0898,7.0898,7.0898,7.0898,7.0898,7.0898,7.0898,7.0898,7.0898,7.0898,7.0898,7.0898,7.0898,7.0898,7.0898,7.0898,7.1245,7.136,7.0975,7.1245,7.136,7.0937,7.1668,7.2021,7.1552,7.3014,7.4046,7.4046,7.4046,7.3699,7.286,7.2783,7.2245,7.0937,7.0898,7.0706,7.0244,6.9436,6.9007,6.9007,6.8129,6.8167,6.9084,6.7705,6.8013,6.5904,6.5981,6.6051,6.5936,6.5904,6.5904,6.5904,6.5904,6.5904,6.5904,6.5904,6.5904,6.5904,6.6013,6.6327,6.6981,6.8898,7.1437,7.4822,7.6669,7.8207,7.9623,7.9931,0.0,8.1785,0.0,0.0,0.0,0.0,8.1093,8.1093,8.1093,8.1093,8.1093,8.1093,8.1093,8.1093,8.0246,7.9361,7.8484,7.7676,7.6823,7.6015,7.6015,7.6015,0.0,0.0,0.0,7.3392,7.1745,7.1014,7.0898,7.0898,7.0898,7.0898,7.0898,7.0898,7.0898,7.0898,7.0898,7.0898,7.0898,7.0898,7.0898,7.0898,7.0898,7.0898,7.0898,7.0898,7.0898,7.0898,7.0898,7.0898,7.0898,7.0898,7.0898,7.0898,7.0898,7.0898,7.0898,7.0898,7.0898,7.0898,7.1629,7.1944,7.1206,7.1822,7.2091,7.1206,7.186,7.2367,7.2213,7.3707,7.47,7.47,7.4815,7.4507,7.3546,7.3392,7.2584,7.0975,7.0898,7.0898,7.0898,7.0244,6.9898,6.9898,6.9007,6.866,6.8776,6.8507,6.893,6.5904,6.6404,6.675,6.6058,6.5904,6.5904,6.5904,6.5904,6.5904,6.5904,6.5904,6.5904,6.5904,6.6442,6.6981,6.7096,7.036,7.4091,7.7445,7.8784,7.9515,7.9777,0.0,8.0708,8.0239,0.0,0.0,0.0,0.0,8.1093,8.1093,8.1093,8.1093,8.1093,8.1093,8.1093,8.1093,8.0246,7.9361,7.8484,7.7676,7.6823,7.6015,7.6015,7.6015,0.0,0.0,7.4123,7.343,7.2437,7.1552,7.0898,7.0898,7.0898,7.0898,7.0898,7.0898,7.0898,7.0898,7.0898,7.0898,7.0898,7.0898,7.0898,7.0898,7.0898,7.0898,7.0898,7.0898,7.0898,7.0898,7.0898,7.0898,7.0898,7.0898,7.0898,7.0898,7.0898,7.0898,7.0898,7.0898,7.0898,7.0898,7.1629,7.2136,7.2021,7.2745,7.2976,7.2098,7.2745,7.3014,7.229,7.3707,7.47,7.47,7.5399,7.513,7.3584,7.2822,7.1937,7.0937,7.0898,7.0898,7.0898,7.0783,7.0706,7.0706,6.9898,6.986,7.0475,6.9045,6.9237,6.5904,6.6173,6.6481,6.6519,6.6558,6.6442,6.6013,6.5904,6.5904,6.5904,6.5904,6.6019,6.6481,6.7628,6.9244,7.1552,7.3553,7.5553,7.7561,7.7784,7.8092,0.0,0.0,7.99,0.0,0.0,0.0,0.0,0.0,0.0,8.1093,8.0669,8.04,8.04,8.04,8.0169,7.9715,7.9285,7.8907,7.8484,7.7215,7.6399,7.6015,7.6015,7.6015,7.5938,0.0,7.3853,7.3392,7.2052,7.1245,7.0898,7.0898,7.0898,7.0898,7.0898,7.0898,7.0898,7.0898,7.0898,7.0898,7.0898,7.0898,7.0898,7.0898,7.0898,7.0898,7.0898,7.0898,7.0898,7.0898,7.0898,7.0898,7.0898,7.0898,7.0898,7.0898,7.0898,7.0898,7.0898,7.0898,7.1052,7.1514,7.1944,7.236,7.2822,7.2822,7.2629,7.2252,7.2552,7.2629,7.2252,7.3707,7.47,7.47,7.5084,7.4776,7.3584,7.2245,7.1321,7.0937,7.0898,7.0898,7.0898,7.0898,7.0898,7.0898,7.0514,7.0552,7.0898,7.0129,7.0167,6.5904,6.6058,6.6288,6.6712,6.6827,6.6827,6.6782,6.6782,6.6821,6.7019,6.7051,6.7128,6.7359,6.8821,7.1245,7.5053,7.6207,7.6976,7.8054,7.763,7.7669,7.8946,7.91,0.0,0.0,0.0,0.0,0.0,0.0,0.0,8.0823,8.0162,7.97,7.9515,7.9515,7.9169,7.8523,7.8292,7.8215,7.8215,7.6707,7.5899,7.5707,7.5707,7.5592,7.5322,7.4046,7.3392,7.3084,7.1745,7.1091,7.0898,7.0898,7.0898,7.0898,7.0898,7.0898,7.0898,7.0898,7.0898,7.0898,7.0898,7.0898,7.0898,7.0898,7.0898,7.0898,7.0898,7.0898,7.0898,7.0898,7.0898,7.0937,7.1168,7.1052,7.0975,7.1168,7.1052,7.0975,7.1168,7.1206,7.1475,7.236,7.2668,7.3014,7.3661,7.3399,7.3021,7.2822,7.2783,7.2783,7.2783,7.3937,7.4776,7.4976,7.4476,7.393,7.3546,7.186,7.0898,7.0898,7.0898,7.0898,7.0898,7.0898,7.0898,7.0898,7.0898,7.0898,7.0898,7.0898,7.0898,6.5904,6.6442,6.6865,6.6173,6.5981,6.659,6.8898,6.9436,6.9629,7.0398,7.0552,7.009,6.8584,6.9667,7.1706,7.4361,7.6784,7.8907,8.0592,0.0,8.0785,8.09,8.09,0.0,0.0,0.0,0.0,0.0,0.0,0.0,7.9931,7.9815,7.9438,7.8638,7.86,7.8561,7.8484,7.7753,7.7407,7.7369,7.6438,7.5592,7.4776,7.4776,7.4392,7.3661,7.3546,7.3053,7.229,7.2175,7.1636,7.0898,7.0898,7.0898,7.0898,7.0898,7.0898,7.0898,7.0898,7.0898,7.0898,7.0898,7.0898,7.0898,7.0898,7.0898,7.0898,7.0898,7.0898,7.0898,7.0898,7.0898,7.1091,7.1898,7.1475,7.1129,7.1944,7.1475,7.1129,7.1944,7.2098,7.236,7.3238,7.4046,7.4546,7.4584,7.5245,7.5438,7.4623,7.4514,7.4514,7.4514,7.4623,7.5014,7.5822,7.3745,7.2706,7.343,7.186,7.0898,7.0898,7.0898,7.0898,7.0898,7.0898,7.0898,7.0898,7.0898,7.0898,7.0898,7.0898,7.0898,6.5743,6.5743,6.5705,6.6481,6.6288,6.6436,6.843,6.9321,6.9783,7.009,7.0975,7.15,7.0843,7.2563,7.4538,7.5955,7.8408,8.0362,8.1016,8.1093,8.1093,8.1093,0.0,0.0,0.0,0.0,0.0,0.0,0.0,0.0,0.0,7.9285,7.8592,7.7792,7.7753,7.7484,7.6938,7.7176,7.7022,7.6476,7.6169,7.5822,7.5476,7.493,7.4546,7.4199,7.3129,7.2514,7.2175,7.1629,7.1206,7.0898,7.0898,7.0898,7.0898,7.0898,7.0898,7.0898,7.0898,7.0898,7.0898,7.0898,7.0898,7.0898,7.0898,7.0898,7.0898,7.0898,7.0898,7.0898,7.0898,7.0898,7.1129,7.1982,7.1944,7.1937,7.2822,7.2738,7.2622,7.2937,7.3014,7.3283,7.4084,7.4084,7.4315,7.5361,7.4892,7.4507,7.4661,7.4276,7.4161,7.4661,7.47,7.5053,7.5938,7.3668,7.2552,7.343,7.186,7.0898,7.0898,7.0898,7.0898,7.0898,7.0898,7.0898,7.0898,7.0898,7.0898,7.0898,7.0898,7.0898,6.5667,6.5243,6.4936,6.6365,6.6519,6.6865,6.909,7.0283,7.1129,7.1937,7.2154,7.2248,7.2489,7.3964,7.5516,7.6563,7.9215,8.1093,8.1093,8.1093,8.1093,8.1093,0.0,0.0,0.0,0.0,0.0,0.0,0.0,0.0,0.0,7.86,7.7753,7.6907,7.6899,7.6592,7.6015,7.6592,7.6438,7.5592,7.5592,7.5476,7.5207,7.4584,7.4007,7.3437,7.2283,7.1783,7.1745,7.1168,7.0898,7.0898,7.0898,7.0898,7.0898,7.0898,7.0898,7.0898,7.0898,7.0898,7.0898,7.0898,7.0898,7.0898,7.0898,7.0898,7.0898,7.0898,7.0898,7.0898,7.0898,7.0898,7.1206,7.2322,7.2399,7.2514,7.3623,7.3661,7.3584,7.3815,7.3892,7.4123,7.4976,7.4661,7.4661,7.5822,7.5014,7.4469,7.5053,7.463,7.4507,7.5053,7.4623,7.4776,7.5899,7.3668,7.2668,7.3815,7.2245,7.1206,7.0898,7.0898,7.0898,7.0898,7.0898,7.0898,7.0898,7.0898,7.0898,7.0898,7.0898,7.0898,6.5667,6.5243,6.4782,6.5705,6.6519,6.802,7.1444,7.286,7.4199,7.6753,7.4541,7.2429,7.3339,7.3418,7.3935,7.5731,7.8861,8.1093,8.1093,8.1093,8.1093,8.1093,0.0,0.0,0.0,0.0,0.0,0.0,0.0,0.0,0.0,7.7715,7.6899,7.6015,7.5976,7.5976,7.5976,7.5976,7.5553,7.47,7.47,7.4276,7.3507,7.3507,7.2545,7.0898,7.0898,7.0898,7.0898,7.0898,7.0898,7.0898,7.0898,7.0898,7.0898,7.0898,7.0898,7.0898,7.0898,7.0898,7.0898,7.0898,7.0898,7.0898,7.0898,7.0898,7.0898,7.0898,7.0898,7.0898,7.0898,7.0898,7.1321,7.3084,7.2822,7.2675,7.4353,7.4084,7.3776,7.4546,7.47,7.4976,7.5861,7.6015,7.6015,7.6015,7.6015,7.6015,7.6015,7.6015,7.6015,7.5976,7.4507,7.4161,7.5861,7.3668,7.2899,7.4584,7.3129,7.1828,7.0937,7.0898,7.0898,7.0898,7.0898,7.0898,7.0898,7.0898,7.0898,7.0898,7.0898,7.0898,6.5667,6.482,6.416,6.6244,6.6904,6.8167,7.2206,7.236,7.2552,7.5745,7.5577,7.4901,7.5133,7.6155,7.6939,7.687,7.9254,8.1093,8.1093,8.1093,8.1093,0.0,0.0,0.0,0.0,0.0,0.0,0.0,0.0,0.0,0.0,7.7445,7.663,7.5123,7.5091,7.4822,7.4238,7.4238,7.4123,7.3853,7.3853,7.3738,7.3469,7.286,7.2283,7.1783,7.1168,7.0898,7.0898,7.0898,7.0898,7.0898,7.0898,7.0898,7.0898,7.0898,7.0898,7.0898,7.0898,7.0898,7.0898,7.0898,7.0898,7.0898,7.0898,7.0898,7.0898,7.0898,7.0898,7.0898,7.0898,7.0898,7.1168,7.2322,7.286,7.3399,7.4469,7.4976,7.5322,7.5553,7.563,7.5707,7.5976,7.6015,7.6015,7.6015,7.6015,7.6015,7.6015,7.6015,7.5784,7.5168,7.4123,7.393,7.5014,7.3322,7.2668,7.3776,7.3392,7.2706,7.186,7.1245,7.0898,7.0898,7.0898,7.0898,7.0898,7.0898,7.0898,7.0898,7.0898,7.0898,6.5551,6.4897,6.4359,6.6558,6.7866,6.9475,7.2738,7.3969,7.513,7.7515,7.7185,7.6662,7.7339,7.7731,7.8008,7.8185,7.9807,8.1053,8.1085,8.1061,8.1053,0.0,0.0,0.0,0.0,0.0,0.0,0.0,0.0,0.0,0.0,7.663,7.5784,7.4738,7.47,7.4469,7.3969,7.3969,7.3815,7.3507,7.3161,7.2783,7.2469,7.2283,7.2021,7.1629,7.1129,7.0898,7.0898,7.0552,7.0437,7.0398,7.0052,7.0129,7.0437,7.0437,7.0629,7.0898,7.0898,7.0898,7.0898,7.0898,7.0898,7.0898,7.0898,7.0898,7.0898,7.0898,7.0898,7.0898,7.0898,7.0898,7.1129,7.1982,7.286,7.3738,7.4546,7.5399,7.6015,7.6015,7.6015,7.6015,7.6015,7.6015,7.6015,7.6015,7.6015,7.6015,7.6015,7.6015,7.5784,7.5284,7.4199,7.3969,7.513,7.3668,7.3091,7.393,7.3969,7.3437,7.2252,7.1713,7.1245,7.0898,7.0898,7.0898,7.0898,7.0898,7.1091,7.1398,7.1052,7.1091,6.5436,6.5243,6.5051,6.6865,6.9436,7.1937,7.3584,7.7046,8.0092,8.0631,7.9046,7.8054,7.9615,7.8569,7.797,7.9646,8.039,8.0827,8.0954,8.086,8.0844,0.0,0.0,0.0,0.0,0.0,0.0,0.0,0.0,0.0,0.0,7.5592,7.4661,7.4584,7.4584,7.4469,7.4238,7.4238,7.3853,0.0,7.2322,7.1552,7.0821,7.179,7.179,7.1014,7.0937,7.0898,7.0821,7.0014,6.9706,6.9629,6.8737,6.8891,6.959,6.9667,7.0167,7.0783,7.086,7.0898,7.0898,7.0898,7.0898,7.0898,7.0898,7.0898,7.0898,7.0898,7.0898,7.0898,7.0898,7.0975,7.1206,7.2021,7.286,7.3699,7.443,7.5322,7.6015,7.6015,7.6015,7.6015,7.6015,7.6015,7.6015,7.6015,7.6015,7.6015,7.6015,7.6015,7.5976,7.5899,7.4514,7.4238,7.5745,7.4469,7.393,7.4661,7.4776,7.4053,7.2406,7.2252,7.1783,7.0937,7.0898,7.0898,7.0898,7.0898,7.136,7.2175,7.1398,7.1437,6.559,6.5243,6.532,6.8398,7.2552,7.6176,7.7215,7.9169,8.0323,7.8477,7.9277,8.0385,8.0746,8.0406,8.0205,8.0605,8.0194,7.9862,7.9982,7.9982,0.0,0.0,0.0,0.0,0.0,0.0,0.0,0.0,0.0,0.0,7.6284,7.5284,7.4392,7.3776,7.3776,7.2815,7.0783,7.0783,7.0353,0.0,7.0014,7.0129,7.0014,7.1514,7.2098,7.1867,7.1206,7.0898,7.0821,7.0014,6.9706,6.9629,6.8737,6.8507,6.8776,6.9436,6.9821,7.0052,7.0667,7.0898,7.0898,7.0898,7.0898,7.0898,7.0898,7.0898,7.0898,7.0898,7.0898,7.0898,7.0898,7.1398,7.1982,7.2175,7.286,7.3546,7.3738,7.4938,7.6015,7.6015,7.6015,7.6015,7.6015,7.6015,7.6015,7.6015,7.6015,7.6015,7.6015,7.6015,7.5745,7.5053,7.4661,7.4584,7.493,7.4661,7.4507,7.47,7.5361,7.4976,7.3276,7.2552,7.1783,7.0937,7.0898,7.0898,7.0898,7.0898,7.136,7.2213,7.2021,7.2021,6.5667,6.5859,6.6628,7.0052,7.3206,7.5784,7.7015,7.8323,7.9131,7.8592,7.99,8.1093,8.1093,8.0683,8.032,8.032,7.9555,7.9108,7.9612,7.9352,0.0,0.0,0.0,0.0,0.0,0.0,0.0,0.0,0.0,7.5207,7.4822,7.3976,7.3322,7.2899,7.2476,7.1629,7.0283,6.9898,6.9475,6.9007,6.9045,6.9314,6.9744,7.0591,7.1014,7.0937,7.009,6.9699,6.9622,6.8783,6.8475,6.8359,6.7513,6.7436,6.7898,6.8744,6.936,6.9821,7.0629,7.0898,7.0898,7.0898,7.0898,7.0898,7.0898,7.0898,7.0898,7.0898,7.0898,7.1014,7.1398,7.1552,7.1783,7.2629,7.3476,7.4084,7.4084,7.5091,7.6015,7.6015,7.6015,7.6015,7.6015,7.6015,7.6015,7.6015,7.6015,7.6015,7.6015,7.6015,7.5822,7.5361,7.493,7.4853,7.5284,7.493,7.47,7.47,7.5515,7.5245,7.3584,7.3053,7.2399,7.1552,7.1091,7.0898,7.0898,7.1321,7.1752,7.2213,7.2213,7.2213,6.5667,6.6814,6.8423,7.1269,7.3024,7.4433,7.5663,7.6747,7.79,7.9431,8.0331,8.0838,8.0846,8.019,7.9588,7.9434,7.8623,7.8292,7.9111,7.8628,0.0,0.0,0.0,0.0,0.0,0.0,0.0,0.0,0.0,7.4046,7.3546,7.2668,7.2136,7.1982,7.1283,7.0706,7.0244,6.959,6.9167,6.9052,6.843,6.8629,6.9475,6.9321,6.9436,6.9667,6.8776,6.8391,6.8314,6.7475,6.7096,6.7019,6.6211,6.6327,6.7019,6.7859,6.8737,6.959,7.0398,7.0783,7.0898,7.0898,7.0898,7.0898,7.0898,7.0898,7.0898,7.0898,7.1014,7.1283,7.2021,7.186,7.1937,7.3353,7.4315,7.4892,7.4738,7.5399,7.6015,7.6015,7.6015,7.6015,7.6015,7.6015,7.6015,7.6015,7.6015,7.6015,7.6015,7.6015,7.6015,7.6015,7.5361,7.5207,7.5938,7.5361,7.4938,7.4938,7.5592,7.5399,7.4007,7.3776,7.3315,7.2437,7.1437,7.0898,7.0898,7.1629,7.2059,7.2213,7.236,7.2329,6.5667,6.8075,7.041,7.0878,7.3791,7.6385,7.5847,7.6998,7.8418,7.9339,7.9742,7.9905,7.9875,7.9629,7.9203,7.8428,7.7517,7.6985,7.7224,7.724,0.0,0.0,0.0,0.0,0.0,0.0,0.0,0.0,7.336,7.2822,7.3469,7.2668,7.186,7.1091,7.0975,6.9821,6.7635,6.752,6.7096,6.6404,6.7019,6.7744,6.8545,6.7782,6.8282,6.9667,6.8776,6.8391,6.8314,6.7475,6.7096,6.7019,6.6211,6.5981,6.6173,6.6974,6.7821,6.8699,6.9552,7.0321,7.0898,7.0898,7.0898,7.0898,7.0898,7.0898,7.0898,7.0898,7.1437,7.2059,7.2175,7.3206,7.4238,7.4469,7.5207,7.563,7.4853,7.5399,7.6015,7.6015,7.6015,7.6015,7.6015,7.6015,7.6015,7.6015,7.6015,7.6015,7.6015,7.6015,7.6015,7.6015,7.5899,7.5861,7.5976,7.5899,7.5822,7.5822,7.5938,7.5899,7.5668,7.493,7.4161,7.3353,7.1745,7.0898,7.0898,7.1014,7.1475,7.2213,7.2976,7.2937,6.679,6.791,6.9071,7.0951,7.2809,7.435,7.4887,7.5961,7.7081,7.7925,7.81,7.8415,7.9394,7.8726,7.7713,7.6833,7.5957,7.5442,7.5476,7.5178,0.0,0.0,0.0,0.0,0.0,0.0,0.0,0.0,7.2636,7.2129,7.2052,7.1245,7.0629,7.0244,6.9283,6.825,6.7096,6.6635,6.625,6.5904,6.625,6.6628,6.6974,6.659,6.7096,6.8205,6.7359,6.7013,6.6974,6.6596,6.6442,6.6404,6.6058,6.5904,6.6013,6.6789,6.7321,6.7859,6.9244,6.9937,7.0283,7.0744,7.0898,7.0898,7.0898,7.0898,7.0898,7.0898,7.1514,7.2322,7.2783,7.3469,7.4276,7.5207,7.5361,7.5284,7.5399,7.5745,7.6015,7.6015,7.6015,7.6015,7.6015,7.6015,7.6015,7.6015,7.6015,7.6015,7.6015,7.6015,7.6015,7.6015,7.6015,7.6015,7.6015,7.6015,7.6015,7.6015,7.6015,7.6015,7.6015,7.5168,7.4546,7.4161,7.2514,7.1398,7.0898,7.1398,7.1552,7.1475,7.236,7.2198,6.6965,6.7209,6.7668,7.0272,7.1574,7.2601,7.3827,7.49,7.5904,7.6747,7.6527,7.6692,7.8194,7.7424,7.6263,7.5383,7.4579,7.4044,7.4044,7.3782,0.0,0.0,0.0,0.0,0.0,0.0,0.0,0.0,7.1867,7.1398,7.0321,6.9706,6.9283,6.9052,6.7789,6.7019,6.6789,6.6211,6.5904,6.5904,6.5904,6.5904,6.5904,6.5904,6.6327,6.7058,6.625,6.5904,6.5904,6.5904,6.5904,6.5904,6.5904,6.5904,6.5981,6.6558,6.6904,6.7289,6.859,6.9167,6.9513,7.0321,7.0591,7.0629,7.0821,7.0898,7.0898,7.0898,7.1514,7.2367,7.3014,7.3507,7.4123,7.5361,7.5361,7.5207,7.5861,7.6015,7.6015,7.6015,7.6015,7.6015,7.6015,7.6015,7.6015,7.6015,7.6015,7.6015,7.6015,7.6015,7.6015,7.6015,7.6015,7.6015,7.6015,7.6015,7.6015,7.6015,7.5784,7.5784,7.5976,7.5168,7.47,7.47,7.3476,7.2399,7.1552,7.1783,7.1629,7.1245,7.1783,7.1544,6.5019,6.624,6.7512,6.8059,7.0598,7.2957,7.3072,7.4333,7.5756,7.655,7.5433,7.463,7.5518,7.5633,7.5289,7.4393,7.3599,7.3064,7.3064,7.3797,0.0,0.0,0.0,0.0,0.0,0.0,0.0,0.0,7.0975,7.0244,6.8622,6.8507,6.809,6.725,6.7135,6.675,6.5981,6.5904,6.5904,6.5904,6.5904,6.5904,6.5904,6.5904,6.6327,6.7058,6.625,6.5904,6.5904,6.5904,6.5904,6.5904,6.5904,6.5904,6.5904,6.5942,6.6442,6.7096,6.7212,6.7782,6.8622,6.9475,6.9744,6.9898,7.0667,7.0898,7.0898,7.0898,7.1514,7.2213,7.2252,7.3437,7.4661,7.4738,7.5361,7.5938,7.5976,7.6015,7.6015,7.6015,7.6015,7.6015,7.6015,7.6015,7.6015,7.6015,7.6015,7.6015,7.6015,7.6015,7.6015,7.6015,7.6015,7.6015,7.6015,7.6015,7.6015,7.6015,7.5207,7.513,7.5976,7.5168,7.47,7.47,7.4623,7.4161,7.3353,7.1745,7.136,7.2129,7.1789,7.1573,6.4257,6.4732,6.5495,6.7744,6.9027,7.0007,7.1107,7.1794,7.2635,7.4049,7.3399,7.3017,7.4393,7.424,7.3599,7.2758,7.2826,7.2597,7.1489,7.2136,0.0,0.0,0.0,0.0,0.0,0.0,0.0,0.0,0.0,6.9045,6.843,6.7859,6.7398,6.7096,6.6596,6.6211,6.5904,6.5359,6.5051,6.5051,6.4512,6.4243,6.4237,6.482,6.5205,6.5513,6.5788,6.6211,6.6673,6.6673,6.6365,6.5942,6.6481,6.6365,6.5904,6.5904,6.6096,6.6404,6.6904,6.7282,6.7782,6.9244,6.9706,6.986,7.0667,7.0898,7.0898,7.0898,7.1514,7.2329,7.2899,7.3469,7.4046,7.4584,7.5361,7.6015,7.6015,7.6015,7.6015,7.6015,7.6015,7.6015,7.6015,7.6015,7.6015,7.6015,7.6015,7.6015,7.6015,7.6015,7.6015,7.6015,7.6015,7.6015,7.6015,7.6015,7.6015,7.6015,7.5707,7.5938,7.6791,7.6015,7.5784,7.6361,7.5284,7.4315,7.3507,7.2853,7.2437,7.2206,7.1811,7.1438,6.2847,6.2972,6.3464,6.6491,6.7271,6.7777,6.9592,7.022,7.0716,7.1909,7.145,7.1191,7.2329,7.1833,7.1382,7.165,7.1956,7.1718,7.0563,7.1194,0.0,0.0,0.0,0.0,0.0,0.0,0.0,0.0,0.0,0.0,6.7583,6.7013,6.6558,6.6282,6.6019,6.5628,6.5013,6.4436,6.4166,6.4166,6.3583,6.3314,6.3314,6.4199,6.4743,6.5051,6.5628,6.6211,6.6712,6.6712,6.6365,6.5942,6.6481,6.6365,6.5904,6.5904,6.5904,6.5981,6.6519,6.6712,6.6942,6.8359,6.8821,6.8975,6.9821,7.0283,7.0514,7.0514,7.1091,7.1898,7.2476,7.2853,7.336,7.443,7.513,7.563,7.5938,7.6015,7.6015,7.6015,7.6015,7.6015,7.6015,7.6015,7.6015,7.6015,7.6015,7.6015,7.6015,7.6015,7.6015,7.6015,7.6015,7.6015,7.6015,7.6015,7.6015,7.6015,7.5745,7.5938,7.6823,7.6015,7.5976,7.6861,7.5745,7.4738,7.3892,7.3623,7.3111,7.2386,7.171,7.1209,0.0,0.0,0.0,6.4075,6.5349,6.6488,6.8597,6.9655,7.022,7.0296,6.9693,6.912,6.9196,6.847,6.8707,7.1191,7.0916,7.0372,7.0334,7.1068,0.0,0.0,0.0,0.0,0.0,0.0,0.0,0.0,6.7859,6.7628,6.5974,6.5859,6.5474,6.4589,6.5397,6.5013,6.3314,6.3275,6.3275,6.3275,6.3237,6.3237,6.3275,6.4128,6.4974,6.5788,6.582,6.582,6.582,6.5904,6.5904,6.5904,6.5942,6.5904,6.5904,6.5904,6.5904,6.5904,6.5904,6.5904,6.6019,6.6827,6.7096,6.725,6.8122,6.9007,6.9706,6.9706,7.0283,7.0898,7.0898,7.1552,7.2629,7.4245,7.4661,7.493,7.5784,7.5969,7.6015,7.6015,7.6015,7.6015,7.6015,7.6015,7.6015,7.6015,7.6015,7.6015,7.6015,7.6015,7.6015,7.6015,7.6015,7.6015,7.6015,7.6015,7.6015,7.6015,7.5207,7.5123,7.6015,7.5207,7.5168,7.6015,7.6015,7.5553,7.4661,7.3885,7.3254,7.2754,7.1559,7.0928,5.8609,0.0,0.0,0.0,0.0,0.0,6.5123,6.5765,6.6407,6.8203,6.7935,6.7744,6.8967,6.847,6.8134,6.886,6.9273,6.9311,6.8661,6.9349,0.0,0.0,0.0,0.0,0.0,0.0,0.0,0.0,6.6782,6.6397,6.5904,6.5282,6.4551,6.3698,6.3891,6.3775,6.3314,6.2704,6.2441,6.2403,6.1781,6.1473,6.1512,6.2403,6.2903,6.3172,6.3782,6.4006,6.4166,6.6019,6.6442,6.5981,6.6558,6.6404,6.5904,6.5904,6.5904,6.5904,6.5904,6.5904,6.6019,6.6827,6.7096,6.725,6.8122,6.9007,6.9706,6.9706,7.0283,7.0898,7.0898,7.2014,7.3091,7.2937,7.3779,7.4703,7.4934,7.5464,7.594,7.6,7.6015,7.6015,7.6015,7.6015,7.6015,7.6015,7.6015,7.6015,7.6015,7.6015,7.6015,7.6015,7.6015,7.6015,7.6015,7.6015,7.6015,7.6015,7.5784,7.6015,7.6899,7.6092,7.6053,7.6907,7.6322,7.5284,7.3815,7.3906,7.324,7.193,7.0949,7.0635,5.687,5.7302,5.809,5.9973,0.0,0.0,6.2557,6.2727,6.3205,6.5375,6.5146,6.5108,6.6789,6.6407,6.591,6.63,6.6797,6.7293,6.7828,6.8325,0.0,0.0,0.0,0.0,0.0,6.7508,6.7018,6.709,6.6673,6.6096,6.5397,6.4897,6.4051,6.2858,6.3121,6.2968,6.2243,6.1781,6.1556,6.1556,6.1056,6.0787,6.0825,6.171,6.2095,6.2133,6.2935,6.3314,6.3429,6.4897,6.5243,6.4936,6.6134,6.6096,6.5397,6.5782,6.5904,6.5904,6.5904,6.5904,6.5981,6.6442,6.6596,6.6712,6.7205,6.7936,6.8706,6.9052,7.0014,7.0898,7.0898,7.1668,7.2399,7.2213,7.2909,7.368,7.4065,7.4787,7.5518,7.5886,7.5993,7.6015,7.6015,7.6015,7.6015,7.6015,7.6015,7.6015,7.6015,7.6015,7.6015,7.6015,7.6015,7.6015,7.6015,7.6015,7.6015,7.6015,7.6015,7.6399,7.7253,7.6476,7.6399,7.7292,7.6438,7.5004,7.2964,7.4053,7.3565,7.1579,7.0862,7.067,5.5548,5.6576,5.7791,0.0,0.0,0.0,6.0741,6.0578,6.0755,6.2311,6.2013,6.1975,6.3625,6.3274,6.3045,6.3893,6.4122,6.5001,6.7293,6.7637,0.0,0.0,0.0,0.0,6.7832,6.7243,6.6896,6.6974,6.6865,6.6128,6.4551,6.4359,6.3628,6.2133,6.2704,6.2358,6.0979,6.0941,6.0941,6.0941,6.0941,6.0941,6.0979,6.1633,6.1941,6.1979,6.2704,6.3006,6.3045,6.3121,6.3237,6.3468,6.5128,6.5282,6.4705,6.559,6.5904,6.5904,6.5904,6.5904,6.5904,6.5904,6.5904,6.5904,6.5904,6.6442,6.7282,6.8276,6.9667,7.0898,7.0898,7.0898,7.1091,7.1867,7.2129,7.2385,7.3178,7.3947,7.4771,7.558,7.5879,7.6015,7.6015,7.6015,7.6015,7.6015,7.6015,7.6015,7.6015,7.6015,7.6015,7.6015,7.6015,7.6015,7.6015,7.6015,7.6015,7.6015,7.6015,7.6399,7.7253,7.6476,7.6399,7.7292,7.6293,7.4574,7.2146,7.4,7.3667,7.14,7.0945,7.0834,0.0,0.0,0.0,0.0,0.0,0.0,5.9706,5.998,6.0106,6.0748,6.0759,6.095,6.1936,6.1975,6.2128,6.3006,6.374,6.458,6.5719,6.5872,6.5872,0.0,0.0,0.0,6.6085,6.596,6.5952,6.6122,6.5474,6.4628,6.3622,6.2935,6.2441,6.2095,6.1556,6.1479,6.1826,6.1864,6.1864,6.1864,6.1864,6.1864,6.1826,6.1287,6.1056,6.1056,6.1204,6.1281,6.1358,6.2056,6.2704,6.3391,6.4436,6.4743,6.4705,6.559,6.5904,6.5904,6.5904,6.5904,6.5904,6.5904,6.5904,6.5904,6.5904,6.6442,6.7443,6.9013,7.0167,7.0898,7.0898,7.0898,7.0937,7.1091,7.1657,7.2131,7.2179,7.2901,7.3745,7.4604,7.5457,7.6015,7.6015,7.6015,7.6015,7.6015,7.6015,7.6015,7.6015,7.6015,7.6015,7.6015,7.6015,7.6015,7.6015,7.6015,7.6015,7.6015,7.6015,7.6399,7.7253,7.6476,7.6399,7.7292,7.5446,7.3562,7.1707,7.2111,7.1558,7.0065,6.9992,7.0276,0.0,0.0,0.0,5.6836,0.0,0.0,0.0,5.7488,5.7456,5.893,5.8715,5.8751,6.0411,6.0187,6.0179,6.144,6.202,6.2746,6.4,6.4879,6.5413,0.0,0.0,0.0,6.615,6.5848,6.5663,6.5891,6.4705,6.3929,6.3929,6.3166,6.2518,6.2095,6.205,6.205,6.2095,6.2518,6.2704,6.2704,6.2704,6.2704,6.2666,6.1826,6.1441,6.1402,6.0979,6.0787,6.0819,6.1287,6.171,6.2166,6.3429,6.3705,6.3518,6.4782,6.5243,6.532,6.5743,6.5904,6.5904,6.5904,6.5904,6.5904,6.5904,6.6782,6.7936,6.8821,6.9937,7.0898,7.0898,7.0898,7.0898,7.0898,7.1217,7.1482,7.1408,7.2063,7.277,7.3231,7.4367,7.5411,7.5871,7.5879,7.5718,7.5379,7.5686,7.5817,7.5392,7.5745,7.6015,7.6015,7.563,7.5515,7.5976,7.5592,7.5553,7.5976,7.6015,7.6553,7.7869,7.7099,7.6755,7.6936,7.4657,7.2834,7.1602,7.1366,7.072,6.9682,6.9274,6.9534,0.0,0.0,0.0,0.0,0.0,5.7216,0.0,0.0,0.0,5.6933,5.6467,5.645,5.8664,0.0,0.0,0.0,0.0,0.0,0.0,6.3618,0.0,0.0,0.0,0.0,0.0,6.5671,6.5466,6.5622,6.4359,6.3852,6.4551,6.3775,6.3089,6.2595,6.3051,6.3089,6.2595,6.3051,6.3314,6.3314,6.3314,6.3314,6.3275,6.2627,6.2326,6.2287,6.1402,6.1056,6.1056,6.0864,6.0787,6.0935,6.2474,6.2781,6.2518,6.4051,6.4705,6.4936,6.5667,6.5904,6.5904,6.5904,6.5904,6.5904,6.5904,6.7051,6.8391,6.8391,6.9629,7.0898,7.0898,7.0898,7.0898,7.0878,7.0885,7.0885,7.0843,7.1377,7.1886,7.2017,7.31,7.4335,7.5426,7.5541,7.5333,7.4866,7.5296,7.5396,7.4747,7.53,7.5692,7.5515,7.4892,7.4738,7.5476,7.5007,7.5007,7.5707,7.5899,7.6746,7.8446,7.7654,7.6736,7.5764,7.3655,7.2034,7.1006,7.0796,7.0351,6.9682,6.9199,6.9311,0.0,0.0,0.0,0.0,5.7811,0.0,0.0,0.0,5.5658,5.4894,0.0,5.4906,5.6284,0.0,0.0,0.0,0.0,0.0,5.9599,6.0974,6.2319,6.3075,0.0,0.0,0.0,6.4257,6.4724,6.4743,6.4551,6.4512,6.4589,6.3775,6.3622,6.4282,6.366,6.3622,6.432,6.3622,6.3314,6.3314,6.3314,6.3314,6.3314,6.3198,6.316,6.3121,6.2287,6.1941,6.1903,6.1133,6.0787,6.0902,6.1864,6.2627,6.3275,6.4243,6.5089,6.5782,6.5865,6.5904,6.5904,6.5904,6.5904,6.5904,6.5904,6.7051,6.8391,6.8391,6.9629,7.0898,7.0898,7.0898,7.0885,7.0815,7.085,7.0843,7.067,7.0754,7.1053,7.1704,7.1931,7.2573,7.4335,7.4657,7.4849,7.5478,7.5056,7.4658,7.4635,7.4681,7.4518,7.3846,7.3699,7.3661,7.3776,7.4353,7.4738,7.4853,7.5553,7.6746,7.8446,7.741,7.5506,7.2747,7.2062,7.0776,6.885,6.9521,6.9794,6.9719,7.0351,7.0672,0.0,0.0,0.0,0.0,0.0,0.0,5.6678,0.0,5.5797,0.0,0.0,0.0,0.0,0.0,0.0,0.0,5.757,0.0,0.0,0.0,6.0107,0.0,0.0,0.0,0.0,0.0,0.0,0.0,6.4314,6.4589,6.4589,6.4743,6.4743,6.4589,6.4743,6.4512,6.3852,6.3968,6.3814,6.3314,6.3814,6.4045,6.4045,6.3545,6.3583,6.3929,6.2127,6.1633,6.2018,6.1172,6.0787,6.0825,6.121,6.1864,6.2704,6.3551,6.4397,6.5166,6.5166,6.5474,6.5904,6.5904,6.5904,6.5904,6.5904,6.7051,6.8391,6.8391,6.9629,7.0898,7.0898,7.0898,7.0891,7.0864,7.0843,7.0808,7.0745,7.0678,7.0739,7.1052,7.144,7.1942,7.2743,7.3286,7.3609,7.3466,7.3589,7.3568,7.3199,7.3559,7.3774,7.3538,7.3053,7.2937,7.3469,7.336,7.3668,7.4623,7.5976,7.7053,7.7753,7.6817,7.5693,7.4442,7.277,7.1267,6.9905,6.9756,6.9459,6.9013,6.9831,7.0462,5.5897,0.0,0.0,0.0,0.0,0.0,0.0,0.0,0.0,0.0,0.0,0.0,0.0,0.0,0.0,0.0,0.0,5.6774,0.0,5.7194,0.0,0.0,0.0,0.0,0.0,0.0,0.0,6.2668,6.3597,6.4225,6.4237,6.4859,6.5013,6.4628,6.5436,6.5051,6.3314,6.3929,6.3929,6.3314,6.3929,6.4359,6.4589,6.4199,6.4359,6.482,6.2512,6.182,6.2326,6.1248,6.0787,6.0787,6.0787,6.1325,6.2172,6.2743,6.3512,6.4237,6.4237,6.482,6.559,6.582,6.5904,6.5904,6.5904,6.7051,6.8391,6.8391,6.9629,7.0898,7.0898,7.0898,7.0885,7.085,7.0815,7.0772,7.0707,7.0655,7.0569,7.0546,7.0995,7.1336,7.1336,7.2062,7.2545,7.2191,7.2475,7.2569,7.2095,7.2547,7.2892,7.2779,7.2192,7.2091,7.2738,7.2437,7.2899,7.4584,7.6322,7.7176,7.6938,7.612,7.5542,7.5304,7.3049,7.1403,7.0574,6.9979,6.9385,6.8865,6.9645,7.0351,0.0,0.0,0.0,5.6919,0.0,0.0,0.0,0.0,5.5401,0.0,0.0,0.0,0.0,0.0,0.0,0.0,0.0,0.0,0.0,0.0,0.0,0.0,0.0,0.0,0.0,0.0,0.0,6.0883,6.2305,6.3252,6.3352,6.3352,6.3775,6.4589,6.5436,6.5051,6.3314,6.3314,6.3314,6.3314,6.3314,6.3775,6.4628,6.5436,6.582,6.5743,6.3974,6.3237,6.3121,6.1473,6.0787,6.0787,6.0787,6.1325,6.2095,6.2133,6.2666,6.3352,6.3352,6.3891,6.4782,6.5628,6.5904,6.5904,6.5904,6.7051,6.8391,6.8391,6.9629,7.0898,7.0898,7.0898,7.0864,7.076,7.0743,7.0729,7.0483,7.0522,7.0554,7.0435,7.0419,7.0449,7.0449,7.1145,7.2032,7.2834,7.2261,7.1759,7.181,7.1889,7.1658,7.0979,7.0934,7.0937,7.0975,7.1745,7.2899,7.4584,7.6322,7.6907,7.6092,7.5214,7.4376,7.3598,7.1827,7.0536,6.9756,6.9719,6.9682,6.9682,7.0499,7.0871,0.0,0.0,5.894,5.8243,0.0,0.0,0.0,0.0,0.0,0.0,0.0,0.0,0.0,0.0,0.0,0.0,0.0,0.0,0.0,0.0,0.0,0.0,0.0,0.0,0.0,0.0,0.0,5.9881,6.0859,6.1549,6.1567,6.268,6.3429,6.3737,6.5128,6.5051,6.3314,6.3314,6.3314,6.3314,6.3314,6.3775,6.4589,6.4314,6.4474,6.4897,6.2627,6.1973,6.2435,6.1287,6.0787,6.0787,6.0787,6.0979,6.1325,6.1903,6.2589,6.3314,6.3314,6.3506,6.3891,6.4743,6.5436,6.5904,6.5904,6.7051,6.8391,6.8391,6.9629,7.0898,7.0898,7.0864,7.0815,7.0765,7.073,7.0639,7.0554,7.0514,7.0443,7.0419,7.0411,7.0411,7.0411,7.064,7.0954,7.1259,7.103,7.0888,7.1038,7.1076,7.1028,7.0888,7.0885,7.0898,7.0898,7.2245,7.3315,7.3853,7.5515,7.6322,7.6015,7.5434,7.4857,7.4308,7.3425,7.2123,7.0499,7.0499,6.9942,6.8939,6.9719,7.0685,5.8886,5.9368,0.0,5.8708,5.8314,0.0,5.6481,0.0,0.0,0.0,0.0,0.0,0.0,0.0,0.0,0.0,0.0,0.0,0.0,5.3544,0.0,0.0,0.0,0.0,0.0,0.0,5.9855,5.8709,5.919,5.9843,0.0,0.0,6.2049,6.2784,6.4507,6.4597,6.286,6.3455,6.3775,6.3775,6.3775,6.4205,6.5013,6.4166,6.4083,6.4474,6.2249,6.1595,6.2018,6.1172,6.0787,6.0787,6.0787,6.0775,6.0834,6.1435,6.1973,6.2474,6.2781,6.3032,6.3398,6.4308,6.5186,6.5865,6.5891,6.6859,6.7936,6.7936,6.9167,7.0475,7.0475,7.0651,7.0787,7.0758,7.0685,7.0608,7.0538,7.0451,7.0411,7.0411,7.0411,7.0411,7.0411,7.0411,7.0411,7.0411,7.0411,7.0467,7.0647,7.07,7.0729,7.085,7.0885,7.0898,7.0898,7.2206,7.3168,7.3469,7.4776,7.5668,7.5976,7.5417,7.4952,7.4715,7.4101,7.2832,7.0908,7.0908,7.0091,6.8493,6.9051,7.0016]}]]